Wetterdaten: Samstag, 14.01.2023
Datum Zeit Temp. 2m Temp +5 cm Feuchte A. Luftdruck Regen Wind Richtung Richtung Sonnenschein UV Solar Taupunkt Windchill Windben
14.01.2023 00:00 4,2 C 3,3 C 90 % 1018,9 hPa 0,0 l/m 12,9 km/h (3 Bft) S-SW 202 0 min 0,0 UV-I 0 W/m 2,7 C -0,7 C 22,5 km/h (4 Bft)
14.01.2023 00:01 4,2 C 3,3 C 90 % 1019,0 hPa 0,0 l/m 14,5 km/h (3 Bft) S-SW 202 0 min 0,0 UV-I 0 W/m 2,7 C -1,6 C 20,9 km/h (4 Bft)
14.01.2023 00:02 4,2 C 3,3 C 90 % 1018,9 hPa 0,0 l/m 11,3 km/h (2 Bft) S 180 0 min 0,0 UV-I 0 W/m 2,7 C 0,3 C 16,1 km/h (3 Bft)
14.01.2023 00:03 4,2 C 3,3 C 90 % 1019,0 hPa 0,0 l/m 9,7 km/h (2 Bft) S-SW 202 0 min 0,0 UV-I 0 W/m 2,7 C 1,4 C 14,5 km/h (3 Bft)
14.01.2023 00:04 4,2 C 3,3 C 90 % 1018,9 hPa 0,0 l/m 14,5 km/h (3 Bft) S-SW 202 0 min 0,0 UV-I 0 W/m 2,7 C -1,6 C 20,9 km/h (4 Bft)
14.01.2023 00:05 4,2 C 3,3 C 90 % 1018,9 hPa 0,0 l/m 12,9 km/h (3 Bft) S-SW 202 0 min 0,0 UV-I 0 W/m 2,7 C -0,7 C 16,1 km/h (3 Bft)
14.01.2023 00:06 4,2 C 3,3 C 90 % 1018,9 hPa 0,0 l/m 14,5 km/h (3 Bft) S-SW 202 0 min 0,0 UV-I 0 W/m 2,7 C -1,6 C 20,9 km/h (4 Bft)
14.01.2023 00:07 4,2 C 3,3 C 90 % 1018,9 hPa 0,0 l/m 16,1 km/h (3 Bft) S-SW 202 0 min 0,0 UV-I 0 W/m 2,7 C -2,5 C 22,5 km/h (4 Bft)
14.01.2023 00:08 4,2 C 3,3 C 90 % 1018,9 hPa 0,0 l/m 16,1 km/h (3 Bft) S-SW 202 0 min 0,0 UV-I 0 W/m 2,7 C -2,5 C 20,9 km/h (4 Bft)
14.01.2023 00:09 4,2 C 3,3 C 90 % 1019,0 hPa 0,0 l/m 16,1 km/h (3 Bft) S 180 0 min 0,0 UV-I 0 W/m 2,7 C -2,5 C 25,7 km/h (4 Bft)
14.01.2023 00:10 4,2 C 3,3 C 90 % 1019,0 hPa 0,0 l/m 16,1 km/h (3 Bft) S-SW 202 0 min 0,0 UV-I 0 W/m 2,7 C -2,5 C 20,9 km/h (4 Bft)
14.01.2023 00:11 4,2 C 3,3 C 90 % 1019,0 hPa 0,0 l/m 14,5 km/h (3 Bft) S-SW 202 0 min 0,0 UV-I 0 W/m 2,7 C -1,6 C 19,3 km/h (3 Bft)
14.01.2023 00:12 4,2 C 3,3 C 90 % 1019,1 hPa 0,0 l/m 14,5 km/h (3 Bft) S-SW 202 0 min 0,0 UV-I 0 W/m 2,7 C -1,6 C 17,7 km/h (3 Bft)
14.01.2023 00:13 4,2 C 3,3 C 90 % 1019,1 hPa 0,0 l/m 11,3 km/h (2 Bft) S-SW 202 0 min 0,0 UV-I 0 W/m 2,7 C 0,3 C 17,7 km/h (3 Bft)
14.01.2023 00:14 4,2 C 3,3 C 90 % 1019,2 hPa 0,0 l/m 12,9 km/h (3 Bft) S-SW 202 0 min 0,0 UV-I 0 W/m 2,7 C -0,7 C 19,3 km/h (3 Bft)
14.01.2023 00:15 4,2 C 3,3 C 90 % 1019,1 hPa 0,0 l/m 11,3 km/h (2 Bft) S-SW 202 0 min 0,0 UV-I 0 W/m 2,7 C 0,3 C 16,1 km/h (3 Bft)
14.01.2023 00:16 4,2 C 3,3 C 90 % 1019,1 hPa 0,0 l/m 11,3 km/h (2 Bft) S-SW 202 0 min 0,0 UV-I 0 W/m 2,7 C 0,3 C 17,7 km/h (3 Bft)
14.01.2023 00:17 4,2 C 3,3 C 90 % 1019,1 hPa 0,0 l/m 16,1 km/h (3 Bft) S-SW 202 0 min 0,0 UV-I 0 W/m 2,7 C -2,5 C 24,1 km/h (4 Bft)
14.01.2023 00:18 4,2 C 3,3 C 90 % 1019,3 hPa 0,0 l/m 14,5 km/h (3 Bft) S-SW 202 0 min 0,0 UV-I 0 W/m 2,7 C -1,6 C 19,3 km/h (3 Bft)
14.01.2023 00:19 4,2 C 3,3 C 90 % 1019,3 hPa 0,0 l/m 11,3 km/h (2 Bft) S-SW 202 0 min 0,0 UV-I 0 W/m 2,7 C 0,3 C 14,5 km/h (3 Bft)
14.01.2023 00:20 4,2 C 3,3 C 90 % 1019,3 hPa 0,0 l/m 11,3 km/h (2 Bft) S-SW 202 0 min 0,0 UV-I 0 W/m 2,7 C 0,3 C 16,1 km/h (3 Bft)
14.01.2023 00:21 4,1 C 3,3 C 90 % 1019,3 hPa 0,0 l/m 12,9 km/h (3 Bft) S-SW 202 0 min 0,0 UV-I 0 W/m 2,6 C -0,8 C 19,3 km/h (3 Bft)
14.01.2023 00:22 4,2 C 3,3 C 90 % 1019,3 hPa 0,0 l/m 14,5 km/h (3 Bft) S 180 0 min 0,0 UV-I 0 W/m 2,7 C -1,6 C 20,9 km/h (4 Bft)
14.01.2023 00:23 4,1 C 3,3 C 90 % 1019,3 hPa 0,0 l/m 16,1 km/h (3 Bft) S-SW 202 0 min 0,0 UV-I 0 W/m 2,6 C -2,6 C 20,9 km/h (4 Bft)
14.01.2023 00:24 4,1 C 3,3 C 90 % 1019,3 hPa 0,0 l/m 12,9 km/h (3 Bft) S-SW 202 0 min 0,0 UV-I 0 W/m 2,6 C -0,8 C 22,5 km/h (4 Bft)
14.01.2023 00:25 4,2 C 3,3 C 90 % 1019,3 hPa 0,0 l/m 8,0 km/h (2 Bft) S-SW 202 0 min 0,0 UV-I 0 W/m 2,7 C 2,8 C 12,9 km/h (3 Bft)
14.01.2023 00:26 4,2 C 3,3 C 90 % 1019,3 hPa 0,0 l/m 9,7 km/h (2 Bft) S 180 0 min 0,0 UV-I 0 W/m 2,7 C 1,4 C 16,1 km/h (3 Bft)
14.01.2023 00:27 4,1 C 3,3 C 90 % 1019,3 hPa 0,0 l/m 14,5 km/h (3 Bft) S-SW 202 0 min 0,0 UV-I 0 W/m 2,6 C -1,7 C 19,3 km/h (3 Bft)
14.01.2023 00:28 4,2 C 3,3 C 90 % 1019,3 hPa 0,0 l/m 9,7 km/h (2 Bft) S 180 0 min 0,0 UV-I 0 W/m 2,7 C 1,4 C 12,9 km/h (3 Bft)
14.01.2023 00:29 4,1 C 3,3 C 90 % 1019,3 hPa 0,0 l/m 12,9 km/h (3 Bft) S-SW 202 0 min 0,0 UV-I 0 W/m 2,6 C -0,8 C 19,3 km/h (3 Bft)
14.01.2023 00:30 4,1 C 3,3 C 90 % 1019,4 hPa 0,0 l/m 12,9 km/h (3 Bft) S 180 0 min 0,0 UV-I 0 W/m 2,6 C -0,8 C 17,7 km/h (3 Bft)
14.01.2023 00:31 4,2 C 3,3 C 90 % 1019,3 hPa 0,0 l/m 9,7 km/h (2 Bft) S-SW 202 0 min 0,0 UV-I 0 W/m 2,7 C 1,4 C 16,1 km/h (3 Bft)
14.01.2023 00:32 4,1 C 3,3 C 90 % 1019,3 hPa 0,0 l/m 14,5 km/h (3 Bft) S 180 0 min 0,0 UV-I 0 W/m 2,6 C -1,7 C 20,9 km/h (4 Bft)
14.01.2023 00:33 4,1 C 3,3 C 90 % 1019,3 hPa 0,0 l/m 14,5 km/h (3 Bft) S 180 0 min 0,0 UV-I 0 W/m 2,6 C -1,7 C 19,3 km/h (3 Bft)
14.01.2023 00:34 4,2 C 3,3 C 90 % 1019,5 hPa 0,0 l/m 9,7 km/h (2 Bft) S-SW 202 0 min 0,0 UV-I 0 W/m 2,7 C 1,4 C 12,9 km/h (3 Bft)
14.01.2023 00:35 4,1 C 3,3 C 90 % 1019,3 hPa 0,0 l/m 12,9 km/h (3 Bft) S 180 0 min 0,0 UV-I 0 W/m 2,6 C -0,8 C 24,1 km/h (4 Bft)
14.01.2023 00:36 4,1 C 3,3 C 90 % 1019,5 hPa 0,0 l/m 9,7 km/h (2 Bft) S-SW 202 0 min 0,0 UV-I 0 W/m 2,6 C 1,3 C 11,3 km/h (2 Bft)
14.01.2023 00:37 4,1 C 3,3 C 90 % 1019,4 hPa 0,0 l/m 9,7 km/h (2 Bft) S-SW 202 0 min 0,0 UV-I 0 W/m 2,6 C 1,3 C 14,5 km/h (3 Bft)
14.01.2023 00:38 4,2 C 3,3 C 90 % 1019,5 hPa 0,0 l/m 8,0 km/h (2 Bft) S 180 0 min 0,0 UV-I 0 W/m 2,7 C 2,8 C 14,5 km/h (3 Bft)
14.01.2023 00:39 4,1 C 3,3 C 90 % 1019,5 hPa 0,0 l/m 8,0 km/h (2 Bft) S 180 0 min 0,0 UV-I 0 W/m 2,6 C 2,7 C 9,7 km/h (2 Bft)
14.01.2023 00:40 4,2 C 3,3 C 90 % 1019,4 hPa 0,0 l/m 9,7 km/h (2 Bft) S 180 0 min 0,0 UV-I 0 W/m 2,7 C 1,4 C 16,1 km/h (3 Bft)
14.01.2023 00:41 4,2 C 3,3 C 90 % 1019,4 hPa 0,0 l/m 12,9 km/h (3 Bft) S 180 0 min 0,0 UV-I 0 W/m 2,7 C -0,7 C 22,5 km/h (4 Bft)
14.01.2023 00:42 4,1 C 3,3 C 90 % 1019,5 hPa 0,0 l/m 14,5 km/h (3 Bft) S 180 0 min 0,0 UV-I 0 W/m 2,6 C -1,7 C 25,7 km/h (4 Bft)
14.01.2023 00:43 4,1 C 3,3 C 90 % 1019,5 hPa 0,0 l/m 11,3 km/h (2 Bft) S 180 0 min 0,0 UV-I 0 W/m 2,6 C 0,2 C 17,7 km/h (3 Bft)
14.01.2023 00:44 4,2 C 3,3 C 90 % 1019,5 hPa 0,0 l/m 11,3 km/h (2 Bft) S 180 0 min 0,0 UV-I 0 W/m 2,7 C 0,3 C 17,7 km/h (3 Bft)
14.01.2023 00:45 4,2 C 3,3 C 90 % 1019,5 hPa 0,0 l/m 12,9 km/h (3 Bft) S 180 0 min 0,0 UV-I 0 W/m 2,7 C -0,7 C 17,7 km/h (3 Bft)
14.01.2023 00:46 4,2 C 3,3 C 90 % 1019,5 hPa 0,0 l/m 14,5 km/h (3 Bft) S 180 0 min 0,0 UV-I 0 W/m 2,7 C -1,6 C 17,7 km/h (3 Bft)
14.01.2023 00:47 4,2 C 3,3 C 90 % 1019,5 hPa 0,0 l/m 16,1 km/h (3 Bft) S 180 0 min 0,0 UV-I 0 W/m 2,7 C -2,5 C 27,4 km/h (4 Bft)
14.01.2023 00:48 4,2 C 3,3 C 90 % 1019,5 hPa 0,0 l/m 12,9 km/h (3 Bft) S 180 0 min 0,0 UV-I 0 W/m 2,7 C -0,7 C 25,7 km/h (4 Bft)
14.01.2023 00:49 4,2 C 3,3 C 90 % 1019,5 hPa 0,0 l/m 9,7 km/h (2 Bft) S 180 0 min 0,0 UV-I 0 W/m 2,7 C 1,4 C 14,5 km/h (3 Bft)
14.01.2023 00:50 4,2 C 3,3 C 90 % 1019,4 hPa 0,0 l/m 11,3 km/h (2 Bft) S 180 0 min 0,0 UV-I 0 W/m 2,7 C 0,3 C 14,5 km/h (3 Bft)
14.01.2023 00:51 4,2 C 3,3 C 90 % 1019,5 hPa 0,0 l/m 9,7 km/h (2 Bft) S 180 0 min 0,0 UV-I 0 W/m 2,7 C 1,4 C 17,7 km/h (3 Bft)
14.01.2023 00:52 4,2 C 3,3 C 90 % 1019,4 hPa 0,0 l/m 12,9 km/h (3 Bft) S 180 0 min 0,0 UV-I 0 W/m 2,7 C -0,7 C 24,1 km/h (4 Bft)
14.01.2023 00:53 4,2 C 3,3 C 90 % 1019,4 hPa 0,0 l/m 11,3 km/h (2 Bft) S-SO 157 0 min 0,0 UV-I 0 W/m 2,7 C 0,3 C 17,7 km/h (3 Bft)
14.01.2023 00:54 4,2 C 3,3 C 90 % 1019,3 hPa 0,0 l/m 16,1 km/h (3 Bft) S 180 0 min 0,0 UV-I 0 W/m 2,7 C -2,5 C 33,8 km/h (5 Bft)
14.01.2023 00:55 4,2 C 3,3 C 90 % 1019,4 hPa 0,0 l/m 14,5 km/h (3 Bft) S 180 0 min 0,0 UV-I 0 W/m 2,7 C -1,6 C 22,5 km/h (4 Bft)
14.01.2023 00:56 4,2 C 3,3 C 90 % 1019,4 hPa 0,0 l/m 11,3 km/h (2 Bft) S 180 0 min 0,0 UV-I 0 W/m 2,7 C 0,3 C 29,0 km/h (5 Bft)
14.01.2023 00:57 4,2 C 3,3 C 90 % 1019,4 hPa 0,0 l/m 12,9 km/h (3 Bft) S 180 0 min 0,0 UV-I 0 W/m 2,7 C -0,7 C 20,9 km/h (4 Bft)
14.01.2023 00:58 4,2 C 3,3 C 90 % 1019,4 hPa 0,0 l/m 11,3 km/h (2 Bft) S 180 0 min 0,0 UV-I 0 W/m 2,7 C 0,3 C 16,1 km/h (3 Bft)
14.01.2023 00:59 4,2 C 3,3 C 90 % 1019,4 hPa 0,0 l/m 11,3 km/h (2 Bft) S 180 0 min 0,0 UV-I 0 W/m 2,7 C 0,3 C 19,3 km/h (3 Bft)
14.01.2023 01:00 4,2 C 3,3 C 90 % 1019,3 hPa 0,0 l/m 11,3 km/h (2 Bft) S-SO 157 0 min 0,0 UV-I 0 W/m 2,7 C 0,3 C 17,7 km/h (3 Bft)
14.01.2023 01:01 4,2 C 3,3 C 90 % 1019,4 hPa 0,0 l/m 11,3 km/h (2 Bft) S-SW 202 0 min 0,0 UV-I 0 W/m 2,7 C 0,3 C 16,1 km/h (3 Bft)
14.01.2023 01:02 4,2 C 3,3 C 90 % 1019,3 hPa 0,0 l/m 12,9 km/h (3 Bft) S-SW 202 0 min 0,0 UV-I 0 W/m 2,7 C -0,7 C 16,1 km/h (3 Bft)
14.01.2023 01:03 4,2 C 3,3 C 90 % 1019,3 hPa 0,0 l/m 11,3 km/h (2 Bft) S 180 0 min 0,0 UV-I 0 W/m 2,7 C 0,3 C 16,1 km/h (3 Bft)
14.01.2023 01:04 4,2 C 3,3 C 90 % 1019,3 hPa 0,0 l/m 9,7 km/h (2 Bft) S 180 0 min 0,0 UV-I 0 W/m 2,7 C 1,4 C 16,1 km/h (3 Bft)
14.01.2023 01:05 4,2 C 3,3 C 90 % 1019,3 hPa 0,0 l/m 8,0 km/h (2 Bft) S 180 0 min 0,0 UV-I 0 W/m 2,7 C 2,8 C 12,9 km/h (3 Bft)
14.01.2023 01:06 4,2 C 3,3 C 90 % 1019,3 hPa 0,0 l/m 11,3 km/h (2 Bft) S 180 0 min 0,0 UV-I 0 W/m 2,7 C 0,3 C 14,5 km/h (3 Bft)
14.01.2023 01:07 4,2 C 3,3 C 90 % 1019,3 hPa 0,0 l/m 14,5 km/h (3 Bft) S-SW 202 0 min 0,0 UV-I 0 W/m 2,7 C -1,6 C 17,7 km/h (3 Bft)
14.01.2023 01:08 4,2 C 3,3 C 90 % 1019,3 hPa 0,0 l/m 12,9 km/h (3 Bft) S 180 0 min 0,0 UV-I 0 W/m 2,7 C -0,7 C 19,3 km/h (3 Bft)
14.01.2023 01:09 4,2 C 3,3 C 90 % 1019,3 hPa 0,0 l/m 11,3 km/h (2 Bft) S-SW 202 0 min 0,0 UV-I 0 W/m 2,7 C 0,3 C 14,5 km/h (3 Bft)
14.01.2023 01:10 4,2 C 3,3 C 90 % 1019,3 hPa 0,0 l/m 11,3 km/h (2 Bft) S 180 0 min 0,0 UV-I 0 W/m 2,7 C 0,3 C 19,3 km/h (3 Bft)
14.01.2023 01:11 4,2 C 3,3 C 90 % 1019,3 hPa 0,0 l/m 9,7 km/h (2 Bft) S 180 0 min 0,0 UV-I 0 W/m 2,7 C 1,4 C 16,1 km/h (3 Bft)
14.01.2023 01:12 4,2 C 3,3 C 90 % 1019,3 hPa 0,0 l/m 9,7 km/h (2 Bft) S 180 0 min 0,0 UV-I 0 W/m 2,7 C 1,4 C 14,5 km/h (3 Bft)
14.01.2023 01:13 4,2 C 3,3 C 90 % 1019,3 hPa 0,0 l/m 8,0 km/h (2 Bft) S 180 0 min 0,0 UV-I 0 W/m 2,7 C 2,8 C 11,3 km/h (2 Bft)
14.01.2023 01:14 4,2 C 3,3 C 90 % 1019,3 hPa 0,0 l/m 8,0 km/h (2 Bft) S 180 0 min 0,0 UV-I 0 W/m 2,7 C 2,8 C 11,3 km/h (2 Bft)
14.01.2023 01:15 4,2 C 3,3 C 90 % 1019,3 hPa 0,0 l/m 11,3 km/h (2 Bft) S 180 0 min 0,0 UV-I 0 W/m 2,7 C 0,3 C 14,5 km/h (3 Bft)
14.01.2023 01:16 4,2 C 3,3 C 90 % 1019,3 hPa 0,0 l/m 14,5 km/h (3 Bft) S-SW 202 0 min 0,0 UV-I 0 W/m 2,7 C -1,6 C 19,3 km/h (3 Bft)
14.01.2023 01:17 4,2 C 3,3 C 90 % 1019,3 hPa 0,0 l/m 17,7 km/h (3 Bft) S-SW 202 0 min 0,0 UV-I 0 W/m 2,7 C -3,2 C 27,4 km/h (4 Bft)
14.01.2023 01:18 4,2 C 3,3 C 90 % 1019,2 hPa 0,0 l/m 9,7 km/h (2 Bft) S 180 0 min 0,0 UV-I 0 W/m 2,7 C 1,4 C 20,9 km/h (4 Bft)
14.01.2023 01:19 4,2 C 3,3 C 90 % 1019,3 hPa 0,0 l/m 12,9 km/h (3 Bft) S-SW 202 0 min 0,0 UV-I 0 W/m 2,7 C -0,7 C 20,9 km/h (4 Bft)
14.01.2023 01:20 4,2 C 3,3 C 90 % 1019,2 hPa 0,0 l/m 17,7 km/h (3 Bft) S 180 0 min 0,0 UV-I 0 W/m 2,7 C -3,2 C 25,7 km/h (4 Bft)
14.01.2023 01:21 4,2 C 3,3 C 90 % 1019,2 hPa 0,0 l/m 11,3 km/h (2 Bft) S 180 0 min 0,0 UV-I 0 W/m 2,7 C 0,3 C 17,7 km/h (3 Bft)
14.01.2023 01:22 4,2 C 3,3 C 90 % 1019,3 hPa 0,0 l/m 14,5 km/h (3 Bft) S 180 0 min 0,0 UV-I 0 W/m 2,7 C -1,6 C 24,1 km/h (4 Bft)
14.01.2023 01:23 4,2 C 3,3 C 90 % 1019,2 hPa 0,0 l/m 19,3 km/h (3 Bft) S 180 0 min 0,0 UV-I 0 W/m 2,7 C -3,9 C 32,2 km/h (5 Bft)
14.01.2023 01:24 4,2 C 3,3 C 90 % 1019,3 hPa 0,0 l/m 16,1 km/h (3 Bft) S-SW 202 0 min 0,0 UV-I 0 W/m 2,7 C -2,5 C 20,9 km/h (4 Bft)
14.01.2023 01:25 4,2 C 3,3 C 90 % 1019,2 hPa 0,0 l/m 16,1 km/h (3 Bft) S 180 0 min 0,0 UV-I 0 W/m 2,7 C -2,5 C 24,1 km/h (4 Bft)
14.01.2023 01:26 4,2 C 3,3 C 90 % 1019,2 hPa 0,0 l/m 16,1 km/h (3 Bft) S 180 0 min 0,0 UV-I 0 W/m 2,7 C -2,5 C 24,1 km/h (4 Bft)
14.01.2023 01:27 4,2 C 3,3 C 90 % 1019,2 hPa 0,0 l/m 17,7 km/h (3 Bft) S 180 0 min 0,0 UV-I 0 W/m 2,7 C -3,2 C 30,6 km/h (5 Bft)
14.01.2023 01:28 4,1 C 3,3 C 90 % 1019,2 hPa 0,0 l/m 16,1 km/h (3 Bft) S 180 0 min 0,0 UV-I 0 W/m 2,6 C -2,6 C 25,7 km/h (4 Bft)
14.01.2023 01:29 4,2 C 3,3 C 90 % 1019,0 hPa 0,0 l/m 16,1 km/h (3 Bft) S 180 0 min 0,0 UV-I 0 W/m 2,7 C -2,5 C 19,3 km/h (3 Bft)
14.01.2023 01:30 4,2 C 3,3 C 90 % 1019,1 hPa 0,0 l/m 14,5 km/h (3 Bft) S 180 0 min 0,0 UV-I 0 W/m 2,7 C -1,6 C 22,5 km/h (4 Bft)
14.01.2023 01:31 4,2 C 3,3 C 90 % 1019,1 hPa 0,0 l/m 16,1 km/h (3 Bft) S 180 0 min 0,0 UV-I 0 W/m 2,7 C -2,5 C 27,4 km/h (4 Bft)
14.01.2023 01:32 4,2 C 3,3 C 90 % 1019,0 hPa 0,0 l/m 14,5 km/h (3 Bft) S 180 0 min 0,0 UV-I 0 W/m 2,7 C -1,6 C 22,5 km/h (4 Bft)
14.01.2023 01:33 4,2 C 3,3 C 90 % 1019,1 hPa 0,0 l/m 12,9 km/h (3 Bft) S 180 0 min 0,0 UV-I 0 W/m 2,7 C -0,7 C 20,9 km/h (4 Bft)
14.01.2023 01:34 4,2 C 3,3 C 90 % 1019,2 hPa 0,0 l/m 19,3 km/h (3 Bft) S-SW 202 0 min 0,0 UV-I 0 W/m 2,7 C -3,9 C 25,7 km/h (4 Bft)
14.01.2023 01:35 4,2 C 3,3 C 90 % 1019,3 hPa 0,0 l/m 20,9 km/h (4 Bft) S 180 0 min 0,0 UV-I 0 W/m 2,7 C -4,6 C 27,4 km/h (4 Bft)
14.01.2023 01:36 4,1 C 3,3 C 90 % 1019,2 hPa 0,0 l/m 19,3 km/h (3 Bft) S 180 0 min 0,0 UV-I 0 W/m 2,6 C -4,0 C 30,6 km/h (5 Bft)
14.01.2023 01:37 4,2 C 3,3 C 90 % 1019,1 hPa 0,0 l/m 19,3 km/h (3 Bft) S-SW 202 0 min 0,0 UV-I 0 W/m 2,7 C -3,9 C 25,7 km/h (4 Bft)
14.01.2023 01:38 4,2 C 3,3 C 90 % 1019,2 hPa 0,0 l/m 17,7 km/h (3 Bft) S-SW 202 0 min 0,0 UV-I 0 W/m 2,7 C -3,2 C 25,7 km/h (4 Bft)
14.01.2023 01:39 4,2 C 3,3 C 90 % 1019,2 hPa 0,0 l/m 19,3 km/h (3 Bft) S-SW 202 0 min 0,0 UV-I 0 W/m 2,7 C -3,9 C 25,7 km/h (4 Bft)
14.01.2023 01:40 4,2 C 3,3 C 90 % 1019,2 hPa 0,0 l/m 14,5 km/h (3 Bft) S 180 0 min 0,0 UV-I 0 W/m 2,7 C -1,6 C 25,7 km/h (4 Bft)
14.01.2023 01:41 4,2 C 3,3 C 90 % 1019,2 hPa 0,0 l/m 14,5 km/h (3 Bft) S-SW 202 0 min 0,0 UV-I 0 W/m 2,7 C -1,6 C 19,3 km/h (3 Bft)
14.01.2023 01:42 4,2 C 3,3 C 90 % 1019,2 hPa 0,0 l/m 12,9 km/h (3 Bft) S 180 0 min 0,0 UV-I 0 W/m 2,7 C -0,7 C 17,7 km/h (3 Bft)
14.01.2023 01:43 4,2 C 3,3 C 90 % 1019,2 hPa 0,0 l/m 12,9 km/h (3 Bft) S-SW 202 0 min 0,0 UV-I 0 W/m 2,7 C -0,7 C 22,5 km/h (4 Bft)
14.01.2023 01:44 4,2 C 3,3 C 90 % 1019,3 hPa 0,0 l/m 17,7 km/h (3 Bft) S-SW 202 0 min 0,0 UV-I 0 W/m 2,7 C -3,2 C 25,7 km/h (4 Bft)
14.01.2023 01:45 4,2 C 3,3 C 90 % 1019,2 hPa 0,0 l/m 19,3 km/h (3 Bft) S 180 0 min 0,0 UV-I 0 W/m 2,7 C -3,9 C 29,0 km/h (5 Bft)
14.01.2023 01:46 4,2 C 3,3 C 90 % 1019,2 hPa 0,0 l/m 12,9 km/h (3 Bft) S 180 0 min 0,0 UV-I 0 W/m 2,7 C -0,7 C 17,7 km/h (3 Bft)
14.01.2023 01:47 4,2 C 3,3 C 90 % 1019,3 hPa 0,0 l/m 16,1 km/h (3 Bft) S 180 0 min 0,0 UV-I 0 W/m 2,7 C -2,5 C 20,9 km/h (4 Bft)
14.01.2023 01:48 4,2 C 3,3 C 90 % 1019,3 hPa 0,0 l/m 16,1 km/h (3 Bft) S-SW 202 0 min 0,0 UV-I 0 W/m 2,7 C -2,5 C 24,1 km/h (4 Bft)
14.01.2023 01:49 4,2 C 3,3 C 90 % 1019,3 hPa 0,0 l/m 16,1 km/h (3 Bft) S 180 0 min 0,0 UV-I 0 W/m 2,7 C -2,5 C 25,7 km/h (4 Bft)
14.01.2023 01:50 4,2 C 3,3 C 90 % 1019,4 hPa 0,0 l/m 16,1 km/h (3 Bft) S 180 0 min 0,0 UV-I 0 W/m 2,7 C -2,5 C 24,1 km/h (4 Bft)
14.01.2023 01:51 4,2 C 3,3 C 90 % 1019,3 hPa 0,0 l/m 14,5 km/h (3 Bft) S-SW 202 0 min 0,0 UV-I 0 W/m 2,7 C -1,6 C 19,3 km/h (3 Bft)
14.01.2023 01:52 4,2 C 3,3 C 90 % 1019,3 hPa 0,0 l/m 16,1 km/h (3 Bft) S-SW 202 0 min 0,0 UV-I 0 W/m 2,7 C -2,5 C 22,5 km/h (4 Bft)
14.01.2023 01:53 4,2 C 3,3 C 90 % 1019,3 hPa 0,0 l/m 17,7 km/h (3 Bft) S 180 0 min 0,0 UV-I 0 W/m 2,7 C -3,2 C 24,1 km/h (4 Bft)
14.01.2023 01:54 4,2 C 3,3 C 90 % 1019,3 hPa 0,0 l/m 12,9 km/h (3 Bft) S-SW 202 0 min 0,0 UV-I 0 W/m 2,7 C -0,7 C 19,3 km/h (3 Bft)
14.01.2023 01:55 4,1 C 3,3 C 90 % 1019,3 hPa 0,0 l/m 19,3 km/h (3 Bft) S-SW 202 0 min 0,0 UV-I 0 W/m 2,6 C -4,0 C 24,1 km/h (4 Bft)
14.01.2023 01:56 4,2 C 3,3 C 90 % 1019,4 hPa 0,0 l/m 19,3 km/h (3 Bft) S-SW 202 0 min 0,0 UV-I 0 W/m 2,7 C -3,9 C 20,9 km/h (4 Bft)
14.01.2023 01:57 4,2 C 3,3 C 90 % 1019,4 hPa 0,0 l/m 14,5 km/h (3 Bft) S-SW 202 0 min 0,0 UV-I 0 W/m 2,7 C -1,6 C 19,3 km/h (3 Bft)
14.01.2023 01:58 4,2 C 3,3 C 90 % 1019,4 hPa 0,0 l/m 16,1 km/h (3 Bft) S-SW 202 0 min 0,0 UV-I 0 W/m 2,7 C -2,5 C 19,3 km/h (3 Bft)
14.01.2023 01:59 4,2 C 3,3 C 90 % 1019,4 hPa 0,0 l/m 16,1 km/h (3 Bft) S-SW 202 0 min 0,0 UV-I 0 W/m 2,7 C -2,5 C 22,5 km/h (4 Bft)
14.01.2023 02:00 4,2 C 3,3 C 90 % 1019,4 hPa 0,0 l/m 12,9 km/h (3 Bft) SW 225 0 min 0,0 UV-I 0 W/m 2,7 C -0,7 C 19,3 km/h (3 Bft)
14.01.2023 02:01 4,2 C 3,3 C 90 % 1019,4 hPa 0,0 l/m 14,5 km/h (3 Bft) SW 225 0 min 0,0 UV-I 0 W/m 2,7 C -1,6 C 25,7 km/h (4 Bft)
14.01.2023 02:02 4,2 C 3,3 C 90 % 1019,5 hPa 0,0 l/m 17,7 km/h (3 Bft) S-SW 202 0 min 0,0 UV-I 0 W/m 2,7 C -3,2 C 20,9 km/h (4 Bft)
14.01.2023 02:03 4,2 C 3,3 C 90 % 1019,4 hPa 0,0 l/m 17,7 km/h (3 Bft) S-SW 202 0 min 0,0 UV-I 0 W/m 2,7 C -3,2 C 22,5 km/h (4 Bft)
14.01.2023 02:04 4,2 C 3,3 C 90 % 1019,5 hPa 0,0 l/m 14,5 km/h (3 Bft) S-SW 202 0 min 0,0 UV-I 0 W/m 2,7 C -1,6 C 16,1 km/h (3 Bft)
14.01.2023 02:05 4,2 C 3,3 C 90 % 1019,4 hPa 0,0 l/m 14,5 km/h (3 Bft) S-SW 202 0 min 0,0 UV-I 0 W/m 2,7 C -1,6 C 20,9 km/h (4 Bft)
14.01.2023 02:06 4,2 C 3,3 C 90 % 1019,5 hPa 0,0 l/m 16,1 km/h (3 Bft) S 180 0 min 0,0 UV-I 0 W/m 2,7 C -2,5 C 25,7 km/h (4 Bft)
14.01.2023 02:07 4,2 C 3,3 C 90 % 1019,4 hPa 0,0 l/m 14,5 km/h (3 Bft) S 180 0 min 0,0 UV-I 0 W/m 2,7 C -1,6 C 17,7 km/h (3 Bft)
14.01.2023 02:08 4,2 C 3,3 C 89 % 1019,4 hPa 0,0 l/m 12,9 km/h (3 Bft) S 180 0 min 0,0 UV-I 0 W/m 2,6 C -0,7 C 17,7 km/h (3 Bft)
14.01.2023 02:09 4,2 C 3,3 C 90 % 1019,5 hPa 0,0 l/m 11,3 km/h (2 Bft) S-SW 202 0 min 0,0 UV-I 0 W/m 2,7 C 0,3 C 16,1 km/h (3 Bft)
14.01.2023 02:10 4,1 C 3,3 C 90 % 1019,4 hPa 0,0 l/m 17,7 km/h (3 Bft) S-SW 202 0 min 0,0 UV-I 0 W/m 2,6 C -3,3 C 27,4 km/h (4 Bft)
14.01.2023 02:11 4,1 C 3,3 C 89 % 1019,4 hPa 0,0 l/m 20,9 km/h (4 Bft) S-SW 202 0 min 0,0 UV-I 0 W/m 2,5 C -4,7 C 27,4 km/h (4 Bft)
14.01.2023 02:12 4,1 C 3,3 C 89 % 1019,3 hPa 0,0 l/m 20,9 km/h (4 Bft) S 180 0 min 0,0 UV-I 0 W/m 2,5 C -4,7 C 29,0 km/h (5 Bft)
14.01.2023 02:13 4,1 C 3,3 C 89 % 1019,3 hPa 0,0 l/m 16,1 km/h (3 Bft) S-SW 202 0 min 0,0 UV-I 0 W/m 2,5 C -2,6 C 27,4 km/h (4 Bft)
14.01.2023 02:14 4,1 C 3,3 C 89 % 1019,3 hPa 0,0 l/m 22,5 km/h (4 Bft) S 180 0 min 0,0 UV-I 0 W/m 2,5 C -5,3 C 33,8 km/h (5 Bft)
14.01.2023 02:15 4,1 C 3,3 C 89 % 1019,3 hPa 0,0 l/m 19,3 km/h (3 Bft) S 180 0 min 0,0 UV-I 0 W/m 2,5 C -4,0 C 29,0 km/h (5 Bft)
14.01.2023 02:16 4,1 C 3,3 C 89 % 1019,4 hPa 0,0 l/m 25,7 km/h (4 Bft) S 180 0 min 0,0 UV-I 0 W/m 2,5 C -6,4 C 37,0 km/h (5 Bft)
14.01.2023 02:17 4,1 C 3,3 C 89 % 1019,2 hPa 0,0 l/m 20,9 km/h (4 Bft) S 180 0 min 0,0 UV-I 0 W/m 2,5 C -4,7 C 30,6 km/h (5 Bft)
14.01.2023 02:18 4,1 C 3,3 C 89 % 1019,3 hPa 0,0 l/m 22,5 km/h (4 Bft) S 180 0 min 0,0 UV-I 0 W/m 2,5 C -5,3 C 33,8 km/h (5 Bft)
14.01.2023 02:19 4,1 C 3,3 C 89 % 1019,2 hPa 0,0 l/m 16,1 km/h (3 Bft) S-SW 202 0 min 0,0 UV-I 0 W/m 2,5 C -2,6 C 20,9 km/h (4 Bft)
14.01.2023 02:20 4,1 C 3,3 C 89 % 1019,4 hPa 0,0 l/m 14,5 km/h (3 Bft) S 180 0 min 0,0 UV-I 0 W/m 2,5 C -1,7 C 20,9 km/h (4 Bft)
14.01.2023 02:21 4,1 C 3,3 C 89 % 1019,4 hPa 0,0 l/m 16,1 km/h (3 Bft) S 180 0 min 0,0 UV-I 0 W/m 2,5 C -2,6 C 20,9 km/h (4 Bft)
14.01.2023 02:22 4,1 C 3,3 C 89 % 1019,3 hPa 0,0 l/m 19,3 km/h (3 Bft) S-SW 202 0 min 0,0 UV-I 0 W/m 2,5 C -4,0 C 27,4 km/h (4 Bft)
14.01.2023 02:23 4,1 C 3,3 C 89 % 1019,3 hPa 0,0 l/m 16,1 km/h (3 Bft) S-SW 202 0 min 0,0 UV-I 0 W/m 2,5 C -2,6 C 20,9 km/h (4 Bft)
14.01.2023 02:24 4,1 C 3,3 C 89 % 1019,4 hPa 0,0 l/m 16,1 km/h (3 Bft) S 180 0 min 0,0 UV-I 0 W/m 2,5 C -2,6 C 24,1 km/h (4 Bft)
14.01.2023 02:25 4,1 C 3,3 C 89 % 1019,3 hPa 0,0 l/m 22,5 km/h (4 Bft) S 180 0 min 0,0 UV-I 0 W/m 2,5 C -5,3 C 30,6 km/h (5 Bft)
14.01.2023 02:26 4,1 C 3,3 C 89 % 1019,3 hPa 0,0 l/m 16,1 km/h (3 Bft) S-SW 202 0 min 0,0 UV-I 0 W/m 2,5 C -2,6 C 22,5 km/h (4 Bft)
14.01.2023 02:27 4,1 C 3,3 C 89 % 1019,3 hPa 0,0 l/m 17,7 km/h (3 Bft) S-SW 202 0 min 0,0 UV-I 0 W/m 2,5 C -3,3 C 20,9 km/h (4 Bft)
14.01.2023 02:28 4,1 C 3,3 C 89 % 1019,3 hPa 0,0 l/m 14,5 km/h (3 Bft) S-SW 202 0 min 0,0 UV-I 0 W/m 2,5 C -1,7 C 19,3 km/h (3 Bft)
14.01.2023 02:29 4,1 C 3,3 C 89 % 1019,4 hPa 0,0 l/m 17,7 km/h (3 Bft) S-SW 202 0 min 0,0 UV-I 0 W/m 2,5 C -3,3 C 22,5 km/h (4 Bft)
14.01.2023 02:30 4,1 C 3,3 C 89 % 1019,3 hPa 0,0 l/m 16,1 km/h (3 Bft) S 180 0 min 0,0 UV-I 0 W/m 2,5 C -2,6 C 22,5 km/h (4 Bft)
14.01.2023 02:31 4,1 C 3,3 C 89 % 1019,4 hPa 0,0 l/m 17,7 km/h (3 Bft) S 180 0 min 0,0 UV-I 0 W/m 2,5 C -3,3 C 25,7 km/h (4 Bft)
14.01.2023 02:32 4,1 C 3,3 C 89 % 1019,4 hPa 0,0 l/m 16,1 km/h (3 Bft) S 180 0 min 0,0 UV-I 0 W/m 2,5 C -2,6 C 20,9 km/h (4 Bft)
14.01.2023 02:33 4,0 C 3,3 C 89 % 1019,4 hPa 0,0 l/m 16,1 km/h (3 Bft) S-SW 202 0 min 0,0 UV-I 0 W/m 2,4 C -2,7 C 20,9 km/h (4 Bft)
14.01.2023 02:34 4,1 C 3,3 C 89 % 1019,3 hPa 0,0 l/m 17,7 km/h (3 Bft) S 180 0 min 0,0 UV-I 0 W/m 2,5 C -3,3 C 27,4 km/h (4 Bft)
14.01.2023 02:35 4,0 C 3,3 C 89 % 1019,4 hPa 0,0 l/m 20,9 km/h (4 Bft) S-SW 202 0 min 0,0 UV-I 0 W/m 2,4 C -4,8 C 25,7 km/h (4 Bft)
14.01.2023 02:36 4,0 C 3,3 C 89 % 1019,5 hPa 0,0 l/m 17,7 km/h (3 Bft) S-SW 202 0 min 0,0 UV-I 0 W/m 2,4 C -3,5 C 22,5 km/h (4 Bft)
14.01.2023 02:37 4,0 C 3,3 C 89 % 1019,5 hPa 0,0 l/m 16,1 km/h (3 Bft) S-SW 202 0 min 0,0 UV-I 0 W/m 2,4 C -2,7 C 20,9 km/h (4 Bft)
14.01.2023 02:38 4,0 C 3,3 C 89 % 1019,5 hPa 0,0 l/m 17,7 km/h (3 Bft) S-SW 202 0 min 0,0 UV-I 0 W/m 2,4 C -3,5 C 25,7 km/h (4 Bft)
14.01.2023 02:39 4,0 C 3,3 C 89 % 1019,5 hPa 0,0 l/m 14,5 km/h (3 Bft) S 180 0 min 0,0 UV-I 0 W/m 2,4 C -1,9 C 22,5 km/h (4 Bft)
14.01.2023 02:40 4,0 C 3,3 C 89 % 1019,5 hPa 0,0 l/m 19,3 km/h (3 Bft) S-SW 202 0 min 0,0 UV-I 0 W/m 2,4 C -4,2 C 27,4 km/h (4 Bft)
14.01.2023 02:41 4,0 C 3,3 C 89 % 1019,5 hPa 0,0 l/m 20,9 km/h (4 Bft) S-SW 202 0 min 0,0 UV-I 0 W/m 2,4 C -4,8 C 25,7 km/h (4 Bft)
14.01.2023 02:42 4,0 C 3,3 C 89 % 1019,5 hPa 0,0 l/m 19,3 km/h (3 Bft) S-SW 202 0 min 0,0 UV-I 0 W/m 2,4 C -4,2 C 32,2 km/h (5 Bft)
14.01.2023 02:43 4,0 C 3,3 C 89 % 1019,5 hPa 0,0 l/m 14,5 km/h (3 Bft) S 180 0 min 0,0 UV-I 0 W/m 2,4 C -1,9 C 24,1 km/h (4 Bft)
14.01.2023 02:44 4,0 C 3,3 C 89 % 1019,5 hPa 0,0 l/m 16,1 km/h (3 Bft) S-SW 202 0 min 0,0 UV-I 0 W/m 2,4 C -2,7 C 24,1 km/h (4 Bft)
14.01.2023 02:45 4,0 C 3,3 C 89 % 1019,5 hPa 0,0 l/m 16,1 km/h (3 Bft) SW 225 0 min 0,0 UV-I 0 W/m 2,4 C -2,7 C 27,4 km/h (4 Bft)
14.01.2023 02:46 4,0 C 3,3 C 89 % 1019,5 hPa 0,0 l/m 19,3 km/h (3 Bft) S-SW 202 0 min 0,0 UV-I 0 W/m 2,4 C -4,2 C 29,0 km/h (5 Bft)
14.01.2023 02:47 4,0 C 3,3 C 89 % 1019,5 hPa 0,0 l/m 19,3 km/h (3 Bft) S-SW 202 0 min 0,0 UV-I 0 W/m 2,4 C -4,2 C 25,7 km/h (4 Bft)
14.01.2023 02:48 4,0 C 3,3 C 90 % 1019,4 hPa 0,0 l/m 19,3 km/h (3 Bft) S-SW 202 0 min 0,0 UV-I 0 W/m 2,5 C -4,2 C 25,7 km/h (4 Bft)
14.01.2023 02:49 4,0 C 3,3 C 90 % 1019,5 hPa 0,0 l/m 16,1 km/h (3 Bft) S 180 0 min 0,0 UV-I 0 W/m 2,5 C -2,7 C 24,1 km/h (4 Bft)
14.01.2023 02:50 4,0 C 3,3 C 90 % 1019,4 hPa 0,0 l/m 19,3 km/h (3 Bft) S 180 0 min 0,0 UV-I 0 W/m 2,5 C -4,2 C 29,0 km/h (5 Bft)
14.01.2023 02:51 4,0 C 3,3 C 90 % 1019,4 hPa 0,0 l/m 12,9 km/h (3 Bft) S 180 0 min 0,0 UV-I 0 W/m 2,5 C -1,0 C 17,7 km/h (3 Bft)
14.01.2023 02:52 3,9 C 3,3 C 90 % 1019,4 hPa 0,0 l/m 14,5 km/h (3 Bft) S 180 0 min 0,0 UV-I 0 W/m 2,4 C -2,0 C 19,3 km/h (3 Bft)
14.01.2023 02:53 3,9 C 3,3 C 90 % 1019,4 hPa 0,0 l/m 19,3 km/h (3 Bft) S-SW 202 0 min 0,0 UV-I 0 W/m 2,4 C -4,3 C 27,4 km/h (4 Bft)
14.01.2023 02:54 4,0 C 3,3 C 90 % 1019,4 hPa 0,0 l/m 16,1 km/h (3 Bft) S-SW 202 0 min 0,0 UV-I 0 W/m 2,5 C -2,7 C 27,4 km/h (4 Bft)
14.01.2023 02:55 3,9 C 3,3 C 90 % 1019,4 hPa 0,0 l/m 20,9 km/h (4 Bft) S 180 0 min 0,0 UV-I 0 W/m 2,4 C -5,0 C 29,0 km/h (5 Bft)
14.01.2023 02:56 3,9 C 3,3 C 90 % 1019,4 hPa 0,0 l/m 16,1 km/h (3 Bft) S 180 0 min 0,0 UV-I 0 W/m 2,4 C -2,8 C 25,7 km/h (4 Bft)
14.01.2023 02:57 3,9 C 3,3 C 90 % 1019,4 hPa 0,0 l/m 22,5 km/h (4 Bft) S 180 0 min 0,0 UV-I 0 W/m 2,4 C -5,6 C 29,0 km/h (5 Bft)
14.01.2023 02:58 3,9 C 3,3 C 90 % 1019,4 hPa 0,0 l/m 19,3 km/h (3 Bft) S-SW 202 0 min 0,0 UV-I 0 W/m 2,4 C -4,3 C 27,4 km/h (4 Bft)
14.01.2023 02:59 3,9 C 3,3 C 90 % 1019,4 hPa 0,0 l/m 20,9 km/h (4 Bft) S-SW 202 0 min 0,0 UV-I 0 W/m 2,4 C -5,0 C 27,4 km/h (4 Bft)
14.01.2023 03:00 3,9 C 3,3 C 90 % 1019,4 hPa 0,0 l/m 16,1 km/h (3 Bft) S 180 0 min 0,0 UV-I 0 W/m 2,4 C -2,8 C 24,1 km/h (4 Bft)
14.01.2023 03:01 3,9 C 3,3 C 90 % 1019,3 hPa 0,0 l/m 17,7 km/h (3 Bft) S 180 0 min 0,0 UV-I 0 W/m 2,4 C -3,6 C 27,4 km/h (4 Bft)
14.01.2023 03:02 3,9 C 3,3 C 90 % 1019,3 hPa 0,0 l/m 27,4 km/h (4 Bft) S 180 0 min 0,0 UV-I 0 W/m 2,4 C -7,2 C 35,4 km/h (5 Bft)
14.01.2023 03:03 3,9 C 3,3 C 90 % 1019,3 hPa 0,0 l/m 22,5 km/h (4 Bft) S 180 0 min 0,0 UV-I 0 W/m 2,4 C -5,6 C 37,0 km/h (5 Bft)
14.01.2023 03:04 3,9 C 3,3 C 90 % 1019,2 hPa 0,0 l/m 20,9 km/h (4 Bft) S 180 0 min 0,0 UV-I 0 W/m 2,4 C -5,0 C 25,7 km/h (4 Bft)
14.01.2023 03:05 3,9 C 3,3 C 90 % 1019,4 hPa 0,0 l/m 24,1 km/h (4 Bft) S 180 0 min 0,0 UV-I 0 W/m 2,4 C -6,1 C 33,8 km/h (5 Bft)
14.01.2023 03:06 3,9 C 3,3 C 90 % 1019,3 hPa 0,0 l/m 22,5 km/h (4 Bft) S 180 0 min 0,0 UV-I 0 W/m 2,4 C -5,6 C 33,8 km/h (5 Bft)
14.01.2023 03:07 3,9 C 3,3 C 90 % 1019,3 hPa 0,0 l/m 19,3 km/h (3 Bft) S 180 0 min 0,0 UV-I 0 W/m 2,4 C -4,3 C 30,6 km/h (5 Bft)
14.01.2023 03:08 3,9 C 3,3 C 89 % 1019,3 hPa 0,0 l/m 17,7 km/h (3 Bft) S-SW 202 0 min 0,0 UV-I 0 W/m 2,3 C -3,6 C 30,6 km/h (5 Bft)
14.01.2023 03:09 3,8 C 2,8 C 89 % 1019,2 hPa 0,0 l/m 17,7 km/h (3 Bft) S 180 0 min 0,0 UV-I 0 W/m 2,2 C -3,7 C 24,1 km/h (4 Bft)
14.01.2023 03:10 3,8 C 2,8 C 89 % 1019,2 hPa 0,0 l/m 16,1 km/h (3 Bft) S 180 0 min 0,0 UV-I 0 W/m 2,2 C -2,9 C 25,7 km/h (4 Bft)
14.01.2023 03:11 3,8 C 2,8 C 89 % 1019,1 hPa 0,0 l/m 20,9 km/h (4 Bft) S-SW 202 0 min 0,0 UV-I 0 W/m 2,2 C -5,1 C 24,1 km/h (4 Bft)
14.01.2023 03:12 3,8 C 2,8 C 89 % 1019,2 hPa 0,0 l/m 16,1 km/h (3 Bft) S-SW 202 0 min 0,0 UV-I 0 W/m 2,2 C -2,9 C 25,7 km/h (4 Bft)
14.01.2023 03:13 3,8 C 2,8 C 89 % 1019,1 hPa 0,0 l/m 16,1 km/h (3 Bft) S-SW 202 0 min 0,0 UV-I 0 W/m 2,2 C -2,9 C 22,5 km/h (4 Bft)
14.01.2023 03:14 3,8 C 2,8 C 89 % 1019,1 hPa 0,0 l/m 17,7 km/h (3 Bft) S-SW 202 0 min 0,0 UV-I 0 W/m 2,2 C -3,7 C 22,5 km/h (4 Bft)
14.01.2023 03:15 3,8 C 2,8 C 89 % 1019,1 hPa 0,0 l/m 22,5 km/h (4 Bft) S-SW 202 0 min 0,0 UV-I 0 W/m 2,2 C -5,7 C 29,0 km/h (5 Bft)
14.01.2023 03:16 3,8 C 2,8 C 89 % 1019,1 hPa 0,0 l/m 20,9 km/h (4 Bft) S-SW 202 0 min 0,0 UV-I 0 W/m 2,2 C -5,1 C 30,6 km/h (5 Bft)
14.01.2023 03:17 3,7 C 2,8 C 89 % 1019,2 hPa 0,0 l/m 19,3 km/h (3 Bft) S 180 0 min 0,0 UV-I 0 W/m 2,1 C -4,6 C 32,2 km/h (5 Bft)
14.01.2023 03:18 3,7 C 2,8 C 89 % 1019,1 hPa 0,0 l/m 19,3 km/h (3 Bft) S-SW 202 0 min 0,0 UV-I 0 W/m 2,1 C -4,6 C 22,5 km/h (4 Bft)
14.01.2023 03:19 3,7 C 2,8 C 89 % 1019,1 hPa 0,0 l/m 16,1 km/h (3 Bft) S-SW 202 0 min 0,0 UV-I 0 W/m 2,1 C -3,1 C 20,9 km/h (4 Bft)
14.01.2023 03:20 3,7 C 2,8 C 89 % 1019,1 hPa 0,0 l/m 16,1 km/h (3 Bft) S 180 0 min 0,0 UV-I 0 W/m 2,1 C -3,1 C 25,7 km/h (4 Bft)
14.01.2023 03:21 3,7 C 2,8 C 89 % 1019,1 hPa 0,0 l/m 16,1 km/h (3 Bft) S 180 0 min 0,0 UV-I 0 W/m 2,1 C -3,1 C 20,9 km/h (4 Bft)
14.01.2023 03:22 3,7 C 2,8 C 89 % 1019,1 hPa 0,0 l/m 19,3 km/h (3 Bft) S-SW 202 0 min 0,0 UV-I 0 W/m 2,1 C -4,6 C 27,4 km/h (4 Bft)
14.01.2023 03:23 3,7 C 2,8 C 89 % 1019,0 hPa 0,0 l/m 19,3 km/h (3 Bft) S 180 0 min 0,0 UV-I 0 W/m 2,1 C -4,6 C 24,1 km/h (4 Bft)
14.01.2023 03:24 3,7 C 2,8 C 89 % 1019,1 hPa 0,0 l/m 20,9 km/h (4 Bft) S 180 0 min 0,0 UV-I 0 W/m 2,1 C -5,2 C 25,7 km/h (4 Bft)
14.01.2023 03:25 3,7 C 2,8 C 89 % 1019,1 hPa 0,0 l/m 16,1 km/h (3 Bft) S 180 0 min 0,0 UV-I 0 W/m 2,1 C -3,1 C 22,5 km/h (4 Bft)
14.01.2023 03:26 3,7 C 2,8 C 89 % 1019,1 hPa 0,0 l/m 17,7 km/h (3 Bft) S 180 0 min 0,0 UV-I 0 W/m 2,1 C -3,8 C 29,0 km/h (5 Bft)
14.01.2023 03:27 3,7 C 2,8 C 89 % 1019,1 hPa 0,0 l/m 22,5 km/h (4 Bft) S 180 0 min 0,0 UV-I 0 W/m 2,1 C -5,8 C 33,8 km/h (5 Bft)
14.01.2023 03:28 3,7 C 2,8 C 89 % 1019,2 hPa 0,0 l/m 20,9 km/h (4 Bft) S-SW 202 0 min 0,0 UV-I 0 W/m 2,1 C -5,2 C 27,4 km/h (4 Bft)
14.01.2023 03:29 3,7 C 2,8 C 89 % 1019,1 hPa 0,0 l/m 20,9 km/h (4 Bft) S-SW 202 0 min 0,0 UV-I 0 W/m 2,1 C -5,2 C 27,4 km/h (4 Bft)
14.01.2023 03:30 3,7 C 2,8 C 89 % 1019,2 hPa 0,0 l/m 17,7 km/h (3 Bft) S 180 0 min 0,0 UV-I 0 W/m 2,1 C -3,8 C 22,5 km/h (4 Bft)
14.01.2023 03:31 3,7 C 2,8 C 89 % 1019,2 hPa 0,0 l/m 17,7 km/h (3 Bft) S 180 0 min 0,0 UV-I 0 W/m 2,1 C -3,8 C 25,7 km/h (4 Bft)
14.01.2023 03:32 3,7 C 2,8 C 89 % 1019,2 hPa 0,0 l/m 20,9 km/h (4 Bft) S 180 0 min 0,0 UV-I 0 W/m 2,1 C -5,2 C 27,4 km/h (4 Bft)
14.01.2023 03:33 3,7 C 2,8 C 89 % 1019,2 hPa 0,0 l/m 16,1 km/h (3 Bft) S 180 0 min 0,0 UV-I 0 W/m 2,1 C -3,1 C 20,9 km/h (4 Bft)
14.01.2023 03:34 3,7 C 2,8 C 89 % 1019,2 hPa 0,0 l/m 16,1 km/h (3 Bft) S 180 0 min 0,0 UV-I 0 W/m 2,1 C -3,1 C 22,5 km/h (4 Bft)
14.01.2023 03:35 3,7 C 2,8 C 89 % 1019,2 hPa 0,0 l/m 16,1 km/h (3 Bft) S-SW 202 0 min 0,0 UV-I 0 W/m 2,1 C -3,1 C 22,5 km/h (4 Bft)
14.01.2023 03:36 3,7 C 2,8 C 89 % 1019,2 hPa 0,0 l/m 14,5 km/h (3 Bft) S 180 0 min 0,0 UV-I 0 W/m 2,1 C -2,2 C 20,9 km/h (4 Bft)
14.01.2023 03:37 3,7 C 2,8 C 89 % 1019,2 hPa 0,0 l/m 16,1 km/h (3 Bft) S 180 0 min 0,0 UV-I 0 W/m 2,1 C -3,1 C 24,1 km/h (4 Bft)
14.01.2023 03:38 3,6 C 2,8 C 89 % 1019,2 hPa 0,0 l/m 19,3 km/h (3 Bft) S 180 0 min 0,0 UV-I 0 W/m 2,0 C -4,7 C 25,7 km/h (4 Bft)
14.01.2023 03:39 3,6 C 2,8 C 89 % 1019,1 hPa 0,0 l/m 14,5 km/h (3 Bft) S 180 0 min 0,0 UV-I 0 W/m 2,0 C -2,3 C 24,1 km/h (4 Bft)
14.01.2023 03:40 3,6 C 2,8 C 89 % 1019,1 hPa 0,0 l/m 16,1 km/h (3 Bft) S 180 0 min 0,0 UV-I 0 W/m 2,0 C -3,2 C 22,5 km/h (4 Bft)
14.01.2023 03:41 3,6 C 2,8 C 89 % 1019,1 hPa 0,0 l/m 14,5 km/h (3 Bft) S-SW 202 0 min 0,0 UV-I 0 W/m 2,0 C -2,3 C 19,3 km/h (3 Bft)
14.01.2023 03:42 3,7 C 2,8 C 89 % 1019,2 hPa 0,0 l/m 17,7 km/h (3 Bft) S-SW 202 0 min 0,0 UV-I 0 W/m 2,1 C -3,8 C 22,5 km/h (4 Bft)
14.01.2023 03:43 3,6 C 2,8 C 89 % 1019,2 hPa 0,0 l/m 16,1 km/h (3 Bft) S 180 0 min 0,0 UV-I 0 W/m 2,0 C -3,2 C 24,1 km/h (4 Bft)
14.01.2023 03:44 3,7 C 2,8 C 89 % 1019,1 hPa 0,0 l/m 16,1 km/h (3 Bft) S 180 0 min 0,0 UV-I 0 W/m 2,1 C -3,1 C 22,5 km/h (4 Bft)
14.01.2023 03:45 3,6 C 2,8 C 89 % 1019,1 hPa 0,0 l/m 12,9 km/h (3 Bft) S 180 0 min 0,0 UV-I 0 W/m 2,0 C -1,4 C 16,1 km/h (3 Bft)
14.01.2023 03:46 3,7 C 2,8 C 89 % 1019,1 hPa 0,0 l/m 17,7 km/h (3 Bft) S 180 0 min 0,0 UV-I 0 W/m 2,1 C -3,8 C 27,4 km/h (4 Bft)
14.01.2023 03:47 3,7 C 2,8 C 89 % 1019,1 hPa 0,0 l/m 17,7 km/h (3 Bft) S 180 0 min 0,0 UV-I 0 W/m 2,1 C -3,8 C 22,5 km/h (4 Bft)
14.01.2023 03:48 3,7 C 3,3 C 89 % 1019,0 hPa 0,0 l/m 19,3 km/h (3 Bft) S-SW 202 0 min 0,0 UV-I 0 W/m 2,1 C -4,6 C 29,0 km/h (5 Bft)
14.01.2023 03:49 3,7 C 3,3 C 89 % 1019,0 hPa 0,0 l/m 17,7 km/h (3 Bft) S-SW 202 0 min 0,0 UV-I 0 W/m 2,1 C -3,8 C 24,1 km/h (4 Bft)
14.01.2023 03:50 3,6 C 3,3 C 89 % 1019,0 hPa 0,0 l/m 17,7 km/h (3 Bft) S-SW 202 0 min 0,0 UV-I 0 W/m 2,0 C -4,0 C 22,5 km/h (4 Bft)
14.01.2023 03:51 3,7 C 3,3 C 89 % 1019,0 hPa 0,0 l/m 19,3 km/h (3 Bft) S-SW 202 0 min 0,0 UV-I 0 W/m 2,1 C -4,6 C 27,4 km/h (4 Bft)
14.01.2023 03:52 3,6 C 3,3 C 89 % 1019,0 hPa 0,0 l/m 20,9 km/h (4 Bft) S-SW 202 0 min 0,0 UV-I 0 W/m 2,0 C -5,3 C 29,0 km/h (5 Bft)
14.01.2023 03:53 3,7 C 3,3 C 89 % 1019,0 hPa 0,0 l/m 17,7 km/h (3 Bft) S-SW 202 0 min 0,0 UV-I 0 W/m 2,1 C -3,8 C 22,5 km/h (4 Bft)
14.01.2023 03:54 3,7 C 3,3 C 89 % 1019,0 hPa 0,0 l/m 12,9 km/h (3 Bft) S 180 0 min 0,0 UV-I 0 W/m 2,1 C -1,3 C 16,1 km/h (3 Bft)
14.01.2023 03:55 3,7 C 3,3 C 89 % 1019,0 hPa 0,0 l/m 16,1 km/h (3 Bft) S 180 0 min 0,0 UV-I 0 W/m 2,1 C -3,1 C 20,9 km/h (4 Bft)
14.01.2023 03:56 3,7 C 3,3 C 89 % 1018,9 hPa 0,0 l/m 11,3 km/h (2 Bft) S-SW 202 0 min 0,0 UV-I 0 W/m 2,1 C -0,3 C 16,1 km/h (3 Bft)
14.01.2023 03:57 3,7 C 3,3 C 89 % 1018,8 hPa 0,0 l/m 20,9 km/h (4 Bft) S-SW 202 0 min 0,0 UV-I 0 W/m 2,1 C -5,2 C 25,7 km/h (4 Bft)
14.01.2023 03:58 3,7 C 3,3 C 89 % 1018,7 hPa 0,0 l/m 17,7 km/h (3 Bft) S-SW 202 0 min 0,0 UV-I 0 W/m 2,1 C -3,8 C 24,1 km/h (4 Bft)
14.01.2023 03:59 3,7 C 2,8 C 89 % 1018,8 hPa 0,0 l/m 14,5 km/h (3 Bft) S-SW 202 0 min 0,0 UV-I 0 W/m 2,1 C -2,2 C 16,1 km/h (3 Bft)
14.01.2023 04:00 3,7 C 2,8 C 89 % 1018,7 hPa 0,0 l/m 17,7 km/h (3 Bft) S 180 0 min 0,0 UV-I 0 W/m 2,1 C -3,8 C 27,4 km/h (4 Bft)
14.01.2023 04:01 3,6 C 2,8 C 89 % 1018,7 hPa 0,0 l/m 19,3 km/h (3 Bft) S 180 0 min 0,0 UV-I 0 W/m 2,0 C -4,7 C 27,4 km/h (4 Bft)
14.01.2023 04:02 3,6 C 2,8 C 89 % 1018,7 hPa 0,0 l/m 16,1 km/h (3 Bft) S-SW 202 0 min 0,0 UV-I 0 W/m 2,0 C -3,2 C 22,5 km/h (4 Bft)
14.01.2023 04:03 3,6 C 2,8 C 89 % 1018,7 hPa 0,0 l/m 19,3 km/h (3 Bft) S 180 0 min 0,0 UV-I 0 W/m 2,0 C -4,7 C 30,6 km/h (5 Bft)
14.01.2023 04:04 3,6 C 2,8 C 89 % 1018,7 hPa 0,0 l/m 22,5 km/h (4 Bft) S 180 0 min 0,0 UV-I 0 W/m 2,0 C -6,0 C 35,4 km/h (5 Bft)
14.01.2023 04:05 3,6 C 2,8 C 89 % 1018,6 hPa 0,0 l/m 17,7 km/h (3 Bft) S-SW 202 0 min 0,0 UV-I 0 W/m 2,0 C -4,0 C 20,9 km/h (4 Bft)
14.01.2023 04:06 3,6 C 2,8 C 89 % 1018,6 hPa 0,0 l/m 17,7 km/h (3 Bft) S-SW 202 0 min 0,0 UV-I 0 W/m 2,0 C -4,0 C 29,0 km/h (5 Bft)
14.01.2023 04:07 3,6 C 2,8 C 89 % 1018,6 hPa 0,0 l/m 14,5 km/h (3 Bft) S 180 0 min 0,0 UV-I 0 W/m 2,0 C -2,3 C 20,9 km/h (4 Bft)
14.01.2023 04:08 3,6 C 3,3 C 89 % 1018,6 hPa 0,0 l/m 16,1 km/h (3 Bft) S 180 0 min 0,0 UV-I 0 W/m 2,0 C -3,2 C 20,9 km/h (4 Bft)
14.01.2023 04:09 3,6 C 3,3 C 89 % 1018,6 hPa 0,0 l/m 14,5 km/h (3 Bft) S 180 0 min 0,0 UV-I 0 W/m 2,0 C -2,3 C 17,7 km/h (3 Bft)
14.01.2023 04:10 3,6 C 3,3 C 89 % 1018,6 hPa 0,0 l/m 14,5 km/h (3 Bft) S 180 0 min 0,0 UV-I 0 W/m 2,0 C -2,3 C 22,5 km/h (4 Bft)
14.01.2023 04:11 3,6 C 3,3 C 89 % 1018,5 hPa 0,0 l/m 12,9 km/h (3 Bft) S-SW 202 0 min 0,0 UV-I 0 W/m 2,0 C -1,4 C 17,7 km/h (3 Bft)
14.01.2023 04:12 3,7 C 3,3 C 89 % 1018,5 hPa 0,0 l/m 12,9 km/h (3 Bft) S-SW 202 0 min 0,0 UV-I 0 W/m 2,1 C -1,3 C 16,1 km/h (3 Bft)
14.01.2023 04:13 3,6 C 3,3 C 89 % 1018,6 hPa 0,0 l/m 14,5 km/h (3 Bft) S-SW 202 0 min 0,0 UV-I 0 W/m 2,0 C -2,3 C 19,3 km/h (3 Bft)
14.01.2023 04:14 3,6 C 3,3 C 89 % 1018,5 hPa 0,0 l/m 12,9 km/h (3 Bft) S-SW 202 0 min 0,0 UV-I 0 W/m 2,0 C -1,4 C 25,7 km/h (4 Bft)
14.01.2023 04:15 3,7 C 3,3 C 89 % 1018,5 hPa 0,0 l/m 19,3 km/h (3 Bft) S-SW 202 0 min 0,0 UV-I 0 W/m 2,1 C -4,6 C 25,7 km/h (4 Bft)
14.01.2023 04:16 3,6 C 3,3 C 89 % 1018,5 hPa 0,0 l/m 14,5 km/h (3 Bft) S-SW 202 0 min 0,0 UV-I 0 W/m 2,0 C -2,3 C 17,7 km/h (3 Bft)
14.01.2023 04:17 3,7 C 3,3 C 89 % 1018,4 hPa 0,0 l/m 14,5 km/h (3 Bft) S-SW 202 0 min 0,0 UV-I 0 W/m 2,1 C -2,2 C 19,3 km/h (3 Bft)
14.01.2023 04:18 3,7 C 3,3 C 89 % 1018,3 hPa 0,0 l/m 14,5 km/h (3 Bft) S-SW 202 0 min 0,0 UV-I 0 W/m 2,1 C -2,2 C 19,3 km/h (3 Bft)
14.01.2023 04:19 3,7 C 3,3 C 89 % 1018,4 hPa 0,0 l/m 12,9 km/h (3 Bft) S 180 0 min 0,0 UV-I 0 W/m 2,1 C -1,3 C 22,5 km/h (4 Bft)
14.01.2023 04:20 3,7 C 3,3 C 89 % 1018,3 hPa 0,0 l/m 12,9 km/h (3 Bft) S-SW 202 0 min 0,0 UV-I 0 W/m 2,1 C -1,3 C 19,3 km/h (3 Bft)
14.01.2023 04:21 3,7 C 3,3 C 89 % 1018,3 hPa 0,0 l/m 19,3 km/h (3 Bft) S-SW 202 0 min 0,0 UV-I 0 W/m 2,1 C -4,6 C 25,7 km/h (4 Bft)
14.01.2023 04:22 3,7 C 3,3 C 89 % 1018,3 hPa 0,0 l/m 17,7 km/h (3 Bft) S-SW 202 0 min 0,0 UV-I 0 W/m 2,1 C -3,8 C 20,9 km/h (4 Bft)
14.01.2023 04:23 3,7 C 3,3 C 89 % 1018,3 hPa 0,0 l/m 14,5 km/h (3 Bft) S-SW 202 0 min 0,0 UV-I 0 W/m 2,1 C -2,2 C 19,3 km/h (3 Bft)
14.01.2023 04:24 3,7 C 3,3 C 89 % 1018,3 hPa 0,0 l/m 16,1 km/h (3 Bft) S-SW 202 0 min 0,0 UV-I 0 W/m 2,1 C -3,1 C 24,1 km/h (4 Bft)
14.01.2023 04:25 3,7 C 3,3 C 89 % 1018,3 hPa 0,0 l/m 14,5 km/h (3 Bft) S-SW 202 0 min 0,0 UV-I 0 W/m 2,1 C -2,2 C 20,9 km/h (4 Bft)
14.01.2023 04:26 3,7 C 3,3 C 89 % 1018,2 hPa 0,0 l/m 14,5 km/h (3 Bft) S 180 0 min 0,0 UV-I 0 W/m 2,1 C -2,2 C 25,7 km/h (4 Bft)
14.01.2023 04:27 3,7 C 3,3 C 89 % 1018,2 hPa 0,0 l/m 14,5 km/h (3 Bft) S 180 0 min 0,0 UV-I 0 W/m 2,1 C -2,2 C 22,5 km/h (4 Bft)
14.01.2023 04:28 3,7 C 3,3 C 89 % 1018,2 hPa 0,0 l/m 14,5 km/h (3 Bft) S-SW 202 0 min 0,0 UV-I 0 W/m 2,1 C -2,2 C 17,7 km/h (3 Bft)
14.01.2023 04:29 3,7 C 3,3 C 89 % 1018,2 hPa 0,0 l/m 11,3 km/h (2 Bft) S 180 0 min 0,0 UV-I 0 W/m 2,1 C -0,3 C 16,1 km/h (3 Bft)
14.01.2023 04:30 3,7 C 3,3 C 89 % 1018,2 hPa 0,0 l/m 14,5 km/h (3 Bft) S 180 0 min 0,0 UV-I 0 W/m 2,1 C -2,2 C 19,3 km/h (3 Bft)
14.01.2023 04:31 3,7 C 3,3 C 89 % 1018,0 hPa 0,0 l/m 16,1 km/h (3 Bft) S 180 0 min 0,0 UV-I 0 W/m 2,1 C -3,1 C 20,9 km/h (4 Bft)
14.01.2023 04:32 3,7 C 3,3 C 89 % 1018,0 hPa 0,0 l/m 16,1 km/h (3 Bft) S-SW 202 0 min 0,0 UV-I 0 W/m 2,1 C -3,1 C 25,7 km/h (4 Bft)
14.01.2023 04:33 3,7 C 3,3 C 89 % 1018,1 hPa 0,0 l/m 14,5 km/h (3 Bft) S-SW 202 0 min 0,0 UV-I 0 W/m 2,1 C -2,2 C 22,5 km/h (4 Bft)
14.01.2023 04:34 3,7 C 3,3 C 89 % 1018,2 hPa 0,0 l/m 19,3 km/h (3 Bft) S 180 0 min 0,0 UV-I 0 W/m 2,1 C -4,6 C 27,4 km/h (4 Bft)
14.01.2023 04:35 3,7 C 3,3 C 89 % 1018,1 hPa 0,0 l/m 17,7 km/h (3 Bft) S 180 0 min 0,0 UV-I 0 W/m 2,1 C -3,8 C 24,1 km/h (4 Bft)
14.01.2023 04:36 3,7 C 3,3 C 89 % 1018,1 hPa 0,0 l/m 17,7 km/h (3 Bft) S 180 0 min 0,0 UV-I 0 W/m 2,1 C -3,8 C 25,7 km/h (4 Bft)
14.01.2023 04:37 3,7 C 3,3 C 89 % 1018,2 hPa 0,0 l/m 16,1 km/h (3 Bft) S 180 0 min 0,0 UV-I 0 W/m 2,1 C -3,1 C 22,5 km/h (4 Bft)
14.01.2023 04:38 3,8 C 3,3 C 89 % 1018,2 hPa 0,0 l/m 14,5 km/h (3 Bft) S 180 0 min 0,0 UV-I 0 W/m 2,2 C -2,1 C 17,7 km/h (3 Bft)
14.01.2023 04:39 3,7 C 3,3 C 89 % 1018,2 hPa 0,0 l/m 16,1 km/h (3 Bft) S 180 0 min 0,0 UV-I 0 W/m 2,1 C -3,1 C 19,3 km/h (3 Bft)
14.01.2023 04:40 3,7 C 3,3 C 89 % 1018,2 hPa 0,0 l/m 12,9 km/h (3 Bft) S-SW 202 0 min 0,0 UV-I 0 W/m 2,1 C -1,3 C 17,7 km/h (3 Bft)
14.01.2023 04:41 3,7 C 3,3 C 89 % 1018,2 hPa 0,0 l/m 14,5 km/h (3 Bft) S 180 0 min 0,0 UV-I 0 W/m 2,1 C -2,2 C 24,1 km/h (4 Bft)
14.01.2023 04:42 3,7 C 3,3 C 89 % 1018,2 hPa 0,0 l/m 16,1 km/h (3 Bft) S-SW 202 0 min 0,0 UV-I 0 W/m 2,1 C -3,1 C 22,5 km/h (4 Bft)
14.01.2023 04:43 3,7 C 3,3 C 89 % 1018,2 hPa 0,0 l/m 14,5 km/h (3 Bft) S 180 0 min 0,0 UV-I 0 W/m 2,1 C -2,2 C 19,3 km/h (3 Bft)
14.01.2023 04:44 3,7 C 3,3 C 89 % 1018,1 hPa 0,0 l/m 16,1 km/h (3 Bft) S 180 0 min 0,0 UV-I 0 W/m 2,1 C -3,1 C 19,3 km/h (3 Bft)
14.01.2023 04:45 3,7 C 3,3 C 89 % 1018,2 hPa 0,0 l/m 16,1 km/h (3 Bft) S 180 0 min 0,0 UV-I 0 W/m 2,1 C -3,1 C 20,9 km/h (4 Bft)
14.01.2023 04:46 3,7 C 3,3 C 89 % 1018,2 hPa 0,0 l/m 19,3 km/h (3 Bft) S 180 0 min 0,0 UV-I 0 W/m 2,1 C -4,6 C 25,7 km/h (4 Bft)
14.01.2023 04:47 3,7 C 3,3 C 89 % 1018,0 hPa 0,0 l/m 16,1 km/h (3 Bft) S 180 0 min 0,0 UV-I 0 W/m 2,1 C -3,1 C 24,1 km/h (4 Bft)
14.01.2023 04:48 3,7 C 3,3 C 89 % 1018,0 hPa 0,0 l/m 12,9 km/h (3 Bft) S 180 0 min 0,0 UV-I 0 W/m 2,1 C -1,3 C 19,3 km/h (3 Bft)
14.01.2023 04:49 3,7 C 3,3 C 89 % 1018,1 hPa 0,0 l/m 12,9 km/h (3 Bft) S 180 0 min 0,0 UV-I 0 W/m 2,1 C -1,3 C 19,3 km/h (3 Bft)
14.01.2023 04:50 3,7 C 2,8 C 89 % 1018,0 hPa 0,0 l/m 12,9 km/h (3 Bft) S 180 0 min 0,0 UV-I 0 W/m 2,1 C -1,3 C 19,3 km/h (3 Bft)
14.01.2023 04:51 3,7 C 2,8 C 89 % 1018,1 hPa 0,0 l/m 12,9 km/h (3 Bft) S 180 0 min 0,0 UV-I 0 W/m 2,1 C -1,3 C 27,4 km/h (4 Bft)
14.01.2023 04:52 3,7 C 2,8 C 89 % 1018,0 hPa 0,0 l/m 16,1 km/h (3 Bft) S-SW 202 0 min 0,0 UV-I 0 W/m 2,1 C -3,1 C 22,5 km/h (4 Bft)
14.01.2023 04:53 3,7 C 2,8 C 89 % 1018,0 hPa 0,0 l/m 12,9 km/h (3 Bft) S 180 0 min 0,0 UV-I 0 W/m 2,1 C -1,3 C 22,5 km/h (4 Bft)
14.01.2023 04:54 3,7 C 2,8 C 89 % 1018,0 hPa 0,0 l/m 17,7 km/h (3 Bft) S 180 0 min 0,0 UV-I 0 W/m 2,1 C -3,8 C 24,1 km/h (4 Bft)
14.01.2023 04:55 3,7 C 2,8 C 89 % 1018,0 hPa 0,0 l/m 12,9 km/h (3 Bft) S 180 0 min 0,0 UV-I 0 W/m 2,1 C -1,3 C 19,3 km/h (3 Bft)
14.01.2023 04:56 3,7 C 2,8 C 89 % 1018,0 hPa 0,0 l/m 17,7 km/h (3 Bft) S 180 0 min 0,0 UV-I 0 W/m 2,1 C -3,8 C 22,5 km/h (4 Bft)
14.01.2023 04:57 3,6 C 3,3 C 89 % 1018,0 hPa 0,0 l/m 16,1 km/h (3 Bft) S 180 0 min 0,0 UV-I 0 W/m 2,0 C -3,2 C 25,7 km/h (4 Bft)
14.01.2023 04:58 3,7 C 3,3 C 89 % 1018,0 hPa 0,0 l/m 16,1 km/h (3 Bft) S 180 0 min 0,0 UV-I 0 W/m 2,1 C -3,1 C 24,1 km/h (4 Bft)
14.01.2023 04:59 3,7 C 3,3 C 89 % 1017,9 hPa 0,0 l/m 17,7 km/h (3 Bft) S 180 0 min 0,0 UV-I 0 W/m 2,1 C -3,8 C 29,0 km/h (5 Bft)
14.01.2023 05:00 3,7 C 3,3 C 89 % 1017,9 hPa 0,0 l/m 16,1 km/h (3 Bft) S 180 0 min 0,0 UV-I 0 W/m 2,1 C -3,1 C 25,7 km/h (4 Bft)
14.01.2023 05:01 3,7 C 3,3 C 89 % 1017,8 hPa 0,0 l/m 14,5 km/h (3 Bft) S 180 0 min 0,0 UV-I 0 W/m 2,1 C -2,2 C 20,9 km/h (4 Bft)
14.01.2023 05:02 3,7 C 3,3 C 89 % 1017,8 hPa 0,0 l/m 12,9 km/h (3 Bft) S 180 0 min 0,0 UV-I 0 W/m 2,1 C -1,3 C 17,7 km/h (3 Bft)
14.01.2023 05:03 3,7 C 3,3 C 89 % 1017,9 hPa 0,0 l/m 12,9 km/h (3 Bft) S 180 0 min 0,0 UV-I 0 W/m 2,1 C -1,3 C 16,1 km/h (3 Bft)
14.01.2023 05:04 3,7 C 3,3 C 89 % 1017,9 hPa 0,0 l/m 17,7 km/h (3 Bft) S 180 0 min 0,0 UV-I 0 W/m 2,1 C -3,8 C 25,7 km/h (4 Bft)
14.01.2023 05:05 3,7 C 3,3 C 89 % 1017,9 hPa 0,0 l/m 16,1 km/h (3 Bft) S-SW 202 0 min 0,0 UV-I 0 W/m 2,1 C -3,1 C 25,7 km/h (4 Bft)
14.01.2023 05:06 3,7 C 3,3 C 89 % 1017,8 hPa 0,0 l/m 12,9 km/h (3 Bft) S 180 0 min 0,0 UV-I 0 W/m 2,1 C -1,3 C 17,7 km/h (3 Bft)
14.01.2023 05:07 3,7 C 3,3 C 90 % 1017,9 hPa 0,0 l/m 16,1 km/h (3 Bft) S 180 0 min 0,0 UV-I 0 W/m 2,2 C -3,1 C 22,5 km/h (4 Bft)
14.01.2023 05:08 3,7 C 3,3 C 89 % 1017,7 hPa 0,0 l/m 14,5 km/h (3 Bft) S 180 0 min 0,0 UV-I 0 W/m 2,1 C -2,2 C 25,7 km/h (4 Bft)
14.01.2023 05:09 3,8 C 3,3 C 89 % 1017,8 hPa 0,0 l/m 19,3 km/h (3 Bft) S 180 0 min 0,0 UV-I 0 W/m 2,2 C -4,4 C 25,7 km/h (4 Bft)
14.01.2023 05:10 3,8 C 3,3 C 89 % 1017,7 hPa 0,0 l/m 14,5 km/h (3 Bft) S 180 0 min 0,0 UV-I 0 W/m 2,2 C -2,1 C 22,5 km/h (4 Bft)
14.01.2023 05:11 3,7 C 3,3 C 89 % 1017,7 hPa 0,0 l/m 16,1 km/h (3 Bft) S 180 0 min 0,0 UV-I 0 W/m 2,1 C -3,1 C 27,4 km/h (4 Bft)
14.01.2023 05:12 3,8 C 3,3 C 90 % 1017,7 hPa 0,0 l/m 19,3 km/h (3 Bft) S 180 0 min 0,0 UV-I 0 W/m 2,3 C -4,4 C 29,0 km/h (5 Bft)
14.01.2023 05:13 3,7 C 3,3 C 90 % 1017,7 hPa 0,0 l/m 17,7 km/h (3 Bft) S 180 0 min 0,0 UV-I 0 W/m 2,2 C -3,8 C 25,7 km/h (4 Bft)
14.01.2023 05:14 3,8 C 3,3 C 90 % 1017,7 hPa 0,0 l/m 17,7 km/h (3 Bft) S 180 0 min 0,0 UV-I 0 W/m 2,3 C -3,7 C 29,0 km/h (5 Bft)
14.01.2023 05:15 3,8 C 3,3 C 90 % 1017,8 hPa 0,0 l/m 19,3 km/h (3 Bft) S 180 0 min 0,0 UV-I 0 W/m 2,3 C -4,4 C 33,8 km/h (5 Bft)
14.01.2023 05:16 3,8 C 3,3 C 90 % 1017,8 hPa 0,0 l/m 24,1 km/h (4 Bft) S 180 0 min 0,0 UV-I 0 W/m 2,3 C -6,3 C 33,8 km/h (5 Bft)
14.01.2023 05:17 3,8 C 3,3 C 90 % 1017,7 hPa 0,0 l/m 17,7 km/h (3 Bft) S 180 0 min 0,0 UV-I 0 W/m 2,3 C -3,7 C 27,4 km/h (4 Bft)
14.01.2023 05:18 3,8 C 3,3 C 90 % 1017,7 hPa 0,0 l/m 16,1 km/h (3 Bft) S 180 0 min 0,0 UV-I 0 W/m 2,3 C -2,9 C 25,7 km/h (4 Bft)
14.01.2023 05:19 3,8 C 3,3 C 90 % 1017,7 hPa 0,0 l/m 14,5 km/h (3 Bft) S 180 0 min 0,0 UV-I 0 W/m 2,3 C -2,1 C 24,1 km/h (4 Bft)
14.01.2023 05:20 3,8 C 3,3 C 90 % 1017,7 hPa 0,0 l/m 20,9 km/h (4 Bft) S 180 0 min 0,0 UV-I 0 W/m 2,3 C -5,1 C 27,4 km/h (4 Bft)
14.01.2023 05:21 3,8 C 3,3 C 90 % 1017,8 hPa 0,0 l/m 19,3 km/h (3 Bft) S 180 0 min 0,0 UV-I 0 W/m 2,3 C -4,4 C 30,6 km/h (5 Bft)
14.01.2023 05:22 3,8 C 3,3 C 89 % 1017,7 hPa 0,0 l/m 19,3 km/h (3 Bft) S 180 0 min 0,0 UV-I 0 W/m 2,2 C -4,4 C 25,7 km/h (4 Bft)
14.01.2023 05:23 3,8 C 3,3 C 90 % 1017,7 hPa 0,0 l/m 12,9 km/h (3 Bft) S 180 0 min 0,0 UV-I 0 W/m 2,3 C -1,2 C 20,9 km/h (4 Bft)
14.01.2023 05:24 3,8 C 3,3 C 90 % 1017,6 hPa 0,0 l/m 14,5 km/h (3 Bft) S 180 0 min 0,0 UV-I 0 W/m 2,3 C -2,1 C 19,3 km/h (3 Bft)
14.01.2023 05:25 3,8 C 3,3 C 89 % 1017,6 hPa 0,0 l/m 16,1 km/h (3 Bft) S 180 0 min 0,0 UV-I 0 W/m 2,2 C -2,9 C 24,1 km/h (4 Bft)
14.01.2023 05:26 3,8 C 3,3 C 90 % 1017,5 hPa 0,0 l/m 19,3 km/h (3 Bft) S 180 0 min 0,0 UV-I 0 W/m 2,3 C -4,4 C 22,5 km/h (4 Bft)
14.01.2023 05:27 3,8 C 3,3 C 90 % 1017,5 hPa 0,0 l/m 14,5 km/h (3 Bft) S 180 0 min 0,0 UV-I 0 W/m 2,3 C -2,1 C 25,7 km/h (4 Bft)
14.01.2023 05:28 3,8 C 3,3 C 90 % 1017,6 hPa 0,0 l/m 16,1 km/h (3 Bft) S 180 0 min 0,0 UV-I 0 W/m 2,3 C -2,9 C 22,5 km/h (4 Bft)
14.01.2023 05:29 3,8 C 3,3 C 90 % 1017,5 hPa 0,0 l/m 14,5 km/h (3 Bft) S 180 0 min 0,0 UV-I 0 W/m 2,3 C -2,1 C 20,9 km/h (4 Bft)
14.01.2023 05:30 3,8 C 3,3 C 90 % 1017,5 hPa 0,0 l/m 12,9 km/h (3 Bft) S 180 0 min 0,0 UV-I 0 W/m 2,3 C -1,2 C 17,7 km/h (3 Bft)
14.01.2023 05:31 3,8 C 3,3 C 90 % 1017,6 hPa 0,0 l/m 9,7 km/h (2 Bft) S 180 0 min 0,0 UV-I 0 W/m 2,3 C 1,0 C 17,7 km/h (3 Bft)
14.01.2023 05:32 3,8 C 3,3 C 90 % 1017,5 hPa 0,0 l/m 17,7 km/h (3 Bft) S-SW 202 0 min 0,0 UV-I 0 W/m 2,3 C -3,7 C 35,4 km/h (5 Bft)
14.01.2023 05:33 3,8 C 3,3 C 90 % 1017,5 hPa 0,0 l/m 22,5 km/h (4 Bft) S 180 0 min 0,0 UV-I 0 W/m 2,3 C -5,7 C 37,0 km/h (5 Bft)
14.01.2023 05:34 3,8 C 3,3 C 90 % 1017,5 hPa 0,0 l/m 16,1 km/h (3 Bft) S 180 0 min 0,0 UV-I 0 W/m 2,3 C -2,9 C 25,7 km/h (4 Bft)
14.01.2023 05:35 3,8 C 3,3 C 90 % 1017,5 hPa 0,0 l/m 19,3 km/h (3 Bft) S 180 0 min 0,0 UV-I 0 W/m 2,3 C -4,4 C 27,4 km/h (4 Bft)
14.01.2023 05:36 3,8 C 3,3 C 90 % 1017,5 hPa 0,0 l/m 17,7 km/h (3 Bft) S 180 0 min 0,0 UV-I 0 W/m 2,3 C -3,7 C 30,6 km/h (5 Bft)
14.01.2023 05:37 3,8 C 3,3 C 90 % 1017,5 hPa 0,0 l/m 17,7 km/h (3 Bft) S 180 0 min 0,0 UV-I 0 W/m 2,3 C -3,7 C 22,5 km/h (4 Bft)
14.01.2023 05:38 3,8 C 3,3 C 90 % 1017,4 hPa 0,0 l/m 17,7 km/h (3 Bft) S 180 0 min 0,0 UV-I 0 W/m 2,3 C -3,7 C 25,7 km/h (4 Bft)
14.01.2023 05:39 3,8 C 3,3 C 90 % 1017,4 hPa 0,0 l/m 19,3 km/h (3 Bft) S 180 0 min 0,0 UV-I 0 W/m 2,3 C -4,4 C 24,1 km/h (4 Bft)
14.01.2023 05:40 3,8 C 3,3 C 90 % 1017,4 hPa 0,0 l/m 14,5 km/h (3 Bft) S 180 0 min 0,0 UV-I 0 W/m 2,3 C -2,1 C 24,1 km/h (4 Bft)
14.01.2023 05:41 3,8 C 3,3 C 90 % 1017,3 hPa 0,0 l/m 16,1 km/h (3 Bft) S 180 0 min 0,0 UV-I 0 W/m 2,3 C -2,9 C 24,1 km/h (4 Bft)
14.01.2023 05:42 3,8 C 3,3 C 90 % 1017,3 hPa 0,0 l/m 14,5 km/h (3 Bft) S 180 0 min 0,0 UV-I 0 W/m 2,3 C -2,1 C 19,3 km/h (3 Bft)
14.01.2023 05:43 3,7 C 3,3 C 89 % 1017,2 hPa 0,0 l/m 17,7 km/h (3 Bft) S 180 0 min 0,0 UV-I 0 W/m 2,1 C -3,8 C 25,7 km/h (4 Bft)
14.01.2023 05:44 3,7 C 3,3 C 89 % 1017,2 hPa 0,0 l/m 16,1 km/h (3 Bft) S 180 0 min 0,0 UV-I 0 W/m 2,1 C -3,1 C 22,5 km/h (4 Bft)
14.01.2023 05:45 3,7 C 3,3 C 89 % 1017,3 hPa 0,0 l/m 16,1 km/h (3 Bft) S 180 0 min 0,0 UV-I 0 W/m 2,1 C -3,1 C 20,9 km/h (4 Bft)
14.01.2023 05:46 3,7 C 3,3 C 89 % 1017,2 hPa 0,0 l/m 16,1 km/h (3 Bft) S 180 0 min 0,0 UV-I 0 W/m 2,1 C -3,1 C 22,5 km/h (4 Bft)
14.01.2023 05:47 3,7 C 3,3 C 89 % 1017,2 hPa 0,0 l/m 16,1 km/h (3 Bft) S 180 0 min 0,0 UV-I 0 W/m 2,1 C -3,1 C 22,5 km/h (4 Bft)
14.01.2023 05:48 3,7 C 3,3 C 89 % 1017,2 hPa 0,0 l/m 16,1 km/h (3 Bft) S-SO 157 0 min 0,0 UV-I 0 W/m 2,1 C -3,1 C 25,7 km/h (4 Bft)
14.01.2023 05:49 3,7 C 3,3 C 89 % 1017,2 hPa 0,0 l/m 12,9 km/h (3 Bft) S-SO 157 0 min 0,0 UV-I 0 W/m 2,1 C -1,3 C 24,1 km/h (4 Bft)
14.01.2023 05:50 3,7 C 3,3 C 89 % 1017,2 hPa 0,0 l/m 17,7 km/h (3 Bft) S 180 0 min 0,0 UV-I 0 W/m 2,1 C -3,8 C 29,0 km/h (5 Bft)
14.01.2023 05:51 3,7 C 3,3 C 89 % 1017,2 hPa 0,0 l/m 14,5 km/h (3 Bft) S-SO 157 0 min 0,0 UV-I 0 W/m 2,1 C -2,2 C 24,1 km/h (4 Bft)
14.01.2023 05:52 3,7 C 3,3 C 89 % 1017,3 hPa 0,0 l/m 12,9 km/h (3 Bft) S-SO 157 0 min 0,0 UV-I 0 W/m 2,1 C -1,3 C 20,9 km/h (4 Bft)
14.01.2023 05:53 3,7 C 3,3 C 89 % 1017,2 hPa 0,0 l/m 12,9 km/h (3 Bft) S 180 0 min 0,0 UV-I 0 W/m 2,1 C -1,3 C 20,9 km/h (4 Bft)
14.01.2023 05:54 3,7 C 3,3 C 89 % 1017,3 hPa 0,0 l/m 19,3 km/h (3 Bft) S-SW 202 0 min 0,0 UV-I 0 W/m 2,1 C -4,6 C 27,4 km/h (4 Bft)
14.01.2023 05:55 3,6 C 3,3 C 89 % 1017,3 hPa 0,0 l/m 19,3 km/h (3 Bft) S-SW 202 0 min 0,0 UV-I 0 W/m 2,0 C -4,7 C 22,5 km/h (4 Bft)
14.01.2023 05:56 3,7 C 3,3 C 89 % 1017,3 hPa 0,0 l/m 20,9 km/h (4 Bft) S-SW 202 0 min 0,0 UV-I 0 W/m 2,1 C -5,2 C 37,0 km/h (5 Bft)
14.01.2023 05:57 3,6 C 3,3 C 89 % 1017,3 hPa 0,0 l/m 17,7 km/h (3 Bft) S 180 0 min 0,0 UV-I 0 W/m 2,0 C -4,0 C 29,0 km/h (5 Bft)
14.01.2023 05:58 3,7 C 3,3 C 89 % 1017,3 hPa 0,0 l/m 19,3 km/h (3 Bft) S-SW 202 0 min 0,0 UV-I 0 W/m 2,1 C -4,6 C 27,4 km/h (4 Bft)
14.01.2023 05:59 3,6 C 3,3 C 89 % 1017,2 hPa 0,0 l/m 19,3 km/h (3 Bft) S 180 0 min 0,0 UV-I 0 W/m 2,0 C -4,7 C 25,7 km/h (4 Bft)
14.01.2023 06:00 3,7 C 3,3 C 89 % 1017,2 hPa 0,0 l/m 17,7 km/h (3 Bft) S 180 0 min 0,0 UV-I 0 W/m 2,1 C -3,8 C 33,8 km/h (5 Bft)
14.01.2023 06:01 3,6 C 3,3 C 89 % 1017,2 hPa 0,0 l/m 17,7 km/h (3 Bft) S 180 0 min 0,0 UV-I 0 W/m 2,0 C -4,0 C 29,0 km/h (5 Bft)
14.01.2023 06:02 3,6 C 3,3 C 89 % 1017,2 hPa 0,0 l/m 16,1 km/h (3 Bft) S 180 0 min 0,0 UV-I 0 W/m 2,0 C -3,2 C 22,5 km/h (4 Bft)
14.01.2023 06:03 3,6 C 3,3 C 89 % 1017,1 hPa 0,0 l/m 20,9 km/h (4 Bft) S 180 0 min 0,0 UV-I 0 W/m 2,0 C -5,3 C 33,8 km/h (5 Bft)
14.01.2023 06:04 3,6 C 3,3 C 89 % 1017,2 hPa 0,0 l/m 22,5 km/h (4 Bft) S 180 0 min 0,0 UV-I 0 W/m 2,0 C -6,0 C 38,6 km/h (5 Bft)
14.01.2023 06:05 3,6 C 3,3 C 89 % 1017,0 hPa 0,0 l/m 16,1 km/h (3 Bft) S-SO 157 0 min 0,0 UV-I 0 W/m 2,0 C -3,2 C 25,7 km/h (4 Bft)
14.01.2023 06:06 3,6 C 3,3 C 89 % 1017,1 hPa 0,0 l/m 16,1 km/h (3 Bft) S 180 0 min 0,0 UV-I 0 W/m 2,0 C -3,2 C 19,3 km/h (3 Bft)
14.01.2023 06:07 3,6 C 3,3 C 89 % 1017,0 hPa 0,0 l/m 19,3 km/h (3 Bft) S 180 0 min 0,0 UV-I 0 W/m 2,0 C -4,7 C 25,7 km/h (4 Bft)
14.01.2023 06:08 3,6 C 3,3 C 89 % 1016,9 hPa 0,0 l/m 16,1 km/h (3 Bft) S-SW 202 0 min 0,0 UV-I 0 W/m 2,0 C -3,2 C 27,4 km/h (4 Bft)
14.01.2023 06:09 3,7 C 3,3 C 89 % 1016,9 hPa 0,0 l/m 16,1 km/h (3 Bft) S 180 0 min 0,0 UV-I 0 W/m 2,1 C -3,1 C 19,3 km/h (3 Bft)
14.01.2023 06:10 3,6 C 3,3 C 89 % 1016,9 hPa 0,0 l/m 17,7 km/h (3 Bft) S-SW 202 0 min 0,0 UV-I 0 W/m 2,0 C -4,0 C 24,1 km/h (4 Bft)
14.01.2023 06:11 3,6 C 3,3 C 89 % 1016,9 hPa 0,0 l/m 19,3 km/h (3 Bft) S 180 0 min 0,0 UV-I 0 W/m 2,0 C -4,7 C 25,7 km/h (4 Bft)
14.01.2023 06:12 3,7 C 3,3 C 89 % 1016,9 hPa 0,0 l/m 17,7 km/h (3 Bft) S-SO 157 0 min 0,0 UV-I 0 W/m 2,1 C -3,8 C 24,1 km/h (4 Bft)
14.01.2023 06:13 3,7 C 3,3 C 89 % 1016,9 hPa 0,0 l/m 11,3 km/h (2 Bft) S 180 0 min 0,0 UV-I 0 W/m 2,1 C -0,3 C 16,1 km/h (3 Bft)
14.01.2023 06:14 3,7 C 3,3 C 89 % 1016,8 hPa 0,0 l/m 12,9 km/h (3 Bft) S-SW 202 0 min 0,0 UV-I 0 W/m 2,1 C -1,3 C 17,7 km/h (3 Bft)
14.01.2023 06:15 3,6 C 3,3 C 89 % 1016,8 hPa 0,0 l/m 14,5 km/h (3 Bft) S-SW 202 0 min 0,0 UV-I 0 W/m 2,0 C -2,3 C 17,7 km/h (3 Bft)
14.01.2023 06:16 3,7 C 3,3 C 89 % 1016,9 hPa 0,0 l/m 20,9 km/h (4 Bft) S 180 0 min 0,0 UV-I 0 W/m 2,1 C -5,2 C 29,0 km/h (5 Bft)
14.01.2023 06:17 3,7 C 3,3 C 89 % 1016,8 hPa 0,0 l/m 14,5 km/h (3 Bft) S 180 0 min 0,0 UV-I 0 W/m 2,1 C -2,2 C 20,9 km/h (4 Bft)
14.01.2023 06:18 3,7 C 2,8 C 89 % 1016,8 hPa 0,0 l/m 17,7 km/h (3 Bft) S 180 0 min 0,0 UV-I 0 W/m 2,1 C -3,8 C 27,4 km/h (4 Bft)
14.01.2023 06:19 3,6 C 2,8 C 89 % 1016,8 hPa 0,0 l/m 17,7 km/h (3 Bft) S 180 0 min 0,0 UV-I 0 W/m 2,0 C -4,0 C 22,5 km/h (4 Bft)
14.01.2023 06:20 3,6 C 3,3 C 89 % 1016,7 hPa 0,0 l/m 17,7 km/h (3 Bft) S 180 0 min 0,0 UV-I 0 W/m 2,0 C -4,0 C 25,7 km/h (4 Bft)
14.01.2023 06:21 3,6 C 3,3 C 89 % 1016,7 hPa 0,0 l/m 17,7 km/h (3 Bft) S-SO 157 0 min 0,0 UV-I 0 W/m 2,0 C -4,0 C 27,4 km/h (4 Bft)
14.01.2023 06:22 3,6 C 3,3 C 89 % 1016,8 hPa 0,0 l/m 19,3 km/h (3 Bft) S 180 0 min 0,0 UV-I 0 W/m 2,0 C -4,7 C 25,7 km/h (4 Bft)
14.01.2023 06:23 3,6 C 3,3 C 89 % 1016,7 hPa 0,0 l/m 16,1 km/h (3 Bft) S 180 0 min 0,0 UV-I 0 W/m 2,0 C -3,2 C 19,3 km/h (3 Bft)
14.01.2023 06:24 3,6 C 3,3 C 89 % 1016,7 hPa 0,0 l/m 14,5 km/h (3 Bft) S 180 0 min 0,0 UV-I 0 W/m 2,0 C -2,3 C 24,1 km/h (4 Bft)
14.01.2023 06:25 3,6 C 3,3 C 89 % 1016,7 hPa 0,0 l/m 17,7 km/h (3 Bft) S 180 0 min 0,0 UV-I 0 W/m 2,0 C -4,0 C 29,0 km/h (5 Bft)
14.01.2023 06:26 3,7 C 3,3 C 89 % 1016,6 hPa 0,0 l/m 14,5 km/h (3 Bft) S 180 0 min 0,0 UV-I 0 W/m 2,1 C -2,2 C 20,9 km/h (4 Bft)
14.01.2023 06:27 3,7 C 3,3 C 89 % 1016,7 hPa 0,0 l/m 17,7 km/h (3 Bft) S 180 0 min 0,0 UV-I 0 W/m 2,1 C -3,8 C 24,1 km/h (4 Bft)
14.01.2023 06:28 3,7 C 3,3 C 89 % 1016,6 hPa 0,0 l/m 12,9 km/h (3 Bft) S 180 0 min 0,0 UV-I 0 W/m 2,1 C -1,3 C 16,1 km/h (3 Bft)
14.01.2023 06:29 3,7 C 3,3 C 89 % 1016,7 hPa 0,0 l/m 12,9 km/h (3 Bft) S 180 0 min 0,0 UV-I 0 W/m 2,1 C -1,3 C 22,5 km/h (4 Bft)
14.01.2023 06:30 3,7 C 3,3 C 89 % 1016,7 hPa 0,0 l/m 17,7 km/h (3 Bft) S 180 0 min 0,0 UV-I 0 W/m 2,1 C -3,8 C 29,0 km/h (5 Bft)
14.01.2023 06:31 3,7 C 3,3 C 89 % 1016,6 hPa 0,0 l/m 14,5 km/h (3 Bft) S-SO 157 0 min 0,0 UV-I 0 W/m 2,1 C -2,2 C 20,9 km/h (4 Bft)
14.01.2023 06:32 3,7 C 3,3 C 89 % 1016,7 hPa 0,0 l/m 17,7 km/h (3 Bft) S 180 0 min 0,0 UV-I 0 W/m 2,1 C -3,8 C 29,0 km/h (5 Bft)
14.01.2023 06:33 3,7 C 3,3 C 89 % 1016,6 hPa 0,0 l/m 16,1 km/h (3 Bft) S 180 0 min 0,0 UV-I 0 W/m 2,1 C -3,1 C 24,1 km/h (4 Bft)
14.01.2023 06:34 3,7 C 3,3 C 89 % 1016,7 hPa 0,0 l/m 12,9 km/h (3 Bft) S 180 0 min 0,0 UV-I 0 W/m 2,1 C -1,3 C 16,1 km/h (3 Bft)
14.01.2023 06:35 3,7 C 3,3 C 89 % 1016,7 hPa 0,0 l/m 19,3 km/h (3 Bft) S 180 0 min 0,0 UV-I 0 W/m 2,1 C -4,6 C 24,1 km/h (4 Bft)
14.01.2023 06:36 3,7 C 3,3 C 89 % 1016,6 hPa 0,0 l/m 17,7 km/h (3 Bft) S 180 0 min 0,0 UV-I 0 W/m 2,1 C -3,8 C 22,5 km/h (4 Bft)
14.01.2023 06:37 3,7 C 3,3 C 89 % 1016,6 hPa 0,0 l/m 20,9 km/h (4 Bft) S-SO 157 0 min 0,0 UV-I 0 W/m 2,1 C -5,2 C 30,6 km/h (5 Bft)
14.01.2023 06:38 3,7 C 3,3 C 89 % 1016,6 hPa 0,0 l/m 22,5 km/h (4 Bft) S 180 0 min 0,0 UV-I 0 W/m 2,1 C -5,8 C 38,6 km/h (5 Bft)
14.01.2023 06:39 3,7 C 3,3 C 89 % 1016,5 hPa 0,0 l/m 17,7 km/h (3 Bft) S 180 0 min 0,0 UV-I 0 W/m 2,1 C -3,8 C 27,4 km/h (4 Bft)
14.01.2023 06:40 3,7 C 3,3 C 89 % 1016,5 hPa 0,0 l/m 22,5 km/h (4 Bft) S-SO 157 0 min 0,0 UV-I 0 W/m 2,1 C -5,8 C 30,6 km/h (5 Bft)
14.01.2023 06:41 3,7 C 3,3 C 89 % 1016,5 hPa 0,0 l/m 19,3 km/h (3 Bft) S 180 0 min 0,0 UV-I 0 W/m 2,1 C -4,6 C 27,4 km/h (4 Bft)
14.01.2023 06:42 3,7 C 3,3 C 89 % 1016,6 hPa 0,0 l/m 16,1 km/h (3 Bft) S 180 0 min 0,0 UV-I 0 W/m 2,1 C -3,1 C 20,9 km/h (4 Bft)
14.01.2023 06:43 3,8 C 3,3 C 89 % 1016,5 hPa 0,0 l/m 16,1 km/h (3 Bft) S 180 0 min 0,0 UV-I 0 W/m 2,2 C -2,9 C 24,1 km/h (4 Bft)
14.01.2023 06:44 3,8 C 3,3 C 89 % 1016,4 hPa 0,0 l/m 16,1 km/h (3 Bft) S 180 0 min 0,0 UV-I 0 W/m 2,2 C -2,9 C 24,1 km/h (4 Bft)
14.01.2023 06:45 3,8 C 3,3 C 89 % 1016,5 hPa 0,0 l/m 17,7 km/h (3 Bft) S 180 0 min 0,0 UV-I 0 W/m 2,2 C -3,7 C 25,7 km/h (4 Bft)
14.01.2023 06:46 3,8 C 3,3 C 89 % 1016,4 hPa 0,0 l/m 16,1 km/h (3 Bft) S 180 0 min 0,0 UV-I 0 W/m 2,2 C -2,9 C 25,7 km/h (4 Bft)
14.01.2023 06:47 3,8 C 3,3 C 89 % 1016,4 hPa 0,0 l/m 19,3 km/h (3 Bft) S 180 0 min 0,0 UV-I 0 W/m 2,2 C -4,4 C 25,7 km/h (4 Bft)
14.01.2023 06:48 3,8 C 3,3 C 89 % 1016,4 hPa 0,0 l/m 14,5 km/h (3 Bft) S 180 0 min 0,0 UV-I 0 W/m 2,2 C -2,1 C 24,1 km/h (4 Bft)
14.01.2023 06:49 3,8 C 3,3 C 89 % 1016,4 hPa 0,0 l/m 14,5 km/h (3 Bft) S 180 0 min 0,0 UV-I 0 W/m 2,2 C -2,1 C 27,4 km/h (4 Bft)
14.01.2023 06:50 3,8 C 3,3 C 89 % 1016,3 hPa 0,0 l/m 16,1 km/h (3 Bft) S 180 0 min 0,0 UV-I 0 W/m 2,2 C -2,9 C 25,7 km/h (4 Bft)
14.01.2023 06:51 3,8 C 3,3 C 89 % 1016,4 hPa 0,0 l/m 14,5 km/h (3 Bft) S-SO 157 0 min 0,0 UV-I 0 W/m 2,2 C -2,1 C 19,3 km/h (3 Bft)
14.01.2023 06:52 3,8 C 3,3 C 89 % 1016,3 hPa 0,0 l/m 19,3 km/h (3 Bft) S-SO 157 0 min 0,0 UV-I 0 W/m 2,2 C -4,4 C 25,7 km/h (4 Bft)
14.01.2023 06:53 3,8 C 3,3 C 89 % 1016,4 hPa 0,0 l/m 14,5 km/h (3 Bft) S 180 0 min 0,0 UV-I 0 W/m 2,2 C -2,1 C 20,9 km/h (4 Bft)
14.01.2023 06:54 3,8 C 3,3 C 89 % 1016,4 hPa 0,0 l/m 22,5 km/h (4 Bft) S 180 0 min 0,0 UV-I 0 W/m 2,2 C -5,7 C 32,2 km/h (5 Bft)
14.01.2023 06:55 3,8 C 3,3 C 89 % 1016,2 hPa 0,0 l/m 20,9 km/h (4 Bft) S-SO 157 0 min 0,0 UV-I 0 W/m 2,2 C -5,1 C 33,8 km/h (5 Bft)
14.01.2023 06:56 3,8 C 3,3 C 89 % 1016,3 hPa 0,0 l/m 19,3 km/h (3 Bft) S 180 0 min 0,0 UV-I 0 W/m 2,2 C -4,4 C 29,0 km/h (5 Bft)
14.01.2023 06:57 3,8 C 3,3 C 89 % 1016,3 hPa 0,0 l/m 19,3 km/h (3 Bft) S-SO 157 0 min 0,0 UV-I 0 W/m 2,2 C -4,4 C 32,2 km/h (5 Bft)
14.01.2023 06:58 3,8 C 3,3 C 89 % 1016,2 hPa 0,0 l/m 20,9 km/h (4 Bft) S 180 0 min 0,0 UV-I 0 W/m 2,2 C -5,1 C 27,4 km/h (4 Bft)
14.01.2023 06:59 3,8 C 3,3 C 89 % 1016,2 hPa 0,0 l/m 19,3 km/h (3 Bft) S 180 0 min 0,0 UV-I 0 W/m 2,2 C -4,4 C 25,7 km/h (4 Bft)
14.01.2023 07:00 3,8 C 3,3 C 89 % 1016,2 hPa 0,0 l/m 17,7 km/h (3 Bft) S-SO 157 0 min 0,0 UV-I 0 W/m 2,2 C -3,7 C 24,1 km/h (4 Bft)
14.01.2023 07:01 3,8 C 3,3 C 89 % 1016,3 hPa 0,0 l/m 14,5 km/h (3 Bft) S 180 0 min 0,0 UV-I 0 W/m 2,2 C -2,1 C 16,1 km/h (3 Bft)
14.01.2023 07:02 3,8 C 3,3 C 89 % 1016,2 hPa 0,0 l/m 16,1 km/h (3 Bft) S 180 0 min 0,0 UV-I 0 W/m 2,2 C -2,9 C 22,5 km/h (4 Bft)
14.01.2023 07:03 3,8 C 3,3 C 89 % 1016,2 hPa 0,0 l/m 19,3 km/h (3 Bft) S-SO 157 0 min 0,0 UV-I 0 W/m 2,2 C -4,4 C 32,2 km/h (5 Bft)
14.01.2023 07:04 3,8 C 3,3 C 89 % 1016,2 hPa 0,0 l/m 19,3 km/h (3 Bft) S 180 0 min 0,0 UV-I 0 W/m 2,2 C -4,4 C 32,2 km/h (5 Bft)
14.01.2023 07:05 3,9 C 3,3 C 89 % 1016,1 hPa 0,0 l/m 16,1 km/h (3 Bft) S 180 0 min 0,0 UV-I 0 W/m 2,3 C -2,8 C 22,5 km/h (4 Bft)
14.01.2023 07:06 3,8 C 3,3 C 89 % 1016,1 hPa 0,0 l/m 19,3 km/h (3 Bft) S 180 0 min 0,0 UV-I 0 W/m 2,2 C -4,4 C 27,4 km/h (4 Bft)
14.01.2023 07:07 3,9 C 3,3 C 89 % 1016,1 hPa 0,0 l/m 17,7 km/h (3 Bft) S-SO 157 0 min 0,0 UV-I 0 W/m 2,3 C -3,6 C 22,5 km/h (4 Bft)
14.01.2023 07:08 3,9 C 3,3 C 89 % 1016,1 hPa 0,0 l/m 16,1 km/h (3 Bft) S 180 0 min 0,0 UV-I 0 W/m 2,3 C -2,8 C 20,9 km/h (4 Bft)
14.01.2023 07:09 3,9 C 3,3 C 89 % 1016,1 hPa 0,0 l/m 17,7 km/h (3 Bft) S 180 0 min 0,0 UV-I 0 W/m 2,3 C -3,6 C 25,7 km/h (4 Bft)
14.01.2023 07:10 3,9 C 3,3 C 89 % 1016,0 hPa 0,0 l/m 12,9 km/h (3 Bft) S 180 0 min 0,0 UV-I 0 W/m 2,3 C -1,1 C 17,7 km/h (3 Bft)
14.01.2023 07:11 3,9 C 3,3 C 89 % 1016,1 hPa 0,0 l/m 17,7 km/h (3 Bft) S 180 0 min 0,0 UV-I 0 W/m 2,3 C -3,6 C 29,0 km/h (5 Bft)
14.01.2023 07:12 3,9 C 3,3 C 89 % 1016,0 hPa 0,0 l/m 19,3 km/h (3 Bft) S-SO 157 0 min 0,0 UV-I 0 W/m 2,3 C -4,3 C 30,6 km/h (5 Bft)
14.01.2023 07:13 3,9 C 3,3 C 89 % 1016,0 hPa 0,0 l/m 22,5 km/h (4 Bft) S-SO 157 0 min 0,0 UV-I 0 W/m 2,3 C -5,6 C 33,8 km/h (5 Bft)
14.01.2023 07:14 3,9 C 3,3 C 89 % 1015,9 hPa 0,0 l/m 24,1 km/h (4 Bft) S 180 0 min 0,0 UV-I 0 W/m 2,3 C -6,1 C 35,4 km/h (5 Bft)
14.01.2023 07:15 3,9 C 3,3 C 89 % 1015,9 hPa 0,0 l/m 20,9 km/h (4 Bft) S-SO 157 0 min 0,0 UV-I 0 W/m 2,3 C -5,0 C 29,0 km/h (5 Bft)
14.01.2023 07:16 3,9 C 3,3 C 89 % 1015,8 hPa 0,0 l/m 14,5 km/h (3 Bft) S-SW 202 0 min 0,0 UV-I 0 W/m 2,3 C -2,0 C 24,1 km/h (4 Bft)
14.01.2023 07:17 3,9 C 3,3 C 89 % 1015,8 hPa 0,0 l/m 17,7 km/h (3 Bft) S 180 0 min 0,0 UV-I 0 W/m 2,3 C -3,6 C 24,1 km/h (4 Bft)
14.01.2023 07:18 3,9 C 3,3 C 89 % 1015,8 hPa 0,0 l/m 19,3 km/h (3 Bft) S 180 0 min 0,0 UV-I 0 W/m 2,3 C -4,3 C 33,8 km/h (5 Bft)
14.01.2023 07:19 3,9 C 3,3 C 89 % 1015,8 hPa 0,0 l/m 22,5 km/h (4 Bft) S-SW 202 0 min 0,0 UV-I 0 W/m 2,3 C -5,6 C 29,0 km/h (5 Bft)
14.01.2023 07:20 3,9 C 3,3 C 89 % 1015,8 hPa 0,0 l/m 14,5 km/h (3 Bft) S 180 0 min 0,0 UV-I 0 W/m 2,3 C -2,0 C 22,5 km/h (4 Bft)
14.01.2023 07:21 3,9 C 3,3 C 89 % 1015,7 hPa 0,0 l/m 22,5 km/h (4 Bft) S 180 0 min 0,0 UV-I 0 W/m 2,3 C -5,6 C 32,2 km/h (5 Bft)
14.01.2023 07:22 3,9 C 3,3 C 89 % 1015,7 hPa 0,0 l/m 19,3 km/h (3 Bft) S 180 0 min 0,0 UV-I 0 W/m 2,3 C -4,3 C 32,2 km/h (5 Bft)
14.01.2023 07:23 3,9 C 3,3 C 89 % 1015,8 hPa 0,0 l/m 19,3 km/h (3 Bft) S 180 0 min 0,0 UV-I 0 W/m 2,3 C -4,3 C 29,0 km/h (5 Bft)
14.01.2023 07:24 3,9 C 3,3 C 89 % 1015,8 hPa 0,0 l/m 24,1 km/h (4 Bft) S 180 0 min 0,0 UV-I 0 W/m 2,3 C -6,1 C 41,8 km/h (6 Bft)
14.01.2023 07:25 3,9 C 3,3 C 89 % 1015,7 hPa 0,0 l/m 19,3 km/h (3 Bft) S 180 0 min 0,0 UV-I 0 W/m 2,3 C -4,3 C 27,4 km/h (4 Bft)
14.01.2023 07:26 3,9 C 3,3 C 90 % 1015,6 hPa 0,0 l/m 22,5 km/h (4 Bft) S 180 0 min 0,0 UV-I 0 W/m 2,4 C -5,6 C 35,4 km/h (5 Bft)
14.01.2023 07:27 3,9 C 3,3 C 90 % 1015,8 hPa 0,0 l/m 22,5 km/h (4 Bft) S 180 0 min 0,0 UV-I 0 W/m 2,4 C -5,6 C 33,8 km/h (5 Bft)
14.01.2023 07:28 3,9 C 3,3 C 90 % 1015,7 hPa 0,0 l/m 25,7 km/h (4 Bft) S 180 0 min 0,0 UV-I 0 W/m 2,4 C -6,7 C 38,6 km/h (5 Bft)
14.01.2023 07:29 3,9 C 3,3 C 90 % 1015,8 hPa 0,0 l/m 16,1 km/h (3 Bft) S 180 0 min 0,0 UV-I 0 W/m 2,4 C -2,8 C 22,5 km/h (4 Bft)
14.01.2023 07:30 3,9 C 3,3 C 90 % 1015,7 hPa 0,0 l/m 19,3 km/h (3 Bft) S 180 0 min 0,0 UV-I 0 W/m 2,4 C -4,3 C 29,0 km/h (5 Bft)
14.01.2023 07:31 3,9 C 3,3 C 90 % 1015,6 hPa 0,0 l/m 22,5 km/h (4 Bft) S 180 0 min 0,0 UV-I 0 W/m 2,4 C -5,6 C 30,6 km/h (5 Bft)
14.01.2023 07:32 4,0 C 3,3 C 90 % 1015,6 hPa 0,0 l/m 14,5 km/h (3 Bft) S 180 0 min 0,0 UV-I 0 W/m 2,5 C -1,9 C 20,9 km/h (4 Bft)
14.01.2023 07:33 3,9 C 3,3 C 90 % 1015,6 hPa 0,0 l/m 16,1 km/h (3 Bft) S-SO 157 0 min 0,0 UV-I 0 W/m 2,4 C -2,8 C 24,1 km/h (4 Bft)
14.01.2023 07:34 4,0 C 3,3 C 90 % 1015,6 hPa 0,0 l/m 16,1 km/h (3 Bft) S 180 0 min 0,0 UV-I 0 W/m 2,5 C -2,7 C 32,2 km/h (5 Bft)
14.01.2023 07:35 3,9 C 3,3 C 90 % 1015,5 hPa 0,0 l/m 16,1 km/h (3 Bft) S 180 0 min 0,0 UV-I 0 W/m 2,4 C -2,8 C 22,5 km/h (4 Bft)
14.01.2023 07:36 3,9 C 3,3 C 90 % 1015,5 hPa 0,0 l/m 16,1 km/h (3 Bft) S 180 0 min 0,0 UV-I 0 W/m 2,4 C -2,8 C 25,7 km/h (4 Bft)
14.01.2023 07:37 4,0 C 3,3 C 90 % 1015,4 hPa 0,0 l/m 17,7 km/h (3 Bft) S-SO 157 0 min 0,0 UV-I 0 W/m 2,5 C -3,5 C 24,1 km/h (4 Bft)
14.01.2023 07:38 4,0 C 3,3 C 90 % 1015,5 hPa 0,0 l/m 20,9 km/h (4 Bft) S 180 0 min 0,0 UV-I 0 W/m 2,5 C -4,8 C 27,4 km/h (4 Bft)
14.01.2023 07:39 4,0 C 3,3 C 90 % 1015,4 hPa 0,0 l/m 22,5 km/h (4 Bft) S 180 0 min 0,0 UV-I 0 W/m 2,5 C -5,4 C 32,2 km/h (5 Bft)
14.01.2023 07:40 4,0 C 3,3 C 90 % 1015,4 hPa 0,0 l/m 19,3 km/h (3 Bft) S-SO 157 0 min 0,0 UV-I 0 W/m 2,5 C -4,2 C 24,1 km/h (4 Bft)
14.01.2023 07:41 4,0 C 3,3 C 90 % 1015,4 hPa 0,0 l/m 14,5 km/h (3 Bft) S-SO 157 0 min 0,0 UV-I 0 W/m 2,5 C -1,9 C 22,5 km/h (4 Bft)
14.01.2023 07:42 4,0 C 3,3 C 90 % 1015,3 hPa 0,0 l/m 16,1 km/h (3 Bft) S-SO 157 0 min 0,0 UV-I 0 W/m 2,5 C -2,7 C 24,1 km/h (4 Bft)
14.01.2023 07:43 4,1 C 3,3 C 90 % 1015,4 hPa 0,0 l/m 12,9 km/h (3 Bft) SO 135 0 min 0,0 UV-I 0 W/m 2,6 C -0,8 C 19,3 km/h (3 Bft)
14.01.2023 07:44 4,0 C 3,3 C 90 % 1015,2 hPa 0,0 l/m 14,5 km/h (3 Bft) S-SO 157 0 min 0,0 UV-I 0 W/m 2,5 C -1,9 C 19,3 km/h (3 Bft)
14.01.2023 07:45 4,1 C 3,3 C 90 % 1015,2 hPa 0,0 l/m 16,1 km/h (3 Bft) S-SO 157 0 min 0,0 UV-I 0 W/m 2,6 C -2,6 C 22,5 km/h (4 Bft)
14.01.2023 07:46 4,0 C 3,3 C 90 % 1015,3 hPa 0,0 l/m 16,1 km/h (3 Bft) S-SO 157 0 min 0,0 UV-I 0 W/m 2,5 C -2,7 C 25,7 km/h (4 Bft)
14.01.2023 07:47 4,0 C 3,3 C 90 % 1015,4 hPa 0,0 l/m 19,3 km/h (3 Bft) S-SO 157 0 min 0,0 UV-I 0 W/m 2,5 C -4,2 C 29,0 km/h (5 Bft)
14.01.2023 07:48 4,0 C 3,3 C 90 % 1015,3 hPa 0,0 l/m 22,5 km/h (4 Bft) S-SO 157 0 min 0,0 UV-I 0 W/m 2,5 C -5,4 C 30,6 km/h (5 Bft)
14.01.2023 07:49 4,0 C 3,3 C 90 % 1015,2 hPa 0,0 l/m 17,7 km/h (3 Bft) S-SO 157 0 min 0,0 UV-I 0 W/m 2,5 C -3,5 C 22,5 km/h (4 Bft)
14.01.2023 07:50 4,0 C 3,3 C 90 % 1015,2 hPa 0,0 l/m 19,3 km/h (3 Bft) S-SO 157 0 min 0,0 UV-I 0 W/m 2,5 C -4,2 C 29,0 km/h (5 Bft)
14.01.2023 07:51 4,0 C 3,3 C 90 % 1015,1 hPa 0,0 l/m 12,9 km/h (3 Bft) SO 135 0 min 0,0 UV-I 0 W/m 2,5 C -1,0 C 20,9 km/h (4 Bft)
14.01.2023 07:52 4,0 C 3,3 C 90 % 1015,2 hPa 0,0 l/m 12,9 km/h (3 Bft) S-SO 157 0 min 0,0 UV-I 0 W/m 2,5 C -1,0 C 19,3 km/h (3 Bft)
14.01.2023 07:53 4,0 C 3,3 C 90 % 1015,1 hPa 0,0 l/m 16,1 km/h (3 Bft) SO 135 0 min 0,0 UV-I 0 W/m 2,5 C -2,7 C 22,5 km/h (4 Bft)
14.01.2023 07:54 4,0 C 3,3 C 90 % 1015,2 hPa 0,0 l/m 19,3 km/h (3 Bft) S 180 0 min 0,0 UV-I 0 W/m 2,5 C -4,2 C 35,4 km/h (5 Bft)
14.01.2023 07:55 4,0 C 3,3 C 90 % 1015,1 hPa 0,0 l/m 20,9 km/h (4 Bft) S-SO 157 0 min 0,0 UV-I 0 W/m 2,5 C -4,8 C 30,6 km/h (5 Bft)
14.01.2023 07:56 4,0 C 3,3 C 90 % 1015,0 hPa 0,0 l/m 22,5 km/h (4 Bft) S-SO 157 0 min 0,0 UV-I 0 W/m 2,5 C -5,4 C 29,0 km/h (5 Bft)
14.01.2023 07:57 3,9 C 3,3 C 90 % 1015,0 hPa 0,0 l/m 22,5 km/h (4 Bft) S-SO 157 0 min 0,0 UV-I 0 W/m 2,4 C -5,6 C 35,4 km/h (5 Bft)
14.01.2023 07:58 4,0 C 3,3 C 90 % 1014,9 hPa 0,0 l/m 19,3 km/h (3 Bft) S 180 0 min 0,0 UV-I 0 W/m 2,5 C -4,2 C 29,0 km/h (5 Bft)
14.01.2023 07:59 3,9 C 3,3 C 90 % 1015,0 hPa 0,0 l/m 17,7 km/h (3 Bft) S 180 0 min 0,0 UV-I 0 W/m 2,4 C -3,6 C 25,7 km/h (4 Bft)
14.01.2023 08:00 3,9 C 3,3 C 90 % 1015,1 hPa 0,0 l/m 19,3 km/h (3 Bft) SO 135 0 min 0,0 UV-I 0 W/m 2,4 C -4,3 C 29,0 km/h (5 Bft)
14.01.2023 08:01 3,9 C 3,3 C 90 % 1014,9 hPa 0,0 l/m 16,1 km/h (3 Bft) SO 135 0 min 0,0 UV-I 0 W/m 2,4 C -2,8 C 20,9 km/h (4 Bft)
14.01.2023 08:02 3,9 C 3,3 C 90 % 1014,9 hPa 0,0 l/m 19,3 km/h (3 Bft) S-SO 157 0 min 0,0 UV-I 0 W/m 2,4 C -4,3 C 30,6 km/h (5 Bft)
14.01.2023 08:03 3,9 C 3,3 C 90 % 1015,0 hPa 0,0 l/m 17,7 km/h (3 Bft) S 180 0 min 0,0 UV-I 0 W/m 2,4 C -3,6 C 37,0 km/h (5 Bft)
14.01.2023 08:04 3,9 C 3,3 C 90 % 1015,0 hPa 0,0 l/m 14,5 km/h (3 Bft) S-SO 157 0 min 0,0 UV-I 0 W/m 2,4 C -2,0 C 20,9 km/h (4 Bft)
14.01.2023 08:05 3,9 C 3,3 C 90 % 1015,0 hPa 0,0 l/m 16,1 km/h (3 Bft) S-SO 157 0 min 0,0 UV-I 0 W/m 2,4 C -2,8 C 35,4 km/h (5 Bft)
14.01.2023 08:06 4,0 C 3,3 C 90 % 1014,9 hPa 0,0 l/m 19,3 km/h (3 Bft) S-SO 157 0 min 0,0 UV-I 0 W/m 2,5 C -4,2 C 27,4 km/h (4 Bft)
14.01.2023 08:07 4,0 C 3,3 C 91 % 1014,9 hPa 0,0 l/m 16,1 km/h (3 Bft) S-SO 157 0 min 0,0 UV-I 0 W/m 2,7 C -2,7 C 27,4 km/h (4 Bft)
14.01.2023 08:08 3,9 C 3,3 C 91 % 1014,9 hPa 0,0 l/m 17,7 km/h (3 Bft) S 180 0 min 0,0 UV-I 0 W/m 2,6 C -3,6 C 24,1 km/h (4 Bft)
14.01.2023 08:09 3,9 C 3,3 C 91 % 1015,0 hPa 0,0 l/m 17,7 km/h (3 Bft) S 180 0 min 0,0 UV-I 0 W/m 2,6 C -3,6 C 25,7 km/h (4 Bft)
14.01.2023 08:10 4,0 C 3,3 C 91 % 1014,9 hPa 0,0 l/m 16,1 km/h (3 Bft) S 180 0 min 0,0 UV-I 0 W/m 2,7 C -2,7 C 27,4 km/h (4 Bft)
14.01.2023 08:11 3,9 C 3,3 C 91 % 1014,8 hPa 0,0 l/m 22,5 km/h (4 Bft) S 180 0 min 0,0 UV-I 0 W/m 2,6 C -5,6 C 38,6 km/h (5 Bft)
14.01.2023 08:12 4,0 C 3,3 C 91 % 1014,8 hPa 0,0 l/m 16,1 km/h (3 Bft) S-SW 202 0 min 0,0 UV-I 0 W/m 2,7 C -2,7 C 40,2 km/h (6 Bft)
14.01.2023 08:13 4,0 C 3,3 C 91 % 1014,8 hPa 0,0 l/m 19,3 km/h (3 Bft) S 180 0 min 0,0 UV-I 0 W/m 2,7 C -4,2 C 29,0 km/h (5 Bft)
14.01.2023 08:14 4,0 C 3,3 C 91 % 1014,7 hPa 0,0 l/m 19,3 km/h (3 Bft) S-SO 157 0 min 0,0 UV-I 0 W/m 2,7 C -4,2 C 25,7 km/h (4 Bft)
14.01.2023 08:15 4,1 C 3,3 C 91 % 1014,7 hPa 0,0 l/m 19,3 km/h (3 Bft) S-SO 157 0 min 0,0 UV-I 0 W/m 2,8 C -4,0 C 30,6 km/h (5 Bft)
14.01.2023 08:16 4,1 C 3,3 C 91 % 1014,8 hPa 0,0 l/m 20,9 km/h (4 Bft) S-SO 157 0 min 0,0 UV-I 0 W/m 2,8 C -4,7 C 37,0 km/h (5 Bft)
14.01.2023 08:17 4,1 C 3,3 C 91 % 1014,7 hPa 0,0 l/m 24,1 km/h (4 Bft) S-SO 157 0 min 0,0 UV-I 0 W/m 2,8 C -5,9 C 32,2 km/h (5 Bft)
14.01.2023 08:18 4,1 C 3,3 C 91 % 1014,6 hPa 0,0 l/m 14,5 km/h (3 Bft) S-SO 157 0 min 0,0 UV-I 0 W/m 2,8 C -1,7 C 22,5 km/h (4 Bft)
14.01.2023 08:19 4,1 C 3,3 C 91 % 1014,6 hPa 0,0 l/m 19,3 km/h (3 Bft) S-SO 157 0 min 0,0 UV-I 0 W/m 2,8 C -4,0 C 29,0 km/h (5 Bft)
14.01.2023 08:20 4,1 C 3,3 C 91 % 1014,5 hPa 0,0 l/m 11,3 km/h (2 Bft) S 180 0 min 0,0 UV-I 0 W/m 2,8 C 0,2 C 17,7 km/h (3 Bft)
14.01.2023 08:21 4,1 C 3,3 C 91 % 1014,5 hPa 0,0 l/m 14,5 km/h (3 Bft) S 180 0 min 0,0 UV-I 0 W/m 2,8 C -1,7 C 20,9 km/h (4 Bft)
14.01.2023 08:22 4,1 C 3,3 C 91 % 1014,5 hPa 0,0 l/m 19,3 km/h (3 Bft) S 180 0 min 0,0 UV-I 0 W/m 2,8 C -4,0 C 27,4 km/h (4 Bft)
14.01.2023 08:23 4,1 C 3,3 C 91 % 1014,4 hPa 0,0 l/m 16,1 km/h (3 Bft) S 180 0 min 0,0 UV-I 0 W/m 2,8 C -2,6 C 25,7 km/h (4 Bft)
14.01.2023 08:24 4,1 C 3,3 C 91 % 1014,3 hPa 0,0 l/m 20,9 km/h (4 Bft) S 180 0 min 0,0 UV-I 0 W/m 2,8 C -4,7 C 33,8 km/h (5 Bft)
14.01.2023 08:25 4,1 C 3,3 C 91 % 1014,4 hPa 0,0 l/m 20,9 km/h (4 Bft) S-SO 157 0 min 0,0 UV-I 0 W/m 2,8 C -4,7 C 35,4 km/h (5 Bft)
14.01.2023 08:26 4,1 C 3,3 C 91 % 1014,3 hPa 0,0 l/m 22,5 km/h (4 Bft) S 180 0 min 0,0 UV-I 0 W/m 2,8 C -5,3 C 27,4 km/h (4 Bft)
14.01.2023 08:27 4,1 C 3,3 C 91 % 1014,2 hPa 0,0 l/m 22,5 km/h (4 Bft) S-SO 157 0 min 0,0 UV-I 0 W/m 2,8 C -5,3 C 35,4 km/h (5 Bft)
14.01.2023 08:28 4,1 C 3,3 C 91 % 1014,2 hPa 0,0 l/m 19,3 km/h (3 Bft) S-SO 157 0 min 0,0 UV-I 0 W/m 2,8 C -4,0 C 29,0 km/h (5 Bft)
14.01.2023 08:29 4,1 C 3,3 C 91 % 1014,1 hPa 0,0 l/m 20,9 km/h (4 Bft) S-SO 157 0 min 0,0 UV-I 0 W/m 2,8 C -4,7 C 27,4 km/h (4 Bft)
14.01.2023 08:30 4,1 C 3,3 C 91 % 1014,0 hPa 0,0 l/m 16,1 km/h (3 Bft) S-SO 157 0 min 0,0 UV-I 0 W/m 2,8 C -2,6 C 22,5 km/h (4 Bft)
14.01.2023 08:31 4,1 C 3,3 C 91 % 1014,0 hPa 0,0 l/m 16,1 km/h (3 Bft) S 180 0 min 0,0 UV-I 0 W/m 2,8 C -2,6 C 22,5 km/h (4 Bft)
14.01.2023 08:32 4,1 C 3,3 C 91 % 1014,0 hPa 0,0 l/m 17,7 km/h (3 Bft) S-SO 157 0 min 0,0 UV-I 0 W/m 2,8 C -3,3 C 30,6 km/h (5 Bft)
14.01.2023 08:33 4,1 C 3,3 C 91 % 1013,9 hPa 0,0 l/m 20,9 km/h (4 Bft) S-SO 157 0 min 0,0 UV-I 0 W/m 2,8 C -4,7 C 29,0 km/h (5 Bft)
14.01.2023 08:34 4,2 C 3,3 C 91 % 1014,0 hPa 0,0 l/m 16,1 km/h (3 Bft) S-SO 157 0 min 0,0 UV-I 0 W/m 2,9 C -2,5 C 24,1 km/h (4 Bft)
14.01.2023 08:35 4,2 C 3,3 C 91 % 1013,9 hPa 0,0 l/m 22,5 km/h (4 Bft) S-SO 157 0 min 0,0 UV-I 0 W/m 2,9 C -5,2 C 32,2 km/h (5 Bft)
14.01.2023 08:36 4,1 C 3,3 C 91 % 1013,9 hPa 0,0 l/m 19,3 km/h (3 Bft) S-SO 157 0 min 0,0 UV-I 0 W/m 2,8 C -4,0 C 27,4 km/h (4 Bft)
14.01.2023 08:37 4,2 C 3,3 C 91 % 1013,8 hPa 0,0 l/m 16,1 km/h (3 Bft) S 180 0 min 0,0 UV-I 0 W/m 2,9 C -2,5 C 24,1 km/h (4 Bft)
14.01.2023 08:38 4,1 C 3,3 C 91 % 1013,8 hPa 0,0 l/m 16,1 km/h (3 Bft) S-SO 157 0 min 0,0 UV-I 0 W/m 2,8 C -2,6 C 20,9 km/h (4 Bft)
14.01.2023 08:39 4,1 C 3,3 C 91 % 1013,8 hPa 0,0 l/m 16,1 km/h (3 Bft) S 180 0 min 0,0 UV-I 0 W/m 2,8 C -2,6 C 24,1 km/h (4 Bft)
14.01.2023 08:40 4,1 C 3,3 C 91 % 1013,8 hPa 0,0 l/m 19,3 km/h (3 Bft) S-SO 157 0 min 0,0 UV-I 0 W/m 2,8 C -4,0 C 32,2 km/h (5 Bft)
14.01.2023 08:41 4,2 C 3,3 C 91 % 1013,8 hPa 0,0 l/m 19,3 km/h (3 Bft) S 180 0 min 0,0 UV-I 0 W/m 2,9 C -3,9 C 27,4 km/h (4 Bft)
14.01.2023 08:42 4,1 C 3,3 C 91 % 1013,9 hPa 0,0 l/m 27,4 km/h (4 Bft) S 180 0 min 0,0 UV-I 0 W/m 2,8 C -6,9 C 43,5 km/h (6 Bft)
14.01.2023 08:43 4,1 C 3,3 C 91 % 1013,8 hPa 0,0 l/m 24,1 km/h (4 Bft) S 180 0 min 0,0 UV-I 0 W/m 2,8 C -5,9 C 33,8 km/h (5 Bft)
14.01.2023 08:44 4,2 C 3,3 C 91 % 1013,9 hPa 0,0 l/m 19,3 km/h (3 Bft) S 180 0 min 0,0 UV-I 0 W/m 2,9 C -3,9 C 37,0 km/h (5 Bft)
14.01.2023 08:45 4,2 C 3,3 C 91 % 1013,9 hPa 0,0 l/m 27,4 km/h (4 Bft) S-SO 157 0 min 0,0 UV-I 0 W/m 2,9 C -6,8 C 37,0 km/h (5 Bft)
14.01.2023 08:46 4,2 C 3,3 C 91 % 1013,7 hPa 0,0 l/m 37,0 km/h (5 Bft) S-SO 157 0 min 0,0 UV-I 0 W/m 2,9 C -9,1 C 46,7 km/h (6 Bft)
14.01.2023 08:47 4,2 C 3,9 C 91 % 1013,7 hPa 0,0 l/m 37,0 km/h (5 Bft) S 180 0 min 0,0 UV-I 0 W/m 2,9 C -9,1 C 48,3 km/h (6 Bft)
14.01.2023 08:48 4,2 C 3,9 C 91 % 1013,7 hPa 0,0 l/m 24,1 km/h (4 Bft) S-SO 157 0 min 0,0 UV-I 0 W/m 2,9 C -5,7 C 37,0 km/h (5 Bft)
14.01.2023 08:49 4,2 C 3,9 C 91 % 1013,9 hPa 0,0 l/m 24,1 km/h (4 Bft) S 180 0 min 0,0 UV-I 0 W/m 2,9 C -5,7 C 38,6 km/h (5 Bft)
14.01.2023 08:50 4,3 C 3,9 C 91 % 1013,9 hPa 0,0 l/m 22,5 km/h (4 Bft) S 180 0 min 0,0 UV-I 0 W/m 3,0 C -5,0 C 30,6 km/h (5 Bft)
14.01.2023 08:51 4,2 C 3,9 C 91 % 1013,8 hPa 0,0 l/m 20,9 km/h (4 Bft) S 180 0 min 0,0 UV-I 5 W/m 2,9 C -4,6 C 30,6 km/h (5 Bft)
14.01.2023 08:52 4,3 C 3,9 C 91 % 1013,7 hPa 0,0 l/m 20,9 km/h (4 Bft) S 180 0 min 0,0 UV-I 5 W/m 3,0 C -4,4 C 43,5 km/h (6 Bft)
14.01.2023 08:53 4,3 C 3,9 C 91 % 1013,8 hPa 0,0 l/m 29,0 km/h (5 Bft) S-SW 202 0 min 0,0 UV-I 5 W/m 3,0 C -7,1 C 38,6 km/h (5 Bft)
14.01.2023 08:54 4,3 C 3,9 C 91 % 1013,7 hPa 0,0 l/m 25,7 km/h (4 Bft) S-SO 157 0 min 0,0 UV-I 5 W/m 3,0 C -6,1 C 40,2 km/h (6 Bft)
14.01.2023 08:55 4,3 C 3,9 C 91 % 1013,7 hPa 0,0 l/m 16,1 km/h (3 Bft) S 180 0 min 0,0 UV-I 5 W/m 3,0 C -2,3 C 22,5 km/h (4 Bft)
14.01.2023 08:56 4,3 C 3,9 C 91 % 1013,6 hPa 0,0 l/m 20,9 km/h (4 Bft) S-SO 157 0 min 0,0 UV-I 5 W/m 3,0 C -4,4 C 30,6 km/h (5 Bft)
14.01.2023 08:57 4,3 C 3,9 C 91 % 1013,7 hPa 0,0 l/m 17,7 km/h (3 Bft) S-SO 157 0 min 0,0 UV-I 5 W/m 3,0 C -3,1 C 29,0 km/h (5 Bft)
14.01.2023 08:58 4,3 C 3,9 C 91 % 1013,6 hPa 0,0 l/m 19,3 km/h (3 Bft) S-SO 157 0 min 0,0 UV-I 7 W/m 3,0 C -3,8 C 27,4 km/h (4 Bft)
14.01.2023 08:59 4,3 C 3,9 C 91 % 1013,7 hPa 0,0 l/m 19,3 km/h (3 Bft) S 180 0 min 0,0 UV-I 7 W/m 3,0 C -3,8 C 33,8 km/h (5 Bft)
14.01.2023 09:00 4,3 C 3,9 C 91 % 1013,6 hPa 0,0 l/m 22,5 km/h (4 Bft) S 180 0 min 0,0 UV-I 7 W/m 3,0 C -5,0 C 37,0 km/h (5 Bft)
14.01.2023 09:01 4,3 C 3,9 C 91 % 1013,6 hPa 0,0 l/m 17,7 km/h (3 Bft) S 180 0 min 0,0 UV-I 7 W/m 3,0 C -3,1 C 27,4 km/h (4 Bft)
14.01.2023 09:02 4,3 C 3,9 C 91 % 1013,6 hPa 0,0 l/m 19,3 km/h (3 Bft) S 180 0 min 0,0 UV-I 7 W/m 3,0 C -3,8 C 33,8 km/h (5 Bft)
14.01.2023 09:03 4,3 C 3,9 C 92 % 1013,5 hPa 0,0 l/m 22,5 km/h (4 Bft) S 180 0 min 0,0 UV-I 7 W/m 3,1 C -5,0 C 30,6 km/h (5 Bft)
14.01.2023 09:04 4,3 C 3,9 C 92 % 1013,6 hPa 0,0 l/m 20,9 km/h (4 Bft) S 180 0 min 0,0 UV-I 7 W/m 3,1 C -4,4 C 29,0 km/h (5 Bft)
14.01.2023 09:05 4,3 C 3,9 C 92 % 1013,5 hPa 0,0 l/m 29,0 km/h (5 Bft) S 180 0 min 0,0 UV-I 7 W/m 3,1 C -7,1 C 40,2 km/h (6 Bft)
14.01.2023 09:06 4,4 C 3,9 C 92 % 1013,5 hPa 0,0 l/m 27,4 km/h (4 Bft) S 180 0 min 0,0 UV-I 7 W/m 3,2 C -6,5 C 41,8 km/h (6 Bft)
14.01.2023 09:07 4,4 C 3,9 C 92 % 1013,4 hPa 0,0 l/m 20,9 km/h (4 Bft) S 180 0 min 0,0 UV-I 7 W/m 3,2 C -4,3 C 33,8 km/h (5 Bft)
14.01.2023 09:08 4,4 C 3,9 C 92 % 1013,5 hPa 0,0 l/m 22,5 km/h (4 Bft) S 180 0 min 0,0 UV-I 8 W/m 3,2 C -4,9 C 33,8 km/h (5 Bft)
14.01.2023 09:09 4,4 C 3,9 C 92 % 1013,3 hPa 0,0 l/m 29,0 km/h (5 Bft) S 180 0 min 0,0 UV-I 11 W/m 3,2 C -6,9 C 41,8 km/h (6 Bft)
14.01.2023 09:10 4,4 C 3,9 C 92 % 1013,4 hPa 0,0 l/m 25,7 km/h (4 Bft) S-SW 202 0 min 0,0 UV-I 11 W/m 3,2 C -6,0 C 35,4 km/h (5 Bft)
14.01.2023 09:11 4,4 C 3,9 C 92 % 1013,5 hPa 0,0 l/m 22,5 km/h (4 Bft) S 180 0 min 0,0 UV-I 11 W/m 3,2 C -4,9 C 32,2 km/h (5 Bft)
14.01.2023 09:12 4,4 C 3,9 C 92 % 1013,4 hPa 0,0 l/m 20,9 km/h (4 Bft) S 180 0 min 0,0 UV-I 11 W/m 3,2 C -4,3 C 32,2 km/h (5 Bft)
14.01.2023 09:13 4,5 C 3,9 C 92 % 1013,3 hPa 0,0 l/m 25,7 km/h (4 Bft) S 180 0 min 0,0 UV-I 12 W/m 3,3 C -5,8 C 35,4 km/h (5 Bft)
14.01.2023 09:14 4,5 C 3,9 C 92 % 1013,3 hPa 0,0 l/m 24,1 km/h (4 Bft) S 180 0 min 0,0 UV-I 12 W/m 3,3 C -5,3 C 32,2 km/h (5 Bft)
14.01.2023 09:15 4,5 C 3,9 C 92 % 1013,3 hPa 0,0 l/m 24,1 km/h (4 Bft) S 180 0 min 0,0 UV-I 12 W/m 3,3 C -5,3 C 38,6 km/h (5 Bft)
14.01.2023 09:16 4,6 C 3,9 C 92 % 1013,2 hPa 0,0 l/m 25,7 km/h (4 Bft) S 180 0 min 0,0 UV-I 12 W/m 3,4 C -5,7 C 43,5 km/h (6 Bft)
14.01.2023 09:17 4,6 C 3,9 C 92 % 1013,3 hPa 0,0 l/m 27,4 km/h (4 Bft) S-SO 157 0 min 0,0 UV-I 14 W/m 3,4 C -6,2 C 38,6 km/h (5 Bft)
14.01.2023 09:18 4,6 C 3,9 C 92 % 1013,2 hPa 0,0 l/m 29,0 km/h (5 Bft) S-SO 157 0 min 0,0 UV-I 14 W/m 3,4 C -6,7 C 37,0 km/h (5 Bft)
14.01.2023 09:19 4,6 C 3,9 C 92 % 1013,2 hPa 0,0 l/m 27,4 km/h (4 Bft) S 180 0 min 0,0 UV-I 12 W/m 3,4 C -6,2 C 38,6 km/h (5 Bft)
14.01.2023 09:20 4,6 C 3,9 C 92 % 1013,2 hPa 0,0 l/m 25,7 km/h (4 Bft) S 180 0 min 0,0 UV-I 13 W/m 3,4 C -5,7 C 43,5 km/h (6 Bft)
14.01.2023 09:21 4,6 C 3,9 C 92 % 1013,3 hPa 0,0 l/m 25,7 km/h (4 Bft) S 180 0 min 0,0 UV-I 12 W/m 3,4 C -5,7 C 43,5 km/h (6 Bft)
14.01.2023 09:22 4,6 C 3,9 C 92 % 1013,3 hPa 0,0 l/m 25,7 km/h (4 Bft) S 180 0 min 0,0 UV-I 14 W/m 3,4 C -5,7 C 38,6 km/h (5 Bft)
14.01.2023 09:23 4,6 C 3,9 C 92 % 1013,4 hPa 0,0 l/m 25,7 km/h (4 Bft) S 180 0 min 0,0 UV-I 18 W/m 3,4 C -5,7 C 43,5 km/h (6 Bft)
14.01.2023 09:24 4,6 C 3,9 C 92 % 1013,1 hPa 0,0 l/m 19,3 km/h (3 Bft) S 180 0 min 0,0 UV-I 16 W/m 3,4 C -3,4 C 27,4 km/h (4 Bft)
14.01.2023 09:25 4,6 C 3,9 C 92 % 1013,2 hPa 0,0 l/m 25,7 km/h (4 Bft) S-SO 157 0 min 0,0 UV-I 14 W/m 3,4 C -5,7 C 37,0 km/h (5 Bft)
14.01.2023 09:27 4,6 C 3,9 C 92 % 1013,1 hPa 0,0 l/m 22,5 km/h (4 Bft) S 180 0 min 0,0 UV-I 15 W/m 3,4 C -4,6 C 22,5 km/h (4 Bft)
14.01.2023 09:30 4,7 C 4,4 C 92 % 1012,9 hPa 0,0 l/m 27,8 km/h (4 Bft) S-SW 194 0 min 0,0 UV-I 18 W/m 3,5 C -6,2 C 46,7 km/h (6 Bft)
14.01.2023 09:33 4,7 C 4,4 C 92 % 1012,9 hPa 0,0 l/m 22,7 km/h (4 Bft) S 184 0 min 0,0 UV-I 16 W/m 3,5 C -4,6 C 43,5 km/h (6 Bft)
14.01.2023 09:36 4,7 C 4,4 C 92 % 1012,9 hPa 0,0 l/m 22,4 km/h (4 Bft) S-SO 163 0 min 0,0 UV-I 16 W/m 3,5 C -4,5 C 41,8 km/h (6 Bft)
14.01.2023 09:39 4,8 C 4,4 C 92 % 1012,8 hPa 0,0 l/m 23,3 km/h (4 Bft) S-SO 157 0 min 0,0 UV-I 15 W/m 3,6 C -4,7 C 41,8 km/h (6 Bft)
14.01.2023 09:42 4,8 C 4,4 C 92 % 1012,9 hPa 0,0 l/m 21,6 km/h (4 Bft) S-SO 162 0 min 0,0 UV-I 16 W/m 3,6 C -4,0 C 38,6 km/h (5 Bft)
14.01.2023 09:45 4,8 C 4,4 C 92 % 1012,9 hPa 0,0 l/m 23,0 km/h (4 Bft) S-SO 149 0 min 0,0 UV-I 13 W/m 3,6 C -4,5 C 37,0 km/h (5 Bft)
14.01.2023 09:48 4,8 C 4,4 C 92 % 1012,7 hPa 0,0 l/m 21,4 km/h (4 Bft) S-SW 200 0 min 0,0 UV-I 13 W/m 3,6 C -4,0 C 32,2 km/h (5 Bft)
14.01.2023 09:51 4,8 C 4,4 C 92 % 1012,7 hPa 0,0 l/m 20,0 km/h (4 Bft) S 190 0 min 0,0 UV-I 13 W/m 3,6 C -3,4 C 38,6 km/h (5 Bft)
14.01.2023 09:54 4,9 C 4,4 C 92 % 1012,7 hPa 0,0 l/m 23,5 km/h (4 Bft) S 190 0 min 0,0 UV-I 13 W/m 3,7 C -4,6 C 41,8 km/h (6 Bft)
14.01.2023 09:57 4,9 C 4,4 C 92 % 1012,6 hPa 0,0 l/m 25,1 km/h (4 Bft) S-SW 200 0 min 0,0 UV-I 14 W/m 3,7 C -5,1 C 41,8 km/h (6 Bft)
14.01.2023 10:00 5,0 C 4,4 C 92 % 1012,6 hPa 0,0 l/m 23,5 km/h (4 Bft) S-SO 162 0 min 0,0 UV-I 15 W/m 3,8 C -4,5 C 48,3 km/h (6 Bft)
14.01.2023 10:03 5,0 C 4,4 C 92 % 1012,6 hPa 0,0 l/m 22,6 km/h (4 Bft) S-SW 198 0 min 0,0 UV-I 14 W/m 3,8 C -4,1 C 40,2 km/h (6 Bft)
14.01.2023 10:06 5,0 C 4,4 C 92 % 1012,6 hPa 0,0 l/m 23,8 km/h (4 Bft) SO 139 0 min 0,0 UV-I 16 W/m 3,8 C -4,6 C 43,5 km/h (6 Bft)
14.01.2023 10:09 5,1 C 4,4 C 93 % 1012,6 hPa 0,0 l/m 24,5 km/h (4 Bft) S-SO 153 0 min 0,0 UV-I 16 W/m 4,1 C -4,6 C 41,8 km/h (6 Bft)
14.01.2023 10:12 5,1 C 4,4 C 92 % 1012,5 hPa 0,0 l/m 25,5 km/h (4 Bft) S-SO 167 0 min 0,0 UV-I 18 W/m 3,9 C -5,0 C 41,8 km/h (6 Bft)
14.01.2023 10:15 5,2 C 4,4 C 92 % 1012,5 hPa 0,0 l/m 21,8 km/h (4 Bft) S 181 0 min 0,0 UV-I 17 W/m 4,0 C -3,6 C 38,6 km/h (5 Bft)
14.01.2023 10:18 5,2 C 4,4 C 92 % 1012,4 hPa 0,0 l/m 23,3 km/h (4 Bft) S-SW 197 0 min 0,0 UV-I 23 W/m 4,0 C -4,1 C 37,0 km/h (5 Bft)
14.01.2023 10:21 5,2 C 5,0 C 92 % 1012,3 hPa 0,0 l/m 26,8 km/h (4 Bft) S-SO 167 0 min 0,0 UV-I 28 W/m 4,0 C -5,2 C 46,7 km/h (6 Bft)
14.01.2023 10:24 5,3 C 5,0 C 93 % 1012,4 hPa 0,0 l/m 23,3 km/h (4 Bft) S 177 0 min 0,0 UV-I 28 W/m 4,3 C -4,0 C 43,5 km/h (6 Bft)
14.01.2023 10:27 5,3 C 5,0 C 93 % 1012,1 hPa 0,0 l/m 23,2 km/h (4 Bft) S 178 0 min 0,0 UV-I 21 W/m 4,3 C -4,0 C 35,4 km/h (5 Bft)
14.01.2023 10:30 5,3 C 5,0 C 92 % 1012,2 hPa 0,0 l/m 24,0 km/h (4 Bft) S 174 0 min 0,0 UV-I 23 W/m 4,1 C -4,2 C 40,2 km/h (6 Bft)
14.01.2023 10:33 5,3 C 5,0 C 92 % 1012,0 hPa 0,0 l/m 24,1 km/h (4 Bft) S 180 0 min 0,0 UV-I 20 W/m 4,1 C -4,2 C 40,2 km/h (6 Bft)
14.01.2023 10:36 5,4 C 5,0 C 92 % 1012,0 hPa 0,0 l/m 21,8 km/h (4 Bft) S 178 0 min 0,0 UV-I 19 W/m 4,2 C -3,3 C 56,3 km/h (7 Bft)
14.01.2023 10:39 5,5 C 5,0 C 92 % 1012,0 hPa 0,0 l/m 23,1 km/h (4 Bft) S 173 0 min 0,0 UV-I 19 W/m 4,3 C -3,6 C 38,6 km/h (5 Bft)
14.01.2023 10:42 5,6 C 5,0 C 92 % 1011,6 hPa 0,0 l/m 21,5 km/h (4 Bft) S-SW 199 0 min 0,0 UV-I 25 W/m 4,4 C -3,0 C 35,4 km/h (5 Bft)
14.01.2023 10:45 5,6 C 5,0 C 92 % 1011,6 hPa 0,0 l/m 23,8 km/h (4 Bft) S-SO 163 0 min 0,0 UV-I 31 W/m 4,4 C -3,7 C 41,8 km/h (6 Bft)
14.01.2023 10:48 5,6 C 5,0 C 92 % 1011,7 hPa 0,0 l/m 24,1 km/h (4 Bft) S 178 0 min 0,0 UV-I 29 W/m 4,4 C -3,8 C 45,1 km/h (6 Bft)
14.01.2023 10:51 5,6 C 5,0 C 92 % 1011,6 hPa 0,0 l/m 20,6 km/h (4 Bft) S-SO 163 0 min 0,0 UV-I 27 W/m 4,4 C -2,6 C 37,0 km/h (5 Bft)
14.01.2023 10:54 5,7 C 5,0 C 92 % 1011,6 hPa 0,0 l/m 23,9 km/h (4 Bft) S 177 0 min 0,0 UV-I 26 W/m 4,5 C -3,6 C 43,5 km/h (6 Bft)
14.01.2023 10:57 5,7 C 5,0 C 92 % 1011,5 hPa 0,0 l/m 31,0 km/h (5 Bft) S-SO 159 0 min 0,0 UV-I 30 W/m 4,5 C -5,6 C 48,3 km/h (6 Bft)
14.01.2023 11:00 5,7 C 5,0 C 92 % 1011,6 hPa 0,0 l/m 25,3 km/h (4 Bft) S 176 0 min 0,0 UV-I 27 W/m 4,5 C -4,1 C 43,5 km/h (6 Bft)
14.01.2023 11:03 5,7 C 5,0 C 92 % 1011,6 hPa 0,2 l/m 19,5 km/h (3 Bft) S 189 0 min 0,0 UV-I 24 W/m 4,5 C -2,1 C 38,6 km/h (5 Bft)
14.01.2023 11:06 5,7 C 5,0 C 92 % 1011,6 hPa 0,0 l/m 22,6 km/h (4 Bft) S 187 0 min 0,0 UV-I 23 W/m 4,5 C -3,2 C 38,6 km/h (5 Bft)
14.01.2023 11:09 5,8 C 5,0 C 92 % 1011,6 hPa 0,0 l/m 21,1 km/h (4 Bft) S 190 0 min 0,0 UV-I 19 W/m 4,6 C -2,6 C 35,4 km/h (5 Bft)
14.01.2023 11:12 5,8 C 5,0 C 92 % 1011,6 hPa 0,0 l/m 22,9 km/h (4 Bft) S-SO 166 0 min 0,0 UV-I 21 W/m 4,6 C -3,2 C 38,6 km/h (5 Bft)
14.01.2023 11:15 5,8 C 5,0 C 92 % 1011,4 hPa 0,0 l/m 23,2 km/h (4 Bft) S 189 0 min 0,0 UV-I 21 W/m 4,6 C -3,3 C 37,0 km/h (5 Bft)
14.01.2023 11:18 5,8 C 5,0 C 92 % 1011,4 hPa 0,0 l/m 19,5 km/h (3 Bft) S-SO 163 0 min 0,0 UV-I 29 W/m 4,6 C -1,9 C 33,8 km/h (5 Bft)
14.01.2023 11:21 5,8 C 5,0 C 92 % 1011,4 hPa 0,0 l/m 22,9 km/h (4 Bft) S-SO 167 0 min 0,0 UV-I 34 W/m 4,6 C -3,2 C 37,0 km/h (5 Bft)
14.01.2023 11:24 5,8 C 5,0 C 92 % 1011,3 hPa 0,0 l/m 25,2 km/h (4 Bft) S-SW 195 0 min 0,0 UV-I 33 W/m 4,6 C -3,9 C 40,2 km/h (6 Bft)
14.01.2023 11:27 5,8 C 5,0 C 92 % 1011,1 hPa 0,0 l/m 29,3 km/h (5 Bft) S-SO 147 0 min 0,0 UV-I 32 W/m 4,6 C -5,1 C 56,3 km/h (7 Bft)
14.01.2023 11:30 5,9 C 5,0 C 92 % 1011,1 hPa 0,0 l/m 23,4 km/h (4 Bft) S 171 0 min 0,0 UV-I 32 W/m 4,7 C -3,2 C 40,2 km/h (6 Bft)
14.01.2023 11:33 5,9 C 5,0 C 92 % 1010,9 hPa 0,0 l/m 26,9 km/h (4 Bft) S-SO 150 0 min 0,0 UV-I 34 W/m 4,7 C -4,3 C 53,1 km/h (7 Bft)
14.01.2023 11:36 5,9 C 5,0 C 91 % 1010,8 hPa 0,0 l/m 23,6 km/h (4 Bft) S 176 0 min 0,0 UV-I 34 W/m 4,5 C -3,3 C 40,2 km/h (6 Bft)
14.01.2023 11:39 5,9 C 5,0 C 91 % 1010,7 hPa 0,0 l/m 27,6 km/h (4 Bft) S 188 0 min 0,0 UV-I 25 W/m 4,5 C -4,5 C 46,7 km/h (6 Bft)
14.01.2023 11:42 6,0 C 5,0 C 91 % 1010,6 hPa 0,0 l/m 19,6 km/h (3 Bft) SO 141 0 min 0,0 UV-I 24 W/m 4,6 C -1,7 C 33,8 km/h (5 Bft)
14.01.2023 11:45 6,0 C 5,6 C 91 % 1010,7 hPa 0,0 l/m 22,0 km/h (4 Bft) S 188 0 min 0,0 UV-I 30 W/m 4,6 C -2,6 C 37,0 km/h (5 Bft)
14.01.2023 11:48 6,0 C 5,6 C 91 % 1010,6 hPa 0,0 l/m 21,4 km/h (4 Bft) S 186 0 min 0,0 UV-I 31 W/m 4,6 C -2,4 C 33,8 km/h (5 Bft)
14.01.2023 11:51 6,1 C 5,6 C 91 % 1010,4 hPa 0,0 l/m 23,6 km/h (4 Bft) S 170 0 min 0,0 UV-I 32 W/m 4,7 C -3,0 C 38,6 km/h (5 Bft)
14.01.2023 11:54 6,1 C 5,6 C 91 % 1010,3 hPa 0,0 l/m 22,3 km/h (4 Bft) S-SO 156 0 min 0,0 UV-I 26 W/m 4,7 C -2,6 C 38,6 km/h (5 Bft)
14.01.2023 11:57 6,1 C 5,6 C 91 % 1010,3 hPa 0,0 l/m 21,3 km/h (4 Bft) S-SO 159 0 min 0,0 UV-I 29 W/m 4,7 C -2,2 C 37,0 km/h (5 Bft)
14.01.2023 12:00 6,1 C 5,6 C 91 % 1010,2 hPa 0,0 l/m 20,5 km/h (4 Bft) S 182 0 min 0,0 UV-I 32 W/m 4,7 C -1,9 C 41,8 km/h (6 Bft)
14.01.2023 12:03 6,1 C 5,6 C 91 % 1010,1 hPa 0,0 l/m 20,8 km/h (4 Bft) S 188 0 min 0,0 UV-I 37 W/m 4,7 C -2,0 C 38,6 km/h (5 Bft)
14.01.2023 12:06 6,1 C 5,6 C 91 % 1009,9 hPa 0,2 l/m 23,4 km/h (4 Bft) SW 223 0 min 0,0 UV-I 37 W/m 4,7 C -2,9 C 43,5 km/h (6 Bft)
14.01.2023 12:09 6,1 C 5,6 C 91 % 1009,9 hPa 0,0 l/m 20,0 km/h (4 Bft) S-SO 157 0 min 0,0 UV-I 39 W/m 4,7 C -1,8 C 35,4 km/h (5 Bft)
14.01.2023 12:12 6,1 C 5,6 C 91 % 1009,8 hPa 0,0 l/m 22,3 km/h (4 Bft) SW 225 0 min 0,0 UV-I 42 W/m 4,7 C -2,6 C 35,4 km/h (5 Bft)
14.01.2023 12:15 6,1 C 5,6 C 91 % 1009,9 hPa 0,2 l/m 29,1 km/h (5 Bft) S-SW 204 0 min 0,0 UV-I 42 W/m 4,7 C -4,6 C 48,3 km/h (6 Bft)
14.01.2023 12:18 6,2 C 5,6 C 91 % 1009,8 hPa 0,0 l/m 27,0 km/h (4 Bft) S-SW 193 0 min 0,0 UV-I 47 W/m 4,8 C -3,9 C 48,3 km/h (6 Bft)
14.01.2023 12:21 6,2 C 5,6 C 91 % 1009,7 hPa 0,0 l/m 22,6 km/h (4 Bft) S-SO 155 0 min 0,0 UV-I 51 W/m 4,8 C -2,6 C 38,6 km/h (5 Bft)
14.01.2023 12:24 6,2 C 5,6 C 91 % 1009,8 hPa 0,2 l/m 22,1 km/h (4 Bft) S 189 0 min 0,0 UV-I 41 W/m 4,8 C -2,4 C 48,3 km/h (6 Bft)
14.01.2023 12:27 6,2 C 5,6 C 91 % 1009,8 hPa 0,0 l/m 23,4 km/h (4 Bft) S-SW 204 0 min 0,0 UV-I 39 W/m 4,8 C -2,8 C 38,6 km/h (5 Bft)
14.01.2023 12:30 6,2 C 5,6 C 91 % 1009,7 hPa 0,2 l/m 24,8 km/h (4 Bft) S-SW 196 0 min 0,0 UV-I 48 W/m 4,8 C -3,3 C 45,1 km/h (6 Bft)
14.01.2023 12:33 6,2 C 5,6 C 91 % 1009,4 hPa 0,0 l/m 25,9 km/h (4 Bft) S-SO 166 0 min 0,0 UV-I 52 W/m 4,8 C -3,6 C 66,0 km/h (8 Bft)
14.01.2023 12:36 6,2 C 5,6 C 91 % 1009,5 hPa 0,0 l/m 25,1 km/h (4 Bft) S 172 0 min 0,0 UV-I 45 W/m 4,8 C -3,3 C 54,7 km/h (7 Bft)
14.01.2023 12:39 6,2 C 5,6 C 91 % 1009,4 hPa 0,2 l/m 26,7 km/h (4 Bft) S-SO 165 0 min 0,0 UV-I 44 W/m 4,8 C -3,8 C 46,7 km/h (6 Bft)
14.01.2023 12:42 6,3 C 5,6 C 91 % 1009,3 hPa 0,0 l/m 26,9 km/h (4 Bft) S 173 0 min 0,0 UV-I 42 W/m 4,9 C -3,7 C 53,1 km/h (7 Bft)
14.01.2023 12:45 6,3 C 5,6 C 91 % 1009,4 hPa 0,0 l/m 29,1 km/h (5 Bft) S 173 0 min 0,0 UV-I 49 W/m 4,9 C -4,3 C 45,1 km/h (6 Bft)
14.01.2023 12:48 6,3 C 5,6 C 91 % 1009,3 hPa 0,2 l/m 24,0 km/h (4 Bft) S-SW 203 0 min 0,0 UV-I 41 W/m 4,9 C -2,9 C 35,4 km/h (5 Bft)
14.01.2023 12:51 6,3 C 5,6 C 91 % 1009,2 hPa 0,0 l/m 24,6 km/h (4 Bft) S-SW 204 0 min 0,0 UV-I 39 W/m 4,9 C -3,1 C 37,0 km/h (5 Bft)
14.01.2023 12:54 6,3 C 5,6 C 91 % 1009,1 hPa 0,0 l/m 22,2 km/h (4 Bft) S-SO 154 0 min 0,0 UV-I 36 W/m 4,9 C -2,3 C 33,8 km/h (5 Bft)
14.01.2023 12:57 6,3 C 5,6 C 91 % 1008,9 hPa 0,2 l/m 26,9 km/h (4 Bft) S-SW 206 0 min 0,0 UV-I 35 W/m 4,9 C -3,7 C 41,8 km/h (6 Bft)
14.01.2023 13:00 6,3 C 5,6 C 91 % 1008,8 hPa 0,0 l/m 20,7 km/h (4 Bft) S 182 0 min 0,0 UV-I 36 W/m 4,9 C -1,8 C 43,5 km/h (6 Bft)
14.01.2023 13:03 6,3 C 5,6 C 91 % 1008,8 hPa 0,0 l/m 24,0 km/h (4 Bft) S-SW 208 0 min 0,0 UV-I 35 W/m 4,9 C -2,9 C 37,0 km/h (5 Bft)
14.01.2023 13:06 6,3 C 5,6 C 91 % 1008,7 hPa 0,0 l/m 27,3 km/h (4 Bft) S-SO 167 0 min 0,0 UV-I 33 W/m 4,9 C -3,8 C 45,1 km/h (6 Bft)
14.01.2023 13:09 6,3 C 5,6 C 91 % 1008,7 hPa 0,2 l/m 24,3 km/h (4 Bft) S-SW 207 0 min 0,0 UV-I 29 W/m 4,9 C -3,0 C 43,5 km/h (6 Bft)
14.01.2023 13:12 6,4 C 5,6 C 91 % 1008,7 hPa 0,0 l/m 27,5 km/h (4 Bft) S-SO 149 0 min 0,0 UV-I 26 W/m 5,0 C -3,8 C 43,5 km/h (6 Bft)
14.01.2023 13:15 6,4 C 5,6 C 91 % 1008,6 hPa 0,0 l/m 29,8 km/h (5 Bft) S 175 0 min 0,0 UV-I 33 W/m 5,0 C -4,4 C 48,3 km/h (6 Bft)
14.01.2023 13:18 6,4 C 5,6 C 91 % 1008,6 hPa 0,2 l/m 27,8 km/h (4 Bft) S 185 0 min 0,0 UV-I 29 W/m 5,0 C -3,8 C 51,5 km/h (7 Bft)
14.01.2023 13:21 6,4 C 5,6 C 91 % 1008,5 hPa 0,0 l/m 28,1 km/h (4 Bft) S-SO 157 0 min 0,0 UV-I 25 W/m 5,0 C -3,9 C 49,9 km/h (6 Bft)
14.01.2023 13:24 6,4 C 5,6 C 91 % 1008,3 hPa 0,0 l/m 29,1 km/h (5 Bft) S 183 0 min 0,0 UV-I 30 W/m 5,0 C -4,2 C 53,1 km/h (7 Bft)
14.01.2023 13:27 6,4 C 5,6 C 91 % 1008,2 hPa 0,0 l/m 30,6 km/h (5 Bft) S 173 0 min 0,0 UV-I 36 W/m 5,0 C -4,6 C 49,9 km/h (6 Bft)
14.01.2023 13:30 6,4 C 5,6 C 91 % 1008,0 hPa 0,2 l/m 23,6 km/h (4 Bft) S 169 0 min 0,0 UV-I 35 W/m 5,0 C -2,6 C 46,7 km/h (6 Bft)
14.01.2023 13:33 6,4 C 5,6 C 91 % 1007,9 hPa 0,0 l/m 27,4 km/h (4 Bft) S-SW 200 0 min 0,0 UV-I 36 W/m 5,0 C -3,7 C 48,3 km/h (6 Bft)
14.01.2023 13:36 6,5 C 5,6 C 91 % 1008,0 hPa 0,0 l/m 29,8 km/h (5 Bft) S-SO 161 0 min 0,0 UV-I 31 W/m 5,1 C -4,2 C 54,7 km/h (7 Bft)
14.01.2023 13:39 6,5 C 5,6 C 91 % 1007,9 hPa 0,0 l/m 23,5 km/h (4 Bft) S 187 0 min 0,0 UV-I 27 W/m 5,1 C -2,4 C 38,6 km/h (5 Bft)
14.01.2023 13:42 6,5 C 5,6 C 91 % 1007,8 hPa 0,2 l/m 24,8 km/h (4 Bft) S-SO 155 0 min 0,0 UV-I 28 W/m 5,1 C -2,9 C 38,6 km/h (5 Bft)
14.01.2023 13:45 6,5 C 5,6 C 91 % 1007,8 hPa 0,0 l/m 27,9 km/h (4 Bft) S 174 0 min 0,0 UV-I 28 W/m 5,1 C -3,7 C 43,5 km/h (6 Bft)
14.01.2023 13:48 6,5 C 5,6 C 91 % 1007,7 hPa 0,0 l/m 24,2 km/h (4 Bft) S-SW 209 0 min 0,0 UV-I 31 W/m 5,1 C -2,7 C 35,4 km/h (5 Bft)
14.01.2023 13:51 6,6 C 5,6 C 91 % 1007,6 hPa 0,2 l/m 29,8 km/h (5 Bft) S-SO 151 0 min 0,0 UV-I 33 W/m 5,2 C -4,1 C 48,3 km/h (6 Bft)
14.01.2023 13:54 6,6 C 5,6 C 91 % 1007,6 hPa 0,0 l/m 28,3 km/h (4 Bft) SW 223 0 min 0,0 UV-I 30 W/m 5,2 C -3,7 C 49,9 km/h (6 Bft)
14.01.2023 13:57 6,6 C 5,6 C 91 % 1007,5 hPa 0,0 l/m 30,4 km/h (5 Bft) S-SW 197 0 min 0,0 UV-I 28 W/m 5,2 C -4,2 C 48,3 km/h (6 Bft)
14.01.2023 14:00 6,6 C 5,6 C 91 % 1007,4 hPa 0,2 l/m 21,6 km/h (4 Bft) S 180 0 min 0,0 UV-I 30 W/m 5,2 C -1,7 C 37,0 km/h (5 Bft)
14.01.2023 14:03 6,6 C 5,6 C 91 % 1007,6 hPa 0,0 l/m 25,8 km/h (4 Bft) S 177 0 min 0,0 UV-I 24 W/m 5,2 C -3,0 C 40,2 km/h (6 Bft)
14.01.2023 14:06 6,6 C 5,6 C 91 % 1007,3 hPa 0,0 l/m 23,3 km/h (4 Bft) S-SO 164 0 min 0,0 UV-I 23 W/m 5,2 C -2,2 C 54,7 km/h (7 Bft)
14.01.2023 14:09 6,6 C 5,6 C 91 % 1007,2 hPa 0,0 l/m 25,0 km/h (4 Bft) S 175 0 min 0,0 UV-I 27 W/m 5,2 C -2,8 C 45,1 km/h (6 Bft)
14.01.2023 14:12 6,6 C 5,6 C 91 % 1007,1 hPa 0,0 l/m 29,2 km/h (5 Bft) S 171 0 min 0,0 UV-I 28 W/m 5,2 C -3,9 C 53,1 km/h (7 Bft)
14.01.2023 14:15 6,6 C 5,6 C 91 % 1007,0 hPa 0,2 l/m 25,7 km/h (4 Bft) S 191 0 min 0,0 UV-I 24 W/m 5,2 C -3,0 C 41,8 km/h (6 Bft)
14.01.2023 14:18 6,6 C 5,6 C 91 % 1007,0 hPa 0,0 l/m 27,7 km/h (4 Bft) S 190 0 min 0,0 UV-I 23 W/m 5,2 C -3,5 C 59,5 km/h (7 Bft)
14.01.2023 14:21 6,6 C 5,6 C 91 % 1006,8 hPa 0,0 l/m 23,6 km/h (4 Bft) S-SW 194 0 min 0,0 UV-I 22 W/m 5,2 C -2,3 C 37,0 km/h (5 Bft)
14.01.2023 14:24 6,6 C 5,6 C 91 % 1006,8 hPa 0,0 l/m 28,9 km/h (5 Bft) S-SW 197 0 min 0,0 UV-I 21 W/m 5,2 C -3,9 C 43,5 km/h (6 Bft)
14.01.2023 14:27 6,6 C 5,6 C 91 % 1006,8 hPa 0,0 l/m 29,8 km/h (5 Bft) SW 214 0 min 0,0 UV-I 22 W/m 5,2 C -4,1 C 53,1 km/h (7 Bft)
14.01.2023 14:30 6,6 C 5,6 C 91 % 1006,7 hPa 0,0 l/m 27,9 km/h (4 Bft) S-SW 212 0 min 0,0 UV-I 23 W/m 5,2 C -3,6 C 51,5 km/h (7 Bft)
14.01.2023 14:33 6,6 C 5,6 C 91 % 1006,7 hPa 0,0 l/m 30,1 km/h (5 Bft) S-SO 166 0 min 0,0 UV-I 19 W/m 5,2 C -4,1 C 51,5 km/h (7 Bft)
14.01.2023 14:36 6,6 C 5,6 C 91 % 1006,8 hPa 0,2 l/m 26,5 km/h (4 Bft) S 186 0 min 0,0 UV-I 17 W/m 5,2 C -3,2 C 41,8 km/h (6 Bft)
14.01.2023 14:39 6,6 C 5,6 C 91 % 1006,7 hPa 0,0 l/m 27,2 km/h (4 Bft) S 174 0 min 0,0 UV-I 19 W/m 5,2 C -3,4 C 51,5 km/h (7 Bft)
14.01.2023 14:42 6,6 C 5,6 C 91 % 1006,6 hPa 0,0 l/m 28,9 km/h (5 Bft) S 181 0 min 0,0 UV-I 17 W/m 5,2 C -3,9 C 53,1 km/h (7 Bft)
14.01.2023 14:45 6,6 C 5,6 C 91 % 1006,4 hPa 0,2 l/m 27,7 km/h (4 Bft) S 188 0 min 0,0 UV-I 18 W/m 5,2 C -3,5 C 38,6 km/h (5 Bft)
14.01.2023 14:48 6,7 C 5,6 C 91 % 1006,2 hPa 0,0 l/m 29,4 km/h (5 Bft) SO 130 0 min 0,0 UV-I 21 W/m 5,3 C -3,8 C 54,7 km/h (7 Bft)
14.01.2023 14:51 6,6 C 5,6 C 91 % 1006,3 hPa 0,0 l/m 27,6 km/h (4 Bft) SW 216 0 min 0,0 UV-I 22 W/m 5,2 C -3,5 C 43,5 km/h (6 Bft)
14.01.2023 14:54 6,6 C 6,1 C 91 % 1006,2 hPa 0,2 l/m 22,7 km/h (4 Bft) S-SW 194 0 min 0,0 UV-I 23 W/m 5,2 C -2,1 C 37,0 km/h (5 Bft)
14.01.2023 14:57 6,6 C 6,1 C 91 % 1006,3 hPa 0,0 l/m 25,6 km/h (4 Bft) S 185 0 min 0,0 UV-I 24 W/m 5,2 C -3,0 C 38,6 km/h (5 Bft)
14.01.2023 15:00 6,7 C 6,1 C 91 % 1006,0 hPa 0,0 l/m 31,5 km/h (5 Bft) S 170 0 min 0,0 UV-I 22 W/m 5,3 C -4,3 C 53,1 km/h (7 Bft)
14.01.2023 15:03 6,7 C 6,1 C 91 % 1006,0 hPa 0,0 l/m 29,4 km/h (5 Bft) S 183 0 min 0,0 UV-I 23 W/m 5,3 C -3,8 C 48,3 km/h (6 Bft)
14.01.2023 15:06 6,7 C 6,1 C 91 % 1005,7 hPa 0,0 l/m 25,9 km/h (4 Bft) SW 219 0 min 0,0 UV-I 19 W/m 5,3 C -2,9 C 43,5 km/h (6 Bft)
14.01.2023 15:09 6,7 C 6,1 C 91 % 1005,8 hPa 0,0 l/m 32,4 km/h (5 Bft) S 171 0 min 0,0 UV-I 21 W/m 5,3 C -4,5 C 54,7 km/h (7 Bft)
14.01.2023 15:12 6,7 C 6,1 C 91 % 1005,7 hPa 0,0 l/m 28,2 km/h (4 Bft) S-SW 193 0 min 0,0 UV-I 17 W/m 5,3 C -3,5 C 49,9 km/h (6 Bft)
14.01.2023 15:15 6,7 C 6,1 C 91 % 1005,7 hPa 0,0 l/m 26,8 km/h (4 Bft) S 176 0 min 0,0 UV-I 14 W/m 5,3 C -3,2 C 46,7 km/h (6 Bft)
14.01.2023 15:18 6,7 C 6,1 C 91 % 1005,6 hPa 0,0 l/m 28,3 km/h (4 Bft) S-SW 198 0 min 0,0 UV-I 13 W/m 5,3 C -3,6 C 54,7 km/h (7 Bft)
14.01.2023 15:21 6,8 C 6,1 C 91 % 1005,6 hPa 0,2 l/m 30,2 km/h (5 Bft) S 180 0 min 0,0 UV-I 14 W/m 5,4 C -3,9 C 45,1 km/h (6 Bft)
14.01.2023 15:24 6,8 C 6,1 C 91 % 1005,6 hPa 0,0 l/m 32,3 km/h (5 Bft) S-SW 196 0 min 0,0 UV-I 12 W/m 5,4 C -4,4 C 51,5 km/h (7 Bft)
14.01.2023 15:27 6,8 C 6,1 C 91 % 1005,5 hPa 0,0 l/m 31,4 km/h (5 Bft) S-SW 202 0 min 0,0 UV-I 12 W/m 5,4 C -4,2 C 48,3 km/h (6 Bft)
14.01.2023 15:30 6,8 C 6,1 C 91 % 1005,6 hPa 0,0 l/m 27,2 km/h (4 Bft) S-SW 192 0 min 0,0 UV-I 10 W/m 5,4 C -3,1 C 46,7 km/h (6 Bft)
14.01.2023 15:33 6,8 C 6,1 C 91 % 1005,5 hPa 0,0 l/m 24,5 km/h (4 Bft) S-SW 193 0 min 0,0 UV-I 8 W/m 5,4 C -2,4 C 40,2 km/h (6 Bft)
14.01.2023 15:36 6,9 C 6,1 C 91 % 1005,5 hPa 0,0 l/m 23,5 km/h (4 Bft) S 174 0 min 0,0 UV-I 10 W/m 5,5 C -1,9 C 37,0 km/h (5 Bft)
14.01.2023 15:39 6,9 C 6,1 C 92 % 1005,5 hPa 0,0 l/m 29,6 km/h (5 Bft) S-SW 199 0 min 0,0 UV-I 10 W/m 5,7 C -3,6 C 45,1 km/h (6 Bft)
14.01.2023 15:42 6,9 C 6,1 C 92 % 1005,5 hPa 0,0 l/m 25,2 km/h (4 Bft) S-SO 159 0 min 0,0 UV-I 9 W/m 5,7 C -2,4 C 40,2 km/h (6 Bft)
14.01.2023 15:45 6,9 C 6,1 C 92 % 1005,5 hPa 0,0 l/m 24,7 km/h (4 Bft) S-SW 192 0 min 0,0 UV-I 8 W/m 5,7 C -2,3 C 45,1 km/h (6 Bft)
14.01.2023 15:48 6,9 C 6,1 C 92 % 1005,4 hPa 0,0 l/m 31,2 km/h (5 Bft) S-SW 193 0 min 0,0 UV-I 9 W/m 5,7 C -4,0 C 53,1 km/h (7 Bft)
14.01.2023 15:51 6,9 C 6,1 C 92 % 1005,4 hPa 0,0 l/m 27,2 km/h (4 Bft) S-SW 204 0 min 0,0 UV-I 10 W/m 5,7 C -3,0 C 48,3 km/h (6 Bft)
14.01.2023 15:54 7,0 C 6,1 C 92 % 1005,3 hPa 0,2 l/m 27,9 km/h (4 Bft) S 180 0 min 0,0 UV-I 10 W/m 5,8 C -3,0 C 51,5 km/h (7 Bft)
14.01.2023 15:57 7,1 C 6,1 C 92 % 1005,3 hPa 0,0 l/m 28,9 km/h (5 Bft) S 188 0 min 0,0 UV-I 9 W/m 5,9 C -3,2 C 46,7 km/h (6 Bft)
14.01.2023 16:00 7,1 C 6,1 C 92 % 1005,2 hPa 0,0 l/m 28,0 km/h (4 Bft) SW 229 0 min 0,0 UV-I 11 W/m 5,9 C -2,9 C 46,7 km/h (6 Bft)
14.01.2023 16:03 7,1 C 6,1 C 92 % 1005,1 hPa 0,0 l/m 27,9 km/h (4 Bft) S 180 0 min 0,0 UV-I 11 W/m 5,9 C -2,9 C 45,1 km/h (6 Bft)
14.01.2023 16:06 7,1 C 6,1 C 92 % 1005,1 hPa 0,2 l/m 30,0 km/h (5 Bft) S-SO 165 0 min 0,0 UV-I 11 W/m 5,9 C -3,4 C 54,7 km/h (7 Bft)
14.01.2023 16:09 7,1 C 6,1 C 92 % 1005,0 hPa 0,0 l/m 29,4 km/h (5 Bft) S-SW 195 0 min 0,0 UV-I 9 W/m 5,9 C -3,3 C 40,2 km/h (6 Bft)
14.01.2023 16:12 7,2 C 6,1 C 92 % 1005,0 hPa 0,0 l/m 24,6 km/h (4 Bft) S-SW 199 0 min 0,0 UV-I 7 W/m 6,0 C -1,8 C 40,2 km/h (6 Bft)
14.01.2023 16:15 7,2 C 6,7 C 92 % 1005,1 hPa 0,0 l/m 27,5 km/h (4 Bft) S 176 0 min 0,0 UV-I 7 W/m 6,0 C -2,7 C 49,9 km/h (6 Bft)
14.01.2023 16:18 7,2 C 6,7 C 92 % 1005,1 hPa 0,0 l/m 30,0 km/h (5 Bft) S-SW 201 0 min 0,0 UV-I 6 W/m 6,0 C -3,3 C 54,7 km/h (7 Bft)
14.01.2023 16:21 7,2 C 6,7 C 92 % 1004,9 hPa 0,0 l/m 30,0 km/h (5 Bft) S-SW 205 0 min 0,0 UV-I 5 W/m 6,0 C -3,3 C 53,1 km/h (7 Bft)
14.01.2023 16:24 7,2 C 6,7 C 92 % 1005,0 hPa 0,2 l/m 28,6 km/h (4 Bft) S-SW 196 0 min 0,0 UV-I 5 W/m 6,0 C -2,9 C 43,5 km/h (6 Bft)
14.01.2023 16:27 7,2 C 6,7 C 92 % 1005,0 hPa 0,0 l/m 30,0 km/h (5 Bft) S 171 0 min 0,0 UV-I 5 W/m 6,0 C -3,3 C 53,1 km/h (7 Bft)
14.01.2023 16:30 7,3 C 6,7 C 92 % 1004,8 hPa 0,0 l/m 30,7 km/h (5 Bft) S-SW 192 0 min 0,0 UV-I 4 W/m 6,1 C -3,3 C 49,9 km/h (6 Bft)
14.01.2023 16:33 7,2 C 6,7 C 92 % 1004,7 hPa 0,0 l/m 32,3 km/h (5 Bft) S 171 0 min 0,0 UV-I 0 W/m 6,0 C -3,8 C 48,3 km/h (6 Bft)
14.01.2023 16:36 7,3 C 6,7 C 92 % 1004,6 hPa 0,0 l/m 25,6 km/h (4 Bft) S-SW 196 0 min 0,0 UV-I 0 W/m 6,1 C -2,0 C 43,5 km/h (6 Bft)
14.01.2023 16:39 7,3 C 6,7 C 92 % 1004,7 hPa 0,0 l/m 30,4 km/h (5 Bft) S-SO 161 0 min 0,0 UV-I 0 W/m 6,1 C -3,2 C 54,7 km/h (7 Bft)
14.01.2023 16:42 7,3 C 6,7 C 92 % 1004,7 hPa 0,0 l/m 27,2 km/h (4 Bft) S 188 0 min 0,0 UV-I 0 W/m 6,1 C -2,4 C 43,5 km/h (6 Bft)
14.01.2023 16:45 7,3 C 6,7 C 92 % 1004,6 hPa 0,2 l/m 25,4 km/h (4 Bft) S-SO 166 0 min 0,0 UV-I 0 W/m 6,1 C -1,9 C 40,2 km/h (6 Bft)
14.01.2023 16:48 7,3 C 6,7 C 92 % 1004,5 hPa 0,0 l/m 28,0 km/h (4 Bft) S 191 0 min 0,0 UV-I 0 W/m 6,1 C -2,6 C 43,5 km/h (6 Bft)
14.01.2023 16:51 7,3 C 6,7 C 92 % 1004,4 hPa 0,0 l/m 29,9 km/h (5 Bft) S-SW 205 0 min 0,0 UV-I 0 W/m 6,1 C -3,1 C 46,7 km/h (6 Bft)
14.01.2023 16:54 7,3 C 6,7 C 92 % 1004,5 hPa 0,0 l/m 30,8 km/h (5 Bft) S-SW 192 0 min 0,0 UV-I 0 W/m 6,1 C -3,3 C 48,3 km/h (6 Bft)
14.01.2023 16:57 7,3 C 6,7 C 92 % 1004,5 hPa 0,0 l/m 28,3 km/h (4 Bft) S 190 0 min 0,0 UV-I 0 W/m 6,1 C -2,7 C 43,5 km/h (6 Bft)
14.01.2023 17:00 7,3 C 6,7 C 92 % 1004,6 hPa 0,2 l/m 32,7 km/h (5 Bft) S-SW 198 0 min 0,0 UV-I 0 W/m 6,1 C -3,7 C 51,5 km/h (7 Bft)
14.01.2023 17:03 7,4 C 6,7 C 92 % 1004,4 hPa 0,0 l/m 31,9 km/h (5 Bft) S-SW 196 0 min 0,0 UV-I 0 W/m 6,2 C -3,4 C 54,7 km/h (7 Bft)
14.01.2023 17:06 7,4 C 6,7 C 92 % 1004,5 hPa 0,0 l/m 33,1 km/h (5 Bft) S 175 0 min 0,0 UV-I 0 W/m 6,2 C -3,7 C 61,2 km/h (7 Bft)
14.01.2023 17:09 7,4 C 6,7 C 92 % 1004,3 hPa 0,0 l/m 33,3 km/h (5 Bft) S 189 0 min 0,0 UV-I 0 W/m 6,2 C -3,7 C 54,7 km/h (7 Bft)
14.01.2023 17:12 7,4 C 6,7 C 92 % 1004,5 hPa 0,0 l/m 26,4 km/h (4 Bft) S 175 0 min 0,0 UV-I 0 W/m 6,2 C -2,1 C 41,8 km/h (6 Bft)
14.01.2023 17:15 7,4 C 6,7 C 92 % 1004,2 hPa 0,0 l/m 32,5 km/h (5 Bft) S-SW 194 0 min 0,0 UV-I 0 W/m 6,2 C -3,6 C 48,3 km/h (6 Bft)
14.01.2023 17:18 7,4 C 6,7 C 92 % 1004,4 hPa 0,2 l/m 33,3 km/h (5 Bft) S-SW 196 0 min 0,0 UV-I 0 W/m 6,2 C -3,7 C 56,3 km/h (7 Bft)
14.01.2023 17:21 7,4 C 6,7 C 92 % 1004,4 hPa 0,0 l/m 30,8 km/h (5 Bft) S 183 0 min 0,0 UV-I 0 W/m 6,2 C -3,2 C 51,5 km/h (7 Bft)
14.01.2023 17:24 7,4 C 6,7 C 92 % 1004,3 hPa 0,0 l/m 25,7 km/h (4 Bft) S 177 0 min 0,0 UV-I 0 W/m 6,2 C -1,9 C 54,7 km/h (7 Bft)
14.01.2023 17:27 7,4 C 6,7 C 92 % 1004,2 hPa 0,0 l/m 30,2 km/h (5 Bft) S-SO 159 0 min 0,0 UV-I 0 W/m 6,2 C -3,0 C 51,5 km/h (7 Bft)
14.01.2023 17:30 7,5 C 6,7 C 92 % 1004,0 hPa 0,0 l/m 29,4 km/h (5 Bft) S-SW 209 0 min 0,0 UV-I 0 W/m 6,3 C -2,7 C 48,3 km/h (6 Bft)
14.01.2023 17:33 7,5 C 6,7 C 92 % 1004,2 hPa 0,0 l/m 25,3 km/h (4 Bft) S 190 0 min 0,0 UV-I 0 W/m 6,3 C -1,6 C 40,2 km/h (6 Bft)
14.01.2023 17:36 7,6 C 6,7 C 92 % 1004,1 hPa 0,0 l/m 26,7 km/h (4 Bft) S 188 0 min 0,0 UV-I 0 W/m 6,4 C -1,9 C 53,1 km/h (7 Bft)
14.01.2023 17:39 7,6 C 6,7 C 92 % 1004,1 hPa 0,0 l/m 27,9 km/h (4 Bft) S 184 0 min 0,0 UV-I 0 W/m 6,4 C -2,2 C 45,1 km/h (6 Bft)
14.01.2023 17:42 7,6 C 6,7 C 92 % 1004,0 hPa 0,2 l/m 29,6 km/h (5 Bft) S 180 0 min 0,0 UV-I 0 W/m 6,4 C -2,6 C 46,7 km/h (6 Bft)
14.01.2023 17:45 7,6 C 6,7 C 92 % 1004,2 hPa 0,0 l/m 26,4 km/h (4 Bft) S 182 0 min 0,0 UV-I 0 W/m 6,4 C -1,8 C 41,8 km/h (6 Bft)
14.01.2023 17:48 7,6 C 6,7 C 92 % 1003,9 hPa 0,0 l/m 29,6 km/h (5 Bft) S 170 0 min 0,0 UV-I 0 W/m 6,4 C -2,6 C 46,7 km/h (6 Bft)
14.01.2023 17:51 7,6 C 6,7 C 92 % 1004,0 hPa 0,0 l/m 23,9 km/h (4 Bft) S 178 0 min 0,0 UV-I 0 W/m 6,4 C -1,1 C 46,7 km/h (6 Bft)
14.01.2023 17:54 7,6 C 6,7 C 92 % 1004,1 hPa 0,0 l/m 28,0 km/h (4 Bft) S 182 0 min 0,0 UV-I 0 W/m 6,4 C -2,2 C 38,6 km/h (5 Bft)
14.01.2023 17:57 7,7 C 6,7 C 92 % 1004,1 hPa 0,2 l/m 31,3 km/h (5 Bft) S 175 0 min 0,0 UV-I 0 W/m 6,5 C -2,9 C 43,5 km/h (6 Bft)
14.01.2023 18:00 7,6 C 6,7 C 92 % 1004,0 hPa 0,0 l/m 24,6 km/h (4 Bft) S-SW 201 0 min 0,0 UV-I 0 W/m 6,4 C -1,3 C 40,2 km/h (6 Bft)
14.01.2023 18:03 7,7 C 6,7 C 92 % 1003,9 hPa 0,2 l/m 26,6 km/h (4 Bft) S-SW 197 0 min 0,0 UV-I 0 W/m 6,5 C -1,7 C 48,3 km/h (6 Bft)
14.01.2023 18:06 7,7 C 6,7 C 92 % 1004,0 hPa 0,0 l/m 25,5 km/h (4 Bft) S-SW 200 0 min 0,0 UV-I 0 W/m 6,5 C -1,4 C 41,8 km/h (6 Bft)
14.01.2023 18:09 7,7 C 6,7 C 92 % 1004,0 hPa 0,0 l/m 26,3 km/h (4 Bft) S-SW 205 0 min 0,0 UV-I 0 W/m 6,5 C -1,6 C 38,6 km/h (5 Bft)
14.01.2023 18:12 7,7 C 6,7 C 92 % 1003,9 hPa 0,0 l/m 31,5 km/h (5 Bft) S-SW 192 0 min 0,0 UV-I 0 W/m 6,5 C -2,9 C 53,1 km/h (7 Bft)
14.01.2023 18:15 7,7 C 6,7 C 92 % 1003,8 hPa 0,0 l/m 24,7 km/h (4 Bft) S 173 0 min 0,0 UV-I 0 W/m 6,5 C -1,2 C 40,2 km/h (6 Bft)
14.01.2023 18:18 7,8 C 6,7 C 92 % 1003,8 hPa 0,2 l/m 26,4 km/h (4 Bft) S-SW 203 0 min 0,0 UV-I 0 W/m 6,6 C -1,5 C 43,5 km/h (6 Bft)
14.01.2023 18:21 7,8 C 7,2 C 92 % 1003,9 hPa 0,0 l/m 32,2 km/h (5 Bft) S-SW 194 0 min 0,0 UV-I 0 W/m 6,6 C -2,9 C 51,5 km/h (7 Bft)
14.01.2023 18:24 7,8 C 7,2 C 92 % 1004,0 hPa 0,2 l/m 25,7 km/h (4 Bft) S-SW 192 0 min 0,0 UV-I 0 W/m 6,6 C -1,3 C 46,7 km/h (6 Bft)
14.01.2023 18:27 7,8 C 7,2 C 92 % 1003,8 hPa 0,0 l/m 24,1 km/h (4 Bft) SW 227 0 min 0,0 UV-I 0 W/m 6,6 C -0,9 C 38,6 km/h (5 Bft)
14.01.2023 18:30 7,8 C 7,2 C 92 % 1003,7 hPa 0,2 l/m 28,7 km/h (4 Bft) S 182 0 min 0,0 UV-I 0 W/m 6,6 C -2,1 C 45,1 km/h (6 Bft)
14.01.2023 18:33 7,8 C 7,2 C 92 % 1003,8 hPa 0,0 l/m 27,1 km/h (4 Bft) S-SW 207 0 min 0,0 UV-I 0 W/m 6,6 C -1,7 C 43,5 km/h (6 Bft)
14.01.2023 18:36 7,9 C 7,2 C 92 % 1003,8 hPa 0,0 l/m 30,1 km/h (5 Bft) S-SW 202 0 min 0,0 UV-I 0 W/m 6,7 C -2,3 C 45,1 km/h (6 Bft)
14.01.2023 18:39 7,9 C 7,2 C 92 % 1003,9 hPa 0,2 l/m 27,7 km/h (4 Bft) S 172 0 min 0,0 UV-I 0 W/m 6,7 C -1,7 C 53,1 km/h (7 Bft)
14.01.2023 18:42 7,9 C 7,2 C 92 % 1003,8 hPa 0,2 l/m 25,5 km/h (4 Bft) SW 229 0 min 0,0 UV-I 0 W/m 6,7 C -1,2 C 40,2 km/h (6 Bft)
14.01.2023 18:45 7,9 C 7,2 C 92 % 1003,7 hPa 0,0 l/m 27,1 km/h (4 Bft) S-SW 200 0 min 0,0 UV-I 0 W/m 6,7 C -1,6 C 51,5 km/h (7 Bft)
14.01.2023 18:48 7,9 C 7,2 C 92 % 1003,8 hPa 0,2 l/m 29,9 km/h (5 Bft) S-SW 213 0 min 0,0 UV-I 0 W/m 6,7 C -2,3 C 48,3 km/h (6 Bft)
14.01.2023 18:51 7,9 C 7,2 C 92 % 1003,8 hPa 0,0 l/m 24,4 km/h (4 Bft) S 180 0 min 0,0 UV-I 0 W/m 6,7 C -0,8 C 35,4 km/h (5 Bft)
14.01.2023 18:54 8,0 C 7,2 C 92 % 1003,9 hPa 0,0 l/m 23,9 km/h (4 Bft) S 183 0 min 0,0 UV-I 0 W/m 6,8 C -0,6 C 37,0 km/h (5 Bft)
14.01.2023 18:57 8,0 C 7,2 C 92 % 1003,9 hPa 0,0 l/m 26,1 km/h (4 Bft) S-SW 200 0 min 0,0 UV-I 0 W/m 6,8 C -1,2 C 38,6 km/h (5 Bft)
14.01.2023 19:00 8,1 C 7,2 C 92 % 1003,9 hPa 0,0 l/m 26,3 km/h (4 Bft) SO 138 0 min 0,0 UV-I 0 W/m 6,9 C -1,1 C 40,2 km/h (6 Bft)
14.01.2023 19:03 8,0 C 7,2 C 92 % 1004,0 hPa 0,0 l/m 20,5 km/h (4 Bft) S 177 0 min 0,0 UV-I 0 W/m 6,8 C 0,5 C 32,2 km/h (5 Bft)
14.01.2023 19:06 8,0 C 7,2 C 92 % 1004,0 hPa 0,0 l/m 28,0 km/h (4 Bft) S-SW 207 0 min 0,0 UV-I 0 W/m 6,8 C -1,7 C 53,1 km/h (7 Bft)
14.01.2023 19:09 8,1 C 7,2 C 92 % 1003,8 hPa 0,0 l/m 25,6 km/h (4 Bft) S 186 0 min 0,0 UV-I 0 W/m 6,9 C -0,9 C 38,6 km/h (5 Bft)
14.01.2023 19:12 8,1 C 7,2 C 92 % 1003,7 hPa 0,0 l/m 28,6 km/h (4 Bft) S-SW 194 0 min 0,0 UV-I 0 W/m 6,9 C -1,7 C 48,3 km/h (6 Bft)
14.01.2023 19:15 8,1 C 7,2 C 92 % 1003,7 hPa 0,0 l/m 33,2 km/h (5 Bft) S-SW 203 0 min 0,0 UV-I 0 W/m 6,9 C -2,7 C 48,3 km/h (6 Bft)
14.01.2023 19:18 8,2 C 7,2 C 92 % 1003,5 hPa 0,0 l/m 27,7 km/h (4 Bft) S 180 0 min 0,0 UV-I 0 W/m 7,0 C -1,3 C 56,3 km/h (7 Bft)
14.01.2023 19:21 8,2 C 7,2 C 92 % 1003,6 hPa 0,0 l/m 29,3 km/h (5 Bft) S 180 0 min 0,0 UV-I 0 W/m 7,0 C -1,7 C 66,0 km/h (8 Bft)
14.01.2023 19:24 8,2 C 7,2 C 92 % 1003,5 hPa 0,0 l/m 22,4 km/h (4 Bft) S-SW 195 0 min 0,0 UV-I 0 W/m 7,0 C 0,2 C 40,2 km/h (6 Bft)
14.01.2023 19:27 8,2 C 7,2 C 92 % 1003,4 hPa 0,2 l/m 23,6 km/h (4 Bft) SW 221 0 min 0,0 UV-I 0 W/m 7,0 C -0,2 C 43,5 km/h (6 Bft)
14.01.2023 19:30 8,2 C 7,2 C 92 % 1003,3 hPa 0,0 l/m 26,3 km/h (4 Bft) S 178 0 min 0,0 UV-I 0 W/m 7,0 C -1,0 C 45,1 km/h (6 Bft)
14.01.2023 19:33 8,2 C 7,2 C 92 % 1003,3 hPa 0,0 l/m 28,7 km/h (4 Bft) S 178 0 min 0,0 UV-I 0 W/m 7,0 C -1,6 C 41,8 km/h (6 Bft)
14.01.2023 19:36 8,2 C 7,2 C 92 % 1003,3 hPa 0,0 l/m 31,0 km/h (5 Bft) S 177 0 min 0,0 UV-I 0 W/m 7,0 C -2,1 C 46,7 km/h (6 Bft)
14.01.2023 19:39 8,2 C 7,2 C 92 % 1003,3 hPa 0,0 l/m 25,4 km/h (4 Bft) S 172 0 min 0,0 UV-I 0 W/m 7,0 C -0,7 C 43,5 km/h (6 Bft)
14.01.2023 19:42 8,2 C 7,8 C 92 % 1003,2 hPa 0,2 l/m 29,8 km/h (5 Bft) S 174 0 min 0,0 UV-I 0 W/m 7,0 C -1,8 C 45,1 km/h (6 Bft)
14.01.2023 19:45 8,2 C 7,8 C 92 % 1003,3 hPa 0,0 l/m 25,7 km/h (4 Bft) S-SW 209 0 min 0,0 UV-I 0 W/m 7,0 C -0,8 C 45,1 km/h (6 Bft)
14.01.2023 19:48 8,3 C 7,8 C 92 % 1003,1 hPa 0,0 l/m 27,8 km/h (4 Bft) S 189 0 min 0,0 UV-I 0 W/m 7,1 C -1,2 C 51,5 km/h (7 Bft)
14.01.2023 19:51 8,3 C 7,8 C 92 % 1003,1 hPa 0,0 l/m 25,3 km/h (4 Bft) S 186 0 min 0,0 UV-I 0 W/m 7,1 C -0,6 C 38,6 km/h (5 Bft)
14.01.2023 19:54 8,3 C 7,8 C 92 % 1003,0 hPa 0,0 l/m 24,4 km/h (4 Bft) S 172 0 min 0,0 UV-I 0 W/m 7,1 C -0,3 C 43,5 km/h (6 Bft)
14.01.2023 19:57 8,3 C 7,8 C 92 % 1003,0 hPa 0,0 l/m 29,4 km/h (5 Bft) S-SW 203 0 min 0,0 UV-I 0 W/m 7,1 C -1,6 C 43,5 km/h (6 Bft)
14.01.2023 20:00 8,3 C 7,8 C 92 % 1002,7 hPa 0,0 l/m 28,3 km/h (4 Bft) S 186 0 min 0,0 UV-I 0 W/m 7,1 C -1,3 C 43,5 km/h (6 Bft)
14.01.2023 20:03 8,3 C 7,8 C 92 % 1002,9 hPa 0,0 l/m 22,1 km/h (4 Bft) S 186 0 min 0,0 UV-I 0 W/m 7,1 C 0,4 C 41,8 km/h (6 Bft)
14.01.2023 20:06 8,3 C 7,8 C 92 % 1002,8 hPa 0,0 l/m 24,5 km/h (4 Bft) S-SO 161 0 min 0,0 UV-I 0 W/m 7,1 C -0,3 C 35,4 km/h (5 Bft)
14.01.2023 20:09 8,3 C 7,8 C 92 % 1002,7 hPa 0,0 l/m 27,4 km/h (4 Bft) S 190 0 min 0,0 UV-I 0 W/m 7,1 C -1,1 C 41,8 km/h (6 Bft)
14.01.2023 20:12 8,3 C 7,8 C 92 % 1002,8 hPa 0,2 l/m 26,6 km/h (4 Bft) S-SO 166 0 min 0,0 UV-I 0 W/m 7,1 C -0,9 C 37,0 km/h (5 Bft)
14.01.2023 20:15 8,3 C 7,8 C 92 % 1002,7 hPa 0,0 l/m 26,3 km/h (4 Bft) S 184 0 min 0,0 UV-I 0 W/m 7,1 C -0,8 C 43,5 km/h (6 Bft)
14.01.2023 20:18 8,4 C 7,8 C 92 % 1002,7 hPa 0,0 l/m 29,1 km/h (5 Bft) S 169 0 min 0,0 UV-I 0 W/m 7,2 C -1,4 C 46,7 km/h (6 Bft)
14.01.2023 20:21 8,4 C 7,8 C 92 % 1002,7 hPa 0,0 l/m 30,7 km/h (5 Bft) S 186 0 min 0,0 UV-I 0 W/m 7,2 C -1,8 C 51,5 km/h (7 Bft)
14.01.2023 20:24 8,4 C 7,8 C 92 % 1002,8 hPa 0,0 l/m 26,7 km/h (4 Bft) S-SW 205 0 min 0,0 UV-I 0 W/m 7,2 C -0,8 C 48,3 km/h (6 Bft)
14.01.2023 20:27 8,4 C 7,8 C 92 % 1002,8 hPa 0,0 l/m 25,2 km/h (4 Bft) S-SW 197 0 min 0,0 UV-I 0 W/m 7,2 C -0,4 C 40,2 km/h (6 Bft)
14.01.2023 20:30 8,4 C 7,8 C 92 % 1002,7 hPa 0,0 l/m 28,3 km/h (4 Bft) S 182 0 min 0,0 UV-I 0 W/m 7,2 C -1,2 C 45,1 km/h (6 Bft)
14.01.2023 20:33 8,5 C 7,8 C 92 % 1002,5 hPa 0,0 l/m 29,4 km/h (5 Bft) S 179 0 min 0,0 UV-I 0 W/m 7,3 C -1,3 C 43,5 km/h (6 Bft)
14.01.2023 20:36 8,5 C 7,8 C 92 % 1002,8 hPa 0,0 l/m 25,7 km/h (4 Bft) S 179 0 min 0,0 UV-I 0 W/m 7,3 C -0,4 C 43,5 km/h (6 Bft)
14.01.2023 20:39 8,6 C 7,8 C 92 % 1002,6 hPa 0,0 l/m 32,1 km/h (5 Bft) S-SW 203 0 min 0,0 UV-I 0 W/m 7,4 C -1,8 C 53,1 km/h (7 Bft)
14.01.2023 20:42 8,6 C 7,8 C 92 % 1002,4 hPa 0,0 l/m 27,8 km/h (4 Bft) S 188 0 min 0,0 UV-I 0 W/m 7,4 C -0,8 C 46,7 km/h (6 Bft)
14.01.2023 20:45 8,6 C 7,8 C 92 % 1002,6 hPa 0,0 l/m 26,5 km/h (4 Bft) S-SW 209 0 min 0,0 UV-I 0 W/m 7,4 C -0,5 C 59,5 km/h (7 Bft)
14.01.2023 20:48 8,6 C 7,8 C 92 % 1002,7 hPa 0,0 l/m 22,1 km/h (4 Bft) S-SW 197 0 min 0,0 UV-I 0 W/m 7,4 C 0,8 C 41,8 km/h (6 Bft)
14.01.2023 20:51 8,6 C 7,8 C 92 % 1002,4 hPa 0,2 l/m 21,8 km/h (4 Bft) S-SW 197 0 min 0,0 UV-I 0 W/m 7,4 C 0,9 C 35,4 km/h (5 Bft)
14.01.2023 20:54 8,6 C 7,8 C 92 % 1002,5 hPa 0,0 l/m 25,9 km/h (4 Bft) S 190 0 min 0,0 UV-I 0 W/m 7,4 C -0,3 C 40,2 km/h (6 Bft)
14.01.2023 20:57 8,6 C 7,8 C 92 % 1002,4 hPa 0,2 l/m 22,7 km/h (4 Bft) S 188 0 min 0,0 UV-I 0 W/m 7,4 C 0,6 C 45,1 km/h (6 Bft)
14.01.2023 21:00 8,6 C 7,8 C 92 % 1002,4 hPa 0,0 l/m 26,6 km/h (4 Bft) S 190 0 min 0,0 UV-I 0 W/m 7,4 C -0,5 C 46,7 km/h (6 Bft)
14.01.2023 21:03 8,7 C 7,8 C 92 % 1002,5 hPa 0,0 l/m 22,0 km/h (4 Bft) S-SW 199 0 min 0,0 UV-I 0 W/m 7,5 C 1,0 C 32,2 km/h (5 Bft)
14.01.2023 21:06 8,7 C 7,8 C 92 % 1002,3 hPa 0,2 l/m 21,6 km/h (4 Bft) S 188 0 min 0,0 UV-I 0 W/m 7,5 C 1,1 C 37,0 km/h (5 Bft)
14.01.2023 21:09 8,7 C 7,8 C 92 % 1002,4 hPa 0,0 l/m 24,6 km/h (4 Bft) S-SW 197 0 min 0,0 UV-I 0 W/m 7,5 C 0,2 C 37,0 km/h (5 Bft)
14.01.2023 21:12 8,7 C 7,8 C 92 % 1002,4 hPa 0,2 l/m 19,9 km/h (4 Bft) S-SO 165 0 min 0,0 UV-I 0 W/m 7,5 C 1,6 C 30,6 km/h (5 Bft)
14.01.2023 21:15 8,6 C 7,8 C 92 % 1002,5 hPa 0,0 l/m 21,4 km/h (4 Bft) S-SO 160 0 min 0,0 UV-I 0 W/m 7,4 C 1,0 C 38,6 km/h (5 Bft)
14.01.2023 21:18 8,6 C 7,8 C 92 % 1002,4 hPa 0,0 l/m 22,2 km/h (4 Bft) S-SW 192 0 min 0,0 UV-I 0 W/m 7,4 C 0,8 C 37,0 km/h (5 Bft)
14.01.2023 21:21 8,6 C 7,8 C 92 % 1002,3 hPa 0,2 l/m 21,8 km/h (4 Bft) S-SW 211 0 min 0,0 UV-I 0 W/m 7,4 C 0,9 C 35,4 km/h (5 Bft)
14.01.2023 21:24 8,6 C 7,8 C 92 % 1002,1 hPa 0,2 l/m 21,4 km/h (4 Bft) S-SW 193 0 min 0,0 UV-I 0 W/m 7,4 C 1,0 C 32,2 km/h (5 Bft)
14.01.2023 21:27 8,7 C 7,8 C 92 % 1002,2 hPa 0,0 l/m 23,3 km/h (4 Bft) SW 234 0 min 0,0 UV-I 0 W/m 7,5 C 0,6 C 38,6 km/h (5 Bft)
14.01.2023 21:30 8,7 C 7,8 C 92 % 1002,2 hPa 0,2 l/m 23,9 km/h (4 Bft) S-SO 165 0 min 0,0 UV-I 0 W/m 7,5 C 0,4 C 38,6 km/h (5 Bft)
14.01.2023 21:33 8,7 C 7,8 C 92 % 1002,1 hPa 0,0 l/m 18,7 km/h (3 Bft) S-SW 208 0 min 0,0 UV-I 0 W/m 7,5 C 2,1 C 30,6 km/h (5 Bft)
14.01.2023 21:36 8,7 C 7,8 C 92 % 1002,1 hPa 0,2 l/m 23,1 km/h (4 Bft) S-SO 168 0 min 0,0 UV-I 0 W/m 7,5 C 0,6 C 38,6 km/h (5 Bft)
14.01.2023 21:39 8,7 C 7,8 C 92 % 1002,1 hPa 0,2 l/m 18,2 km/h (3 Bft) S-SW 193 0 min 0,0 UV-I 0 W/m 7,5 C 2,3 C 27,4 km/h (4 Bft)
14.01.2023 21:42 8,7 C 7,8 C 92 % 1002,1 hPa 0,2 l/m 18,7 km/h (3 Bft) S-SW 202 0 min 0,0 UV-I 0 W/m 7,5 C 2,1 C 33,8 km/h (5 Bft)
14.01.2023 21:45 8,7 C 7,8 C 92 % 1002,2 hPa 0,0 l/m 21,2 km/h (4 Bft) S-SW 194 0 min 0,0 UV-I 0 W/m 7,5 C 1,2 C 32,2 km/h (5 Bft)
14.01.2023 21:48 8,7 C 7,8 C 92 % 1002,2 hPa 0,2 l/m 17,4 km/h (3 Bft) S-SW 203 0 min 0,0 UV-I 0 W/m 7,5 C 2,6 C 24,1 km/h (4 Bft)
14.01.2023 21:51 8,7 C 7,8 C 92 % 1002,1 hPa 0,2 l/m 18,5 km/h (3 Bft) SW 219 0 min 0,0 UV-I 0 W/m 7,5 C 2,1 C 37,0 km/h (5 Bft)
14.01.2023 21:54 8,7 C 7,8 C 92 % 1001,9 hPa 0,0 l/m 22,3 km/h (4 Bft) S 187 0 min 0,0 UV-I 0 W/m 7,5 C 0,9 C 32,2 km/h (5 Bft)
14.01.2023 21:57 8,7 C 7,8 C 92 % 1002,1 hPa 0,2 l/m 24,6 km/h (4 Bft) S-SW 200 0 min 0,0 UV-I 0 W/m 7,5 C 0,2 C 35,4 km/h (5 Bft)
14.01.2023 22:00 8,7 C 7,8 C 92 % 1002,0 hPa 0,2 l/m 19,3 km/h (3 Bft) S-SO 167 0 min 0,0 UV-I 0 W/m 7,5 C 1,9 C 27,4 km/h (4 Bft)
14.01.2023 22:03 8,7 C 7,8 C 92 % 1001,9 hPa 0,2 l/m 18,6 km/h (3 Bft) S-SW 199 0 min 0,0 UV-I 0 W/m 7,5 C 2,1 C 29,0 km/h (5 Bft)
14.01.2023 22:06 8,7 C 7,8 C 92 % 1001,9 hPa 0,0 l/m 18,4 km/h (3 Bft) S-SW 209 0 min 0,0 UV-I 0 W/m 7,5 C 2,2 C 25,7 km/h (4 Bft)
14.01.2023 22:09 8,7 C 7,8 C 92 % 1001,8 hPa 0,2 l/m 19,5 km/h (3 Bft) S-SW 204 0 min 0,0 UV-I 0 W/m 7,5 C 1,8 C 29,0 km/h (5 Bft)
14.01.2023 22:12 8,8 C 7,8 C 92 % 1001,6 hPa 0,2 l/m 17,4 km/h (3 Bft) SW 222 0 min 0,0 UV-I 0 W/m 7,6 C 2,7 C 29,0 km/h (5 Bft)
14.01.2023 22:15 8,8 C 7,8 C 92 % 1001,8 hPa 0,0 l/m 22,3 km/h (4 Bft) S 175 0 min 0,0 UV-I 0 W/m 7,6 C 1,0 C 32,2 km/h (5 Bft)
14.01.2023 22:18 8,8 C 7,8 C 92 % 1001,8 hPa 0,2 l/m 20,4 km/h (4 Bft) S-SW 198 0 min 0,0 UV-I 0 W/m 7,6 C 1,6 C 35,4 km/h (5 Bft)
14.01.2023 22:21 8,8 C 8,3 C 93 % 1001,8 hPa 0,0 l/m 18,8 km/h (3 Bft) S 189 0 min 0,0 UV-I 0 W/m 7,7 C 2,2 C 38,6 km/h (5 Bft)
14.01.2023 22:24 8,8 C 8,3 C 93 % 1002,2 hPa 0,2 l/m 21,7 km/h (4 Bft) W-SW 258 0 min 0,0 UV-I 0 W/m 7,7 C 1,2 C 30,6 km/h (5 Bft)
14.01.2023 22:27 8,8 C 8,3 C 93 % 1002,5 hPa 0,8 l/m 21,4 km/h (4 Bft) S 174 0 min 0,0 UV-I 0 W/m 7,7 C 1,3 C 40,2 km/h (6 Bft)
14.01.2023 22:30 8,8 C 7,8 C 92 % 1002,5 hPa 0,2 l/m 20,4 km/h (4 Bft) W-SW 257 0 min 0,0 UV-I 0 W/m 7,6 C 1,6 C 35,4 km/h (5 Bft)
14.01.2023 22:33 8,5 C 7,2 C 92 % 1002,5 hPa 0,2 l/m 25,0 km/h (4 Bft) SW 228 0 min 0,0 UV-I 0 W/m 7,3 C -0,2 C 37,0 km/h (5 Bft)
14.01.2023 22:36 8,2 C 7,2 C 91 % 1002,5 hPa 0,0 l/m 21,1 km/h (4 Bft) SW 225 0 min 0,0 UV-I 0 W/m 6,8 C 0,6 C 43,5 km/h (6 Bft)
14.01.2023 22:39 8,1 C 7,2 C 91 % 1002,7 hPa 0,2 l/m 20,7 km/h (4 Bft) S 186 0 min 0,0 UV-I 0 W/m 6,7 C 0,6 C 41,8 km/h (6 Bft)
14.01.2023 22:42 8,0 C 6,7 C 91 % 1002,7 hPa 0,0 l/m 17,1 km/h (3 Bft) S-SW 208 0 min 0,0 UV-I 0 W/m 6,6 C 1,8 C 35,4 km/h (5 Bft)
14.01.2023 22:45 7,9 C 6,7 C 91 % 1002,4 hPa 0,0 l/m 13,5 km/h (3 Bft) SW 232 0 min 0,0 UV-I 0 W/m 6,5 C 3,3 C 29,0 km/h (5 Bft)
14.01.2023 22:48 7,9 C 6,7 C 91 % 1002,7 hPa 0,2 l/m 15,3 km/h (3 Bft) W-SW 246 0 min 0,0 UV-I 0 W/m 6,5 C 2,5 C 30,6 km/h (5 Bft)
14.01.2023 22:51 7,8 C 6,7 C 91 % 1002,6 hPa 0,2 l/m 23,2 km/h (4 Bft) W-SW 254 0 min 0,0 UV-I 0 W/m 6,4 C -0,6 C 41,8 km/h (6 Bft)
14.01.2023 22:54 7,7 C 6,7 C 91 % 1002,6 hPa 0,2 l/m 16,0 km/h (3 Bft) W 260 0 min 0,0 UV-I 0 W/m 6,3 C 1,9 C 25,7 km/h (4 Bft)
14.01.2023 22:57 7,6 C 6,1 C 90 % 1002,6 hPa 0,0 l/m 18,4 km/h (3 Bft) W-SW 248 0 min 0,0 UV-I 0 W/m 6,1 C 0,8 C 33,8 km/h (5 Bft)
14.01.2023 23:00 7,4 C 6,1 C 90 % 1002,6 hPa 0,2 l/m 13,2 km/h (3 Bft) SW 223 0 min 0,0 UV-I 0 W/m 5,9 C 2,9 C 25,7 km/h (4 Bft)
14.01.2023 23:03 7,4 C 6,1 C 91 % 1002,6 hPa 0,2 l/m 11,9 km/h (2 Bft) W-NW 293 0 min 0,0 UV-I 0 W/m 6,0 C 3,6 C 24,1 km/h (4 Bft)
14.01.2023 23:06 7,3 C 6,1 C 91 % 1002,6 hPa 0,2 l/m 10,3 km/h (2 Bft) SW 235 0 min 0,0 UV-I 0 W/m 5,9 C 4,4 C 17,7 km/h (3 Bft)
14.01.2023 23:09 7,3 C 6,1 C 90 % 1002,6 hPa 0,0 l/m 9,3 km/h (2 Bft) W-SW 238 0 min 0,0 UV-I 0 W/m 5,8 C 5,1 C 19,3 km/h (3 Bft)
14.01.2023 23:12 7,2 C 6,1 C 90 % 1002,5 hPa 0,2 l/m 10,7 km/h (2 Bft) SW 229 0 min 0,0 UV-I 0 W/m 5,7 C 4,1 C 19,3 km/h (3 Bft)
14.01.2023 23:15 7,2 C 6,1 C 91 % 1002,6 hPa 0,2 l/m 7,4 km/h (2 Bft) W-SW 240 0 min 0,0 UV-I 0 W/m 5,8 C 6,4 C 19,3 km/h (3 Bft)
14.01.2023 23:18 7,1 C 6,1 C 91 % 1002,5 hPa 0,0 l/m 7,0 km/h (2 Bft) W-SW 252 0 min 0,0 UV-I 0 W/m 5,7 C 6,6 C 14,5 km/h (3 Bft)
14.01.2023 23:21 7,1 C 6,1 C 91 % 1002,3 hPa 0,0 l/m 9,9 km/h (2 Bft) W-SW 246 0 min 0,0 UV-I 0 W/m 5,7 C 4,5 C 16,1 km/h (3 Bft)
14.01.2023 23:24 7,1 C 6,1 C 91 % 1002,3 hPa 0,2 l/m 12,1 km/h (2 Bft) W 264 0 min 0,0 UV-I 0 W/m 5,7 C 3,1 C 22,5 km/h (4 Bft)
14.01.2023 23:27 7,0 C 6,1 C 91 % 1002,3 hPa 0,2 l/m 16,3 km/h (3 Bft) SW 225 0 min 0,0 UV-I 0 W/m 5,6 C 0,9 C 22,5 km/h (4 Bft)
14.01.2023 23:30 6,9 C 6,1 C 91 % 1002,4 hPa 0,2 l/m 14,5 km/h (3 Bft) SW 219 0 min 0,0 UV-I 0 W/m 5,5 C 1,6 C 25,7 km/h (4 Bft)
14.01.2023 23:33 6,9 C 6,1 C 91 % 1002,4 hPa 0,0 l/m 12,9 km/h (3 Bft) W 271 0 min 0,0 UV-I 0 W/m 5,5 C 2,4 C 20,9 km/h (4 Bft)
14.01.2023 23:36 6,8 C 6,1 C 91 % 1002,4 hPa 0,2 l/m 13,0 km/h (3 Bft) W-SW 244 0 min 0,0 UV-I 0 W/m 5,4 C 2,3 C 20,9 km/h (4 Bft)
14.01.2023 23:39 6,8 C 5,6 C 91 % 1002,3 hPa 0,0 l/m 10,2 km/h (2 Bft) SW 225 0 min 0,0 UV-I 0 W/m 5,4 C 3,9 C 19,3 km/h (3 Bft)
14.01.2023 23:42 6,8 C 5,6 C 91 % 1002,2 hPa 0,2 l/m 10,0 km/h (2 Bft) SW 230 0 min 0,0 UV-I 0 W/m 5,4 C 4,1 C 17,7 km/h (3 Bft)
14.01.2023 23:45 6,8 C 6,1 C 91 % 1002,2 hPa 0,0 l/m 7,0 km/h (2 Bft) S-SW 209 0 min 0,0 UV-I 0 W/m 5,4 C 6,3 C 17,7 km/h (3 Bft)
14.01.2023 23:48 6,7 C 6,1 C 91 % 1002,3 hPa 0,2 l/m 7,3 km/h (2 Bft) W-SW 252 0 min 0,0 UV-I 0 W/m 5,3 C 6,0 C 14,5 km/h (3 Bft)
14.01.2023 23:51 6,8 C 6,1 C 91 % 1002,3 hPa 0,0 l/m 9,6 km/h (2 Bft) S-SW 201 0 min 0,0 UV-I 0 W/m 5,4 C 4,3 C 17,7 km/h (3 Bft)
14.01.2023 23:54 6,8 C 6,1 C 91 % 1002,3 hPa 0,2 l/m 13,3 km/h (3 Bft) S 180 0 min 0,0 UV-I 0 W/m 5,4 C 2,1 C 24,1 km/h (4 Bft)
14.01.2023 23:57 6,7 C 5,6 C 91 % 1002,5 hPa 0,2 l/m 21,0 km/h (4 Bft) W 274 0 min 0,0 UV-I 0 W/m 5,3 C -1,3 C 32,2 km/h (5 Bft)
14.01.2023 23:58 6,6 C 5,6 C 91 % 1002,5 hPa 0,0 l/m 20,9 km/h (4 Bft) W 270 0 min 0,0 UV-I 0 W/m 5,2 C -1,4 C 32,2 km/h (5 Bft)
14.01.2023 23:59 6,4 C 5,0 C 90 % 1002,5 hPa 0,0 l/m 17,7 km/h (3 Bft) W-SW 247 0 min 0,0 UV-I 0 W/m 4,9 C -0,4 C 30,6 km/h (5 Bft)
_ Min-Zeit 03:36 03:09 02:08 22:12 - 23:18 - - - - - 03:38 08:46 00:39
Minimum _ 3,6 C 2,8 C 89 % 1001,6 hPa - 7,0 km/h (2 Bft) - - - - - 2,0 C -9,1 C 9,7 km/h (2 Bft)
_ Max-Zeit 21:57 22:21 10:09 00:34 22:27 08:46 - - 00:00 00:00 12:33 22:21 23:18 12:33
Maximum _ 8,8 C 8,3 C 93 % 1019,5 hPa 0,8 l/m 37,0 km/h
S-SO (5 Bft)
- - 0 min 0,0 UV-I 52 W/m 7,7 C 6,6 C 66,0 km/h
S (8 Bft)
Durchschnitt _ 5,9 C 5,1 C 91 % 1010,5 hPa #15,8 l/m 21,6 km/h (4 Bft) S - #0 min. 0,0 UV-I 23 W/m 4,5 C -2,3 C 35,1 km/h (5 Bft)